Time,TemperatureF,DewpointF,PressureIn,WindDirection,WindDirectionDegrees,WindSpeedMPH,WindSpeedGustMPH,Humidity,HourlyPrecipIn,Conditions,Clouds,dailyrainin,SoftwareType,DateUTC
2013-11-23 00:00:00,38.1,30.9,30.35,NNE,28,2.0,8.0,75,0.00,,---,0.11,VWS V14.01,2013-11-23 05:00:00,
2013-11-23 00:01:00,38.1,30.9,30.35,NE,34,4.0,5.0,75,0.00,,---,0.00,VWS V14.01,2013-11-23 05:01:00,
2013-11-23 00:02:00,38.0,30.8,30.35,NNW,341,0.0,4.0,75,0.00,,---,0.00,VWS V14.01,2013-11-23 05:02:00,
2013-11-23 00:03:00,38.0,31.1,30.35,NNW,342,3.0,4.0,76,0.00,,---,0.00,VWS V14.01,2013-11-23 05:03:00,
2013-11-23 00:04:00,38.0,30.8,30.35,North,355,5.0,5.0,75,0.00,,---,0.00,VWS V14.01,2013-11-23 05:04:00,
2013-11-23 00:05:00,38.0,30.8,30.35,North,5,4.0,5.0,75,0.00,,---,0.00,VWS V14.01,2013-11-23 05:05:00,
2013-11-23 00:06:00,38.0,30.8,30.35,North,9,0.0,4.0,75,0.00,,---,0.00,VWS V14.01,2013-11-23 05:06:00,
2013-11-23 00:07:00,38.0,31.1,30.35,North,350,0.0,3.0,76,0.00,,---,0.00,VWS V14.01,2013-11-23 05:07:00,
2013-11-23 00:08:00,38.0,31.1,30.35,NNE,33,3.0,4.0,76,0.00,,---,0.00,VWS V14.01,2013-11-23 05:08:00,
2013-11-23 00:09:00,38.0,31.1,30.35,North,355,0.0,7.0,76,0.00,,---,0.00,VWS V14.01,2013-11-23 05:09:00,
2013-11-23 00:10:00,38.0,31.1,30.35,NNW,340,2.0,7.0,76,0.00,,---,0.00,VWS V14.01,2013-11-23 05:10:00,
2013-11-23 00:11:00,37.9,31.0,30.35,North,355,1.0,2.0,76,0.00,,---,0.00,VWS V14.01,2013-11-23 05:11:00,
2013-11-23 00:12:00,37.9,31.0,30.35,NNE,14,0.0,6.0,76,0.00,,---,0.00,VWS V14.01,2013-11-23 05:12:00,
2013-11-23 00:13:00,37.9,31.0,30.35,NW,306,1.0,8.0,76,0.00,,---,0.00,VWS V14.01,2013-11-23 05:13:00,
2013-11-23 00:14:00,37.9,31.0,30.35,North,360,4.0,6.0,76,0.00,,---,0.00,VWS V14.01,2013-11-23 05:14:00,
2013-11-23 00:15:00,37.9,31.0,30.35,NNW,329,3.0,4.0,76,0.00,,---,0.00,VWS V14.01,2013-11-23 05:15:00,
2013-11-23 00:16:00,37.9,31.0,30.34,NE,41,0.0,5.0,76,0.00,,---,0.00,VWS V14.01,2013-11-23 05:16:00,
2013-11-23 00:17:00,37.9,31.0,30.34,NW,324,2.0,4.0,76,0.00,,---,0.00,VWS V14.01,2013-11-23 05:17:00,
2013-11-23 00:18:00,37.8,30.9,30.34,North,350,0.0,4.0,76,0.00,,---,0.00,VWS V14.01,2013-11-23 05:18:00,
2013-11-23 00:19:00,37.8,30.9,30.35,NNE,15,3.0,6.0,76,0.00,,---,0.00,VWS V14.01,2013-11-23 05:19:00,
2013-11-23 00:20:00,37.8,30.9,30.35,North,355,1.0,3.0,76,0.00,,---,0.00,VWS V14.01,2013-11-23 05:20:00,
2013-11-23 00:21:00,37.8,30.9,30.35,NNW,331,0.0,4.0,76,0.00,,---,0.00,VWS V14.01,2013-11-23 05:21:00,
2013-11-23 00:22:00,37.8,31.2,30.35,NW,324,0.0,3.0,77,0.00,,---,0.00,VWS V14.01,2013-11-23 05:22:00,
2013-11-23 00:23:00,37.8,31.2,30.35,NNW,340,3.0,8.0,77,0.00,,---,0.00,VWS V14.01,2013-11-23 05:23:00,
2013-11-23 00:24:00,37.8,30.9,30.35,NNW,341,3.0,7.0,76,0.00,,---,0.00,VWS V14.01,2013-11-23 05:24:00,
2013-11-23 00:25:00,37.8,30.9,30.34,NNW,339,4.0,4.0,76,0.00,,---,0.00,VWS V14.01,2013-11-23 05:25:00,
2013-11-23 00:26:00,37.8,30.9,30.34,NNW,338,3.0,6.0,76,0.00,,---,0.00,VWS V14.01,2013-11-23 05:26:00,
2013-11-23 00:27:00,37.8,30.9,30.34,NNW,348,4.0,6.0,76,0.00,,---,0.00,VWS V14.01,2013-11-23 05:27:00,
2013-11-23 00:28:00,37.8,30.9,30.35,NE,34,7.0,7.0,76,0.00,,---,0.00,VWS V14.01,2013-11-23 05:28:00,
2013-11-23 00:29:00,37.8,30.9,30.35,NNE,13,0.0,7.0,76,0.00,,---,0.00,VWS V14.01,2013-11-23 05:29:00,
2013-11-23 00:30:00,37.8,30.9,30.35,NNW,332,0.0,6.0,76,0.00,,---,0.00,VWS V14.01,2013-11-23 05:30:00,
2013-11-23 00:31:00,37.8,31.2,30.35,North,11,3.0,3.0,77,0.00,,---,0.00,VWS V14.01,2013-11-23 05:31:00,
2013-11-23 00:32:00,37.7,31.1,30.35,NNW,336,0.0,7.0,77,0.00,,---,0.00,VWS V14.01,2013-11-23 05:32:00,
2013-11-23 00:33:00,37.7,31.1,30.35,NNW,335,0.0,0.0,77,0.00,,---,0.00,VWS V14.01,2013-11-23 05:33:00,
2013-11-23 00:34:00,37.7,31.1,30.35,NNW,342,0.0,5.0,77,0.00,,---,0.00,VWS V14.01,2013-11-23 05:34:00,
2013-11-23 00:35:00,37.7,31.1,30.35,NNW,344,4.0,4.0,77,0.00,,---,0.00,VWS V14.01,2013-11-23 05:35:00,
2013-11-23 00:36:00,37.7,31.1,30.35,NNW,327,5.0,6.0,77,0.00,,---,0.00,VWS V14.01,2013-11-23 05:36:00,
2013-11-23 00:37:00,37.7,31.1,30.35,North,5,4.0,6.0,77,0.00,,---,0.00,VWS V14.01,2013-11-23 05:37:00,
2013-11-23 00:38:00,37.7,31.1,30.35,NNW,328,9.0,9.0,77,0.00,,---,0.00,VWS V14.01,2013-11-23 05:38:00,
2013-11-23 00:39:00,37.7,31.1,30.35,NNE,26,2.0,9.0,77,0.00,,---,0.00,VWS V14.01,2013-11-23 05:39:00,
2013-11-23 00:40:00,37.7,31.1,30.35,NNW,346,0.0,3.0,77,0.00,,---,0.00,VWS V14.01,2013-11-23 05:40:00,
2013-11-23 00:41:00,37.7,31.1,30.35,NNW,346,0.0,0.0,77,0.00,,---,0.00,VWS V14.01,2013-11-23 05:41:00,
2013-11-23 00:42:00,37.7,31.1,30.35,North,355,4.0,7.0,77,0.00,,---,0.00,VWS V14.01,2013-11-23 05:42:00,
2013-11-23 00:43:00,37.7,31.1,30.35,North,355,0.0,4.0,77,0.00,,---,0.00,VWS V14.01,2013-11-23 05:43:00,
2013-11-23 00:44:00,37.7,31.1,30.35,NNE,28,2.0,6.0,77,0.00,,---,0.00,VWS V14.01,2013-11-23 05:44:00,
2013-11-23 00:45:00,37.7,31.1,30.35,NNW,336,3.0,3.0,77,0.00,,---,0.00,VWS V14.01,2013-11-23 05:45:00,
2013-11-23 00:46:00,37.7,31.1,30.35,NNW,348,0.0,5.0,77,0.00,,---,0.00,VWS V14.01,2013-11-23 05:46:00,
2013-11-23 00:47:00,37.6,31.1,30.35,North,11,2.0,3.0,77,0.00,,---,0.00,VWS V14.01,2013-11-23 05:47:00,
2013-11-23 00:48:00,37.6,31.1,30.35,NNE,18,0.0,2.0,77,0.00,,---,0.00,VWS V14.01,2013-11-23 05:48:00,
2013-11-23 00:49:00,37.6,31.1,30.35,NNE,18,1.0,4.0,77,0.00,,---,0.00,VWS V14.01,2013-11-23 05:49:00,
2013-11-23 00:50:00,37.6,31.1,30.35,NW,317,0.0,3.0,77,0.00,,---,0.00,VWS V14.01,2013-11-23 05:50:00,
2013-11-23 00:51:00,37.5,31.0,30.35,NNE,24,2.0,4.0,77,0.00,,---,0.00,VWS V14.01,2013-11-23 05:51:00,
2013-11-23 00:52:00,37.5,31.0,30.35,NNW,338,0.0,3.0,77,0.00,,---,0.00,VWS V14.01,2013-11-23 05:52:00,
2013-11-23 00:53:00,37.5,31.0,30.35,North,360,0.0,1.0,77,0.00,,---,0.00,VWS V14.01,2013-11-23 05:53:00,
2013-11-23 00:54:00,37.5,31.0,30.35,NNW,348,3.0,4.0,77,0.00,,---,0.00,VWS V14.01,2013-11-23 05:54:00,
2013-11-23 00:55:00,37.5,31.0,30.35,North,349,0.0,3.0,77,0.00,,---,0.00,VWS V14.01,2013-11-23 05:55:00,
2013-11-23 00:56:00,37.5,31.3,30.35,North,349,0.0,0.0,78,0.00,,---,0.00,VWS V14.01,2013-11-23 05:56:00,
2013-11-23 00:57:00,37.4,31.2,30.35,North,360,1.0,1.0,78,0.00,,---,0.00,VWS V14.01,2013-11-23 05:57:00,
2013-11-23 00:58:00,37.4,31.2,30.35,NNE,15,0.0,4.0,78,0.00,,---,0.00,VWS V14.01,2013-11-23 05:58:00,
2013-11-23 00:59:00,37.4,31.2,30.35,North,11,0.0,1.0,78,0.00,,---,0.00,VWS V14.01,2013-11-23 05:59:00,
2013-11-23 01:00:00,37.4,31.2,30.35,NNE,19,1.0,3.0,78,0.00,,---,0.00,VWS V14.01,2013-11-23 06:00:00,
2013-11-23 01:01:00,37.3,31.1,30.35,NNE,17,0.0,1.0,78,0.00,,---,0.00,VWS V14.01,2013-11-23 06:01:00,
2013-11-23 01:02:00,37.3,31.1,30.35,North,360,0.0,1.0,78,0.00,,---,0.00,VWS V14.01,2013-11-23 06:02:00,
2013-11-23 01:03:00,37.3,31.1,30.35,NNW,337,0.0,4.0,78,0.00,,---,0.00,VWS V14.01,2013-11-23 06:03:00,
2013-11-23 01:04:00,37.3,31.1,30.35,NNW,336,0.0,1.0,78,0.00,,---,0.00,VWS V14.01,2013-11-23 06:04:00,
2013-11-23 01:05:00,37.2,31.0,30.35,NNW,337,0.0,0.0,78,0.00,,---,0.00,VWS V14.01,2013-11-23 06:05:00,
2013-11-23 01:06:00,37.1,30.9,30.35,NNW,337,0.0,0.0,78,0.00,,---,0.00,VWS V14.01,2013-11-23 06:06:00,
2013-11-23 01:07:00,37.1,31.2,30.35,NNW,337,0.0,0.0,79,0.00,,---,0.00,VWS V14.01,2013-11-23 06:07:00,
2013-11-23 01:08:00,37.1,31.2,30.35,NNW,333,0.0,3.0,79,0.00,,---,0.00,VWS V14.01,2013-11-23 06:08:00,
2013-11-23 01:09:00,37.1,31.2,30.35,NNW,346,0.0,3.0,79,0.00,,---,0.00,VWS V14.01,2013-11-23 06:09:00,
2013-11-23 01:10:00,37.0,31.1,30.35,North,360,3.0,4.0,79,0.00,,---,0.00,VWS V14.01,2013-11-23 06:10:00,
2013-11-23 01:11:00,37.0,31.1,30.35,NNW,343,2.0,6.0,79,0.00,,---,0.00,VWS V14.01,2013-11-23 06:11:00,
2013-11-23 01:12:00,37.0,30.8,30.35,North,355,0.0,5.0,78,0.00,,---,0.00,VWS V14.01,2013-11-23 06:12:00,
2013-11-23 01:13:00,37.0,30.8,30.35,North,350,0.0,5.0,78,0.00,,---,0.00,VWS V14.01,2013-11-23 06:13:00,
2013-11-23 01:14:00,37.0,31.1,30.35,NNW,344,1.0,1.0,79,0.00,,---,0.00,VWS V14.01,2013-11-23 06:14:00,
2013-11-23 01:15:00,36.9,31.0,30.35,North,355,0.0,7.0,79,0.00,,---,0.00,VWS V14.01,2013-11-23 06:15:00,
2013-11-23 01:16:00,37.0,30.8,30.35,North,5,0.0,2.0,78,0.00,,---,0.00,VWS V14.01,2013-11-23 06:16:00,
2013-11-23 01:17:00,36.9,30.7,30.35,NW,323,1.0,8.0,78,0.00,,---,0.00,VWS V14.01,2013-11-23 06:17:00,
2013-11-23 01:18:00,36.9,30.7,30.35,NE,38,1.0,5.0,78,0.00,,---,0.00,VWS V14.01,2013-11-23 06:18:00,
2013-11-23 01:19:00,36.9,30.7,30.35,NE,36,0.0,1.0,78,0.00,,---,0.00,VWS V14.01,2013-11-23 06:19:00,
2013-11-23 01:20:00,36.9,30.7,30.35,North,10,1.0,1.0,78,0.00,,---,0.00,VWS V14.01,2013-11-23 06:20:00,
2013-11-23 01:21:00,36.9,30.7,30.35,North,355,0.0,4.0,78,0.00,,---,0.00,VWS V14.01,2013-11-23 06:21:00,
2013-11-23 01:22:00,36.9,30.7,30.35,NNW,330,0.0,3.0,78,0.00,,---,0.00,VWS V14.01,2013-11-23 06:22:00,
2013-11-23 01:23:00,36.9,30.7,30.35,NNE,13,1.0,3.0,78,0.00,,---,0.00,VWS V14.01,2013-11-23 06:23:00,
2013-11-23 01:24:00,36.9,30.7,30.35,North,355,1.0,5.0,78,0.00,,---,0.00,VWS V14.01,2013-11-23 06:24:00,
2013-11-23 01:25:00,36.8,30.6,30.35,North,355,0.0,1.0,78,0.00,,---,0.00,VWS V14.01,2013-11-23 06:25:00,
2013-11-23 01:26:00,36.8,30.6,30.35,North,355,1.0,2.0,78,0.00,,---,0.00,VWS V14.01,2013-11-23 06:26:00,
2013-11-23 01:27:00,36.8,30.6,30.35,North,5,2.0,3.0,78,0.00,,---,0.00,VWS V14.01,2013-11-23 06:27:00,
2013-11-23 01:28:00,36.8,30.6,30.35,NNW,337,3.0,5.0,78,0.00,,---,0.00,VWS V14.01,2013-11-23 06:28:00,
2013-11-23 01:29:00,36.8,30.6,30.35,NE,49,0.0,4.0,78,0.00,,---,0.00,VWS V14.01,2013-11-23 06:29:00,
2013-11-23 01:30:00,36.7,30.8,30.35,North,5,4.0,4.0,79,0.00,,---,0.00,VWS V14.01,2013-11-23 06:30:00,
2013-11-23 01:31:00,36.7,30.8,30.35,NNE,18,2.0,4.0,79,0.00,,---,0.00,VWS V14.01,2013-11-23 06:31:00,
2013-11-23 01:32:00,36.7,30.8,30.35,NNE,17,0.0,2.0,79,0.00,,---,0.00,VWS V14.01,2013-11-23 06:32:00,
2013-11-23 01:33:00,36.6,30.7,30.35,NW,325,4.0,4.0,79,0.00,,---,0.00,VWS V14.01,2013-11-23 06:33:00,
2013-11-23 01:34:00,36.6,30.7,30.35,NW,325,1.0,4.0,79,0.00,,---,0.00,VWS V14.01,2013-11-23 06:34:00,
2013-11-23 01:35:00,36.6,30.7,30.35,North,10,2.0,5.0,79,0.00,,---,0.00,VWS V14.01,2013-11-23 06:35:00,
2013-11-23 01:36:00,36.6,30.7,30.35,NNW,333,3.0,3.0,79,0.00,,---,0.00,VWS V14.01,2013-11-23 06:36:00,
2013-11-23 01:37:00,36.6,30.7,30.35,NW,315,6.0,6.0,79,0.00,,---,0.00,VWS V14.01,2013-11-23 06:37:00,
2013-11-23 01:38:00,36.6,30.7,30.35,NNW,341,2.0,6.0,79,0.00,,---,0.00,VWS V14.01,2013-11-23 06:38:00,
2013-11-23 01:39:00,36.5,30.6,30.35,North,351,0.0,5.0,79,0.00,,---,0.00,VWS V14.01,2013-11-23 06:39:00,
2013-11-23 01:40:00,36.5,30.6,30.35,NNE,30,0.0,4.0,79,0.00,,---,0.00,VWS V14.01,2013-11-23 06:40:00,
2013-11-23 01:41:00,36.5,30.6,30.35,NNW,331,2.0,8.0,79,0.00,,---,0.00,VWS V14.01,2013-11-23 06:41:00,
2013-11-23 01:42:00,36.4,30.5,30.35,North,5,0.0,3.0,79,0.00,,---,0.00,VWS V14.01,2013-11-23 06:42:00,
2013-11-23 01:43:00,36.4,30.5,30.35,NNW,339,7.0,7.0,79,0.00,,---,0.00,VWS V14.01,2013-11-23 06:43:00,
2013-11-23 01:44:00,36.4,30.5,30.35,NNW,332,2.0,7.0,79,0.00,,---,0.00,VWS V14.01,2013-11-23 06:44:00,
2013-11-23 01:45:00,36.4,30.5,30.35,NNW,331,0.0,3.0,79,0.00,,---,0.00,VWS V14.01,2013-11-23 06:45:00,
2013-11-23 01:46:00,36.3,30.4,30.35,NNW,330,0.0,1.0,79,0.00,,---,0.00,VWS V14.01,2013-11-23 06:46:00,
2013-11-23 01:47:00,36.3,30.4,30.35,NNW,328,5.0,5.0,79,0.00,,---,0.00,VWS V14.01,2013-11-23 06:47:00,
2013-11-23 01:48:00,36.2,30.3,30.35,North,355,1.0,6.0,79,0.00,,---,0.00,VWS V14.01,2013-11-23 06:48:00,
2013-11-23 01:49:00,36.2,30.3,30.35,North,351,0.0,3.0,79,0.00,,---,0.00,VWS V14.01,2013-11-23 06:49:00,
2013-11-23 01:50:00,36.2,30.3,30.35,North,5,0.0,1.0,79,0.00,,---,0.00,VWS V14.01,2013-11-23 06:50:00,
2013-11-23 01:51:00,36.1,30.2,30.35,North,9,0.0,3.0,79,0.00,,---,0.00,VWS V14.01,2013-11-23 06:51:00,
2013-11-23 01:52:00,36.1,30.2,30.35,NNW,338,0.0,3.0,79,0.00,,---,0.00,VWS V14.01,2013-11-23 06:52:00,
2013-11-23 01:53:00,36.0,30.4,30.35,NW,319,2.0,2.0,80,0.00,,---,0.00,VWS V14.01,2013-11-23 06:53:00,
2013-11-23 01:54:00,36.0,30.4,30.35,NW,325,0.0,4.0,80,0.00,,---,0.00,VWS V14.01,2013-11-23 06:54:00,
2013-11-23 01:55:00,35.9,30.3,30.35,NW,325,0.0,0.0,80,0.00,,---,0.00,VWS V14.01,2013-11-23 06:55:00,
2013-11-23 01:56:00,35.9,30.3,30.35,NW,326,1.0,2.0,80,0.00,,---,0.00,VWS V14.01,2013-11-23 06:56:00,
2013-11-23 01:57:00,35.9,30.3,30.35,NNW,330,0.0,1.0,80,0.00,,---,0.00,VWS V14.01,2013-11-23 06:57:00,
2013-11-23 01:58:00,35.9,30.3,30.35,NNW,331,0.0,0.0,80,0.00,,---,0.00,VWS V14.01,2013-11-23 06:58:00,
2013-11-23 01:59:00,35.8,30.2,30.35,NNW,340,1.0,4.0,80,0.00,,---,0.00,VWS V14.01,2013-11-23 06:59:00,
2013-11-23 02:00:00,35.8,30.2,30.35,North,355,0.0,4.0,80,0.00,,---,0.00,VWS V14.01,2013-11-23 07:00:00,
2013-11-23 02:01:00,35.7,30.1,30.35,NNW,329,3.0,3.0,80,0.00,,---,0.00,VWS V14.01,2013-11-23 07:01:00,
2013-11-23 02:02:00,35.7,30.1,30.35,NNW,333,1.0,3.0,80,0.00,,---,0.00,VWS V14.01,2013-11-23 07:02:00,
2013-11-23 02:03:00,35.7,30.1,30.35,NNW,331,0.0,1.0,80,0.00,,---,0.00,VWS V14.01,2013-11-23 07:03:00,
2013-11-23 02:04:00,35.7,30.5,30.35,NNW,330,1.0,2.0,81,0.00,,---,0.00,VWS V14.01,2013-11-23 07:04:00,
2013-11-23 02:05:00,35.7,30.5,30.35,NNW,333,0.0,3.0,81,0.00,,---,0.00,VWS V14.01,2013-11-23 07:05:00,
2013-11-23 02:06:00,35.6,30.4,30.35,NNW,333,0.0,2.0,81,0.00,,---,0.00,VWS V14.01,2013-11-23 07:06:00,
2013-11-23 02:07:00,35.6,30.4,30.35,North,349,7.0,9.0,81,0.00,,---,0.00,VWS V14.01,2013-11-23 07:07:00,
2013-11-23 02:08:00,35.6,30.4,30.35,North,360,1.0,6.0,81,0.00,,---,0.00,VWS V14.01,2013-11-23 07:08:00,
2013-11-23 02:09:00,35.6,30.4,30.35,North,360,1.0,1.0,81,0.00,,---,0.00,VWS V14.01,2013-11-23 07:09:00,
2013-11-23 02:10:00,35.6,30.4,30.35,NW,322,4.0,4.0,81,0.00,,---,0.00,VWS V14.01,2013-11-23 07:10:00,
2013-11-23 02:11:00,35.5,30.3,30.35,NW,326,0.0,3.0,81,0.00,,---,0.00,VWS V14.01,2013-11-23 07:11:00,
2013-11-23 02:12:00,35.5,30.3,30.35,NNW,332,1.0,3.0,81,0.00,,---,0.00,VWS V14.01,2013-11-23 07:12:00,
2013-11-23 02:13:00,35.5,30.3,30.35,North,10,1.0,1.0,81,0.00,,---,0.00,VWS V14.01,2013-11-23 07:13:00,
2013-11-23 02:14:00,35.5,30.3,30.35,North,355,2.0,4.0,81,0.00,,---,0.00,VWS V14.01,2013-11-23 07:14:00,
2013-11-23 02:15:00,35.5,30.3,30.35,North,355,0.0,1.0,81,0.00,,---,0.00,VWS V14.01,2013-11-23 07:15:00,
2013-11-23 02:16:00,35.5,30.3,30.35,NNW,342,0.0,5.0,81,0.00,,---,0.00,VWS V14.01,2013-11-23 07:16:00,
2013-11-23 02:17:00,35.5,30.3,30.35,North,5,0.0,4.0,81,0.00,,---,0.00,VWS V14.01,2013-11-23 07:17:00,
2013-11-23 02:18:00,35.5,30.3,30.35,NNW,327,2.0,4.0,81,0.00,,---,0.00,VWS V14.01,2013-11-23 07:18:00,
2013-11-23 02:19:00,35.5,30.3,30.35,North,350,1.0,3.0,81,0.00,,---,0.00,VWS V14.01,2013-11-23 07:19:00,
2013-11-23 02:20:00,35.5,30.3,30.35,NNW,331,2.0,4.0,81,0.00,,---,0.00,VWS V14.01,2013-11-23 07:20:00,
2013-11-23 02:21:00,35.5,30.3,30.36,North,9,0.0,2.0,81,0.00,,---,0.00,VWS V14.01,2013-11-23 07:21:00,
2013-11-23 02:22:00,35.5,30.3,30.36,NW,326,3.0,4.0,81,0.00,,---,0.00,VWS V14.01,2013-11-23 07:22:00,
2013-11-23 02:23:00,35.4,30.2,30.36,NNW,327,2.0,5.0,81,0.00,,---,0.00,VWS V14.01,2013-11-23 07:23:00,
2013-11-23 02:24:00,35.4,30.2,30.36,NNW,346,0.0,4.0,81,0.00,,---,0.00,VWS V14.01,2013-11-23 07:24:00,
2013-11-23 02:25:00,35.5,30.3,30.36,North,349,0.0,1.0,81,0.00,,---,0.00,VWS V14.01,2013-11-23 07:25:00,
2013-11-23 02:26:00,35.5,30.3,30.36,NNE,16,0.0,0.0,81,0.00,,---,0.00,VWS V14.01,2013-11-23 07:26:00,
2013-11-23 02:27:00,35.5,30.3,30.36,NNE,18,0.0,2.0,81,0.00,,---,0.00,VWS V14.01,2013-11-23 07:27:00,
2013-11-23 02:28:00,35.4,30.5,30.36,North,5,0.0,2.0,82,0.00,,---,0.00,VWS V14.01,2013-11-23 07:28:00,
2013-11-23 02:29:00,35.4,30.5,30.35,North,5,0.0,1.0,82,0.00,,---,0.00,VWS V14.01,2013-11-23 07:29:00,
2013-11-23 02:30:00,35.4,30.5,30.36,North,349,2.0,2.0,82,0.00,,---,0.00,VWS V14.01,2013-11-23 07:30:00,
2013-11-23 02:31:00,35.4,30.5,30.36,NNW,345,0.0,2.0,82,0.00,,---,0.00,VWS V14.01,2013-11-23 07:31:00,
2013-11-23 02:32:00,35.4,30.5,30.35,NNW,345,0.0,0.0,82,0.00,,---,0.00,VWS V14.01,2013-11-23 07:32:00,
2013-11-23 02:33:00,35.3,30.4,30.35,NNW,345,0.0,1.0,82,0.00,,---,0.00,VWS V14.01,2013-11-23 07:33:00,
2013-11-23 02:34:00,35.3,30.4,30.35,North,355,0.0,0.0,82,0.00,,---,0.00,VWS V14.01,2013-11-23 07:34:00,
2013-11-23 02:35:00,35.3,30.4,30.35,North,355,1.0,1.0,82,0.00,,---,0.00,VWS V14.01,2013-11-23 07:35:00,
2013-11-23 02:36:00,35.3,30.4,30.35,NNW,331,1.0,4.0,82,0.00,,---,0.00,VWS V14.01,2013-11-23 07:36:00,
2013-11-23 02:37:00,35.3,30.4,30.35,NNW,337,0.0,2.0,82,0.00,,---,0.00,VWS V14.01,2013-11-23 07:37:00,
2013-11-23 02:38:00,35.2,30.3,30.35,NNW,332,2.0,2.0,82,0.00,,---,0.00,VWS V14.01,2013-11-23 07:38:00,
2013-11-23 02:39:00,35.2,30.3,30.35,North,5,1.0,5.0,82,0.00,,---,0.00,VWS V14.01,2013-11-23 07:39:00,
2013-11-23 02:40:00,35.2,30.3,30.35,North,360,2.0,3.0,82,0.00,,---,0.00,VWS V14.01,2013-11-23 07:40:00,
2013-11-23 02:41:00,35.2,30.3,30.35,NNE,19,2.0,2.0,82,0.00,,---,0.00,VWS V14.01,2013-11-23 07:41:00,
2013-11-23 02:42:00,35.2,30.3,30.35,NNE,24,0.0,5.0,82,0.00,,---,0.00,VWS V14.01,2013-11-23 07:42:00,
2013-11-23 02:43:00,35.2,30.3,30.35,North,360,0.0,1.0,82,0.00,,---,0.00,VWS V14.01,2013-11-23 07:43:00,
2013-11-23 02:44:00,35.2,30.3,30.35,NNE,13,0.0,3.0,82,0.00,,---,0.00,VWS V14.01,2013-11-23 07:44:00,
2013-11-23 02:45:00,35.2,30.3,30.35,NNE,14,0.0,0.0,82,0.00,,---,0.00,VWS V14.01,2013-11-23 07:45:00,
2013-11-23 02:46:00,35.2,30.3,30.35,North,10,2.0,4.0,82,0.00,,---,0.00,VWS V14.01,2013-11-23 07:46:00,
2013-11-23 02:47:00,35.1,30.2,30.35,North,10,2.0,7.0,82,0.00,,---,0.00,VWS V14.01,2013-11-23 07:47:00,
2013-11-23 02:48:00,35.1,30.2,30.35,NNW,327,3.0,3.0,82,0.00,,---,0.00,VWS V14.01,2013-11-23 07:48:00,
2013-11-23 02:49:00,35.1,30.2,30.35,NNW,328,0.0,6.0,82,0.00,,---,0.00,VWS V14.01,2013-11-23 07:49:00,
2013-11-23 02:50:00,35.1,30.2,30.35,NNW,338,1.0,1.0,82,0.00,,---,0.00,VWS V14.01,2013-11-23 07:50:00,
2013-11-23 02:51:00,35.1,30.2,30.35,North,360,2.0,5.0,82,0.00,,---,0.00,VWS V14.01,2013-11-23 07:51:00,
2013-11-23 02:52:00,35.1,30.2,30.35,NNE,22,0.0,4.0,82,0.00,,---,0.00,VWS V14.01,2013-11-23 07:52:00,
2013-11-23 02:53:00,35.1,30.2,30.35,NNE,21,0.0,0.0,82,0.00,,---,0.00,VWS V14.01,2013-11-23 07:53:00,
2013-11-23 02:54:00,35.1,30.2,30.35,North,349,2.0,3.0,82,0.00,,---,0.00,VWS V14.01,2013-11-23 07:54:00,
2013-11-23 02:55:00,35.1,30.2,30.35,North,360,1.0,3.0,82,0.00,,---,0.00,VWS V14.01,2013-11-23 07:55:00,
2013-11-23 02:56:00,35.0,30.1,30.35,North,10,1.0,3.0,82,0.00,,---,0.00,VWS V14.01,2013-11-23 07:56:00,
2013-11-23 02:57:00,35.0,30.1,30.35,North,5,0.0,2.0,82,0.00,,---,0.00,VWS V14.01,2013-11-23 07:57:00,
2013-11-23 02:58:00,35.0,30.1,30.35,North,355,0.0,1.0,82,0.00,,---,0.00,VWS V14.01,2013-11-23 07:58:00,
2013-11-23 02:59:00,35.0,30.1,30.35,North,349,0.0,2.0,82,0.00,,---,0.00,VWS V14.01,2013-11-23 07:59:00,
2013-11-23 03:00:00,35.0,30.1,30.35,North,349,0.0,2.0,82,0.00,,---,0.00,VWS V14.01,2013-11-23 08:00:00,
2013-11-23 03:01:00,34.9,30.0,30.35,NNW,338,0.0,1.0,82,0.00,,---,0.00,VWS V14.01,2013-11-23 08:01:00,
2013-11-23 03:02:00,34.9,30.0,30.35,North,5,0.0,4.0,82,0.00,,---,0.00,VWS V14.01,2013-11-23 08:02:00,
2013-11-23 03:03:00,34.8,29.9,30.35,North,5,0.0,0.0,82,0.00,,---,0.00,VWS V14.01,2013-11-23 08:03:00,
2013-11-23 03:04:00,34.8,29.9,30.35,North,360,0.0,2.0,82,0.00,,---,0.00,VWS V14.01,2013-11-23 08:04:00,
2013-11-23 03:05:00,34.8,29.9,30.35,North,360,0.0,0.0,82,0.00,,---,0.00,VWS V14.01,2013-11-23 08:05:00,
2013-11-23 03:06:00,34.7,29.8,30.35,North,360,0.0,1.0,82,0.00,,---,0.00,VWS V14.01,2013-11-23 08:06:00,
2013-11-23 03:07:00,34.7,29.8,30.35,NNW,333,3.0,3.0,82,0.00,,---,0.00,VWS V14.01,2013-11-23 08:07:00,
2013-11-23 03:08:00,34.6,29.7,30.34,NNW,340,2.0,3.0,82,0.00,,---,0.00,VWS V14.01,2013-11-23 08:08:00,
2013-11-23 03:09:00,34.6,29.7,30.34,NNW,340,0.0,2.0,82,0.00,,---,0.00,VWS V14.01,2013-11-23 08:09:00,
2013-11-23 03:10:00,34.5,29.6,30.34,NNW,348,0.0,0.0,82,0.00,,---,0.00,VWS V14.01,2013-11-23 08:10:00,
2013-11-23 03:11:00,34.5,29.6,30.35,NNW,340,0.0,1.0,82,0.00,,---,0.00,VWS V14.01,2013-11-23 08:11:00,
2013-11-23 03:12:00,34.4,29.5,30.35,NNW,341,0.0,1.0,82,0.00,,---,0.00,VWS V14.01,2013-11-23 08:12:00,
2013-11-23 03:13:00,34.4,29.5,30.35,NNW,342,0.0,0.0,82,0.00,,---,0.00,VWS V14.01,2013-11-23 08:13:00,
2013-11-23 03:14:00,34.3,29.4,30.35,NNW,342,0.0,0.0,82,0.00,,---,0.00,VWS V14.01,2013-11-23 08:14:00,
2013-11-23 03:15:00,34.2,29.3,30.35,NNW,342,0.0,1.0,82,0.00,,---,0.00,VWS V14.01,2013-11-23 08:15:00,
2013-11-23 03:16:00,34.2,29.3,30.35,NNW,342,0.0,0.0,82,0.00,,---,0.00,VWS V14.01,2013-11-23 08:16:00,
2013-11-23 03:17:00,34.1,29.2,30.35,NNW,342,0.0,0.0,82,0.00,,---,0.00,VWS V14.01,2013-11-23 08:17:00,
2013-11-23 03:18:00,34.1,29.5,30.35,NNW,342,0.0,0.0,83,0.00,,---,0.00,VWS V14.01,2013-11-23 08:18:00,
2013-11-23 03:19:00,34.0,29.4,30.35,NNW,344,0.0,1.0,83,0.00,,---,0.00,VWS V14.01,2013-11-23 08:19:00,
2013-11-23 03:20:00,34.0,29.4,30.35,NNW,344,0.0,0.0,83,0.00,,---,0.00,VWS V14.01,2013-11-23 08:20:00,
2013-11-23 03:21:00,33.9,29.3,30.35,NNW,344,0.0,0.0,83,0.00,,---,0.00,VWS V14.01,2013-11-23 08:21:00,
2013-11-23 03:22:00,33.9,29.3,30.35,NNW,341,0.0,0.0,83,0.00,,---,0.00,VWS V14.01,2013-11-23 08:22:00,
2013-11-23 03:23:00,33.8,30.9,30.35,NNW,341,0.0,0.0,89,0.00,,---,0.00,VWS V14.01,2013-11-23 08:23:00,
2013-11-23 03:24:00,33.7,29.1,30.35,NNW,341,0.0,0.0,83,0.00,,---,0.00,VWS V14.01,2013-11-23 08:24:00,
2013-11-23 03:25:00,33.7,29.1,30.35,NNW,341,0.0,1.0,83,0.00,,---,0.00,VWS V14.01,2013-11-23 08:25:00,
2013-11-23 03:26:00,33.6,29.0,30.35,NNW,341,0.0,0.0,83,0.00,,---,0.00,VWS V14.01,2013-11-23 08:26:00,
2013-11-23 03:27:00,33.6,29.0,30.35,NNW,341,0.0,0.0,83,0.00,,---,0.00,VWS V14.01,2013-11-23 08:27:00,
2013-11-23 03:28:00,33.5,28.9,30.35,NNW,341,0.0,0.0,83,0.00,,---,0.00,VWS V14.01,2013-11-23 08:28:00,
2013-11-23 03:29:00,33.5,29.2,30.35,NNW,341,0.0,0.0,84,0.00,,---,0.00,VWS V14.01,2013-11-23 08:29:00,
2013-11-23 03:30:00,33.4,28.8,30.35,NNW,341,0.0,0.0,83,0.00,,---,0.00,VWS V14.01,2013-11-23 08:30:00,
2013-11-23 03:31:00,33.4,29.1,30.35,NNW,341,0.0,0.0,84,0.00,,---,0.00,VWS V14.01,2013-11-23 08:31:00,
2013-11-23 03:32:00,33.4,29.1,30.35,NNW,341,0.0,0.0,84,0.00,,---,0.00,VWS V14.01,2013-11-23 08:32:00,
2013-11-23 03:33:00,33.3,29.0,30.35,NNW,341,0.0,0.0,84,0.00,,---,0.00,VWS V14.01,2013-11-23 08:33:00,
2013-11-23 03:34:00,33.3,29.0,30.35,NNW,341,0.0,0.0,84,0.00,,---,0.00,VWS V14.01,2013-11-23 08:34:00,
2013-11-23 03:35:00,33.2,28.9,30.35,NNW,341,0.0,1.0,84,0.00,,---,0.00,VWS V14.01,2013-11-23 08:35:00,
2013-11-23 03:36:00,33.2,28.9,30.36,NNW,341,0.0,0.0,84,0.00,,---,0.00,VWS V14.01,2013-11-23 08:36:00,
2013-11-23 03:37:00,33.2,28.9,30.35,NNW,342,0.0,3.0,84,0.00,,---,0.00,VWS V14.01,2013-11-23 08:37:00,
2013-11-23 03:38:00,33.1,28.8,30.36,NNW,330,1.0,4.0,84,0.00,,---,0.00,VWS V14.01,2013-11-23 08:38:00,
2013-11-23 03:39:00,33.1,29.1,30.36,NNW,332,0.0,1.0,85,0.00,,---,0.00,VWS V14.01,2013-11-23 08:39:00,
2013-11-23 03:40:00,33.1,29.1,30.36,NNW,332,1.0,3.0,85,0.00,,---,0.00,VWS V14.01,2013-11-23 08:40:00,
2013-11-23 03:41:00,33.1,29.1,30.36,NNW,332,0.0,2.0,85,0.00,,---,0.00,VWS V14.01,2013-11-23 08:41:00,
2013-11-23 03:42:00,33.1,29.1,30.36,NNW,332,0.0,1.0,85,0.00,,---,0.00,VWS V14.01,2013-11-23 08:42:00,
2013-11-23 03:43:00,33.1,29.1,30.36,NNW,332,0.0,2.0,85,0.00,,---,0.00,VWS V14.01,2013-11-23 08:43:00,
2013-11-23 03:44:00,33.1,29.1,30.36,NNW,332,0.0,0.0,85,0.00,,---,0.00,VWS V14.01,2013-11-23 08:44:00,
2013-11-23 03:45:00,33.0,29.0,30.36,NNW,332,0.0,1.0,85,0.00,,---,0.00,VWS V14.01,2013-11-23 08:45:00,
2013-11-23 03:46:00,33.0,29.0,30.36,NNW,332,0.0,0.0,85,0.00,,---,0.00,VWS V14.01,2013-11-23 08:46:00,
2013-11-23 03:47:00,33.0,29.0,30.36,NNW,332,0.0,0.0,85,0.00,,---,0.00,VWS V14.01,2013-11-23 08:47:00,
2013-11-23 03:48:00,33.0,29.0,30.36,NNW,332,0.0,0.0,85,0.00,,---,0.00,VWS V14.01,2013-11-23 08:48:00,
2013-11-23 03:49:00,33.0,29.0,30.35,NNW,332,0.0,0.0,85,0.00,,---,0.00,VWS V14.01,2013-11-23 08:49:00,
2013-11-23 03:50:00,33.0,29.0,30.35,NNW,332,1.0,1.0,85,0.00,,---,0.00,VWS V14.01,2013-11-23 08:50:00,
2013-11-23 03:51:00,33.0,29.0,30.35,NNW,332,0.0,1.0,85,0.00,,---,0.00,VWS V14.01,2013-11-23 08:51:00,
2013-11-23 03:52:00,32.9,28.9,30.35,NNW,332,0.0,0.0,85,0.00,,---,0.00,VWS V14.01,2013-11-23 08:52:00,
2013-11-23 03:53:00,32.9,28.9,30.35,NNW,332,0.0,1.0,85,0.00,,---,0.00,VWS V14.01,2013-11-23 08:53:00,
2013-11-23 03:54:00,32.9,28.9,30.35,NNW,332,0.0,0.0,85,0.00,,---,0.00,VWS V14.01,2013-11-23 08:54:00,
2013-11-23 03:55:00,32.9,28.9,30.35,NNW,332,0.0,0.0,85,0.00,,---,0.00,VWS V14.01,2013-11-23 08:55:00,
2013-11-23 03:56:00,32.8,28.8,30.35,NNW,331,1.0,1.0,85,0.00,,---,0.00,VWS V14.01,2013-11-23 08:56:00,
2013-11-23 03:57:00,32.8,28.8,30.35,NNW,332,0.0,3.0,85,0.00,,---,0.00,VWS V14.01,2013-11-23 08:57:00,
2013-11-23 03:58:00,32.8,28.8,30.35,NNW,332,2.0,2.0,85,0.00,,---,0.00,VWS V14.01,2013-11-23 08:58:00,
2013-11-23 03:59:00,32.8,29.1,30.35,NNW,332,0.0,2.0,86,0.00,,---,0.00,VWS V14.01,2013-11-23 08:59:00,
2013-11-23 04:00:00,32.7,29.0,30.35,NNW,332,0.0,2.0,86,0.00,,---,0.00,VWS V14.01,2013-11-23 09:00:00,
2013-11-23 04:01:00,32.7,29.0,30.35,NNW,332,1.0,1.0,86,0.00,,---,0.00,VWS V14.01,2013-11-23 09:01:00,
2013-11-23 04:02:00,32.7,29.0,30.35,NNW,331,0.0,3.0,86,0.00,,---,0.00,VWS V14.01,2013-11-23 09:02:00,
2013-11-23 04:03:00,32.6,28.9,30.35,NNW,330,0.0,2.0,86,0.00,,---,0.00,VWS V14.01,2013-11-23 09:03:00,
2013-11-23 04:04:00,32.6,28.9,30.35,NNW,330,0.0,0.0,86,0.00,,---,0.00,VWS V14.01,2013-11-23 09:04:00,
2013-11-23 04:05:00,32.6,28.9,30.35,NNW,331,1.0,1.0,86,0.00,,---,0.00,VWS V14.01,2013-11-23 09:05:00,
2013-11-23 04:06:00,32.6,28.9,30.35,NNW,331,0.0,0.0,86,0.00,,---,0.00,VWS V14.01,2013-11-23 09:06:00,
2013-11-23 04:07:00,32.6,28.9,30.35,NNW,331,0.0,0.0,86,0.00,,---,0.00,VWS V14.01,2013-11-23 09:07:00,
2013-11-23 04:08:00,32.5,28.8,30.35,NW,325,1.0,1.0,86,0.00,,---,0.00,VWS V14.01,2013-11-23 09:08:00,
2013-11-23 04:09:00,32.5,28.8,30.35,NW,325,0.0,4.0,86,0.00,,---,0.00,VWS V14.01,2013-11-23 09:09:00,
2013-11-23 04:10:00,32.5,28.5,30.35,NW,325,0.0,2.0,85,0.00,,---,0.00,VWS V14.01,2013-11-23 09:10:00,
2013-11-23 04:11:00,32.5,28.5,30.35,NW,325,0.0,2.0,85,0.00,,---,0.00,VWS V14.01,2013-11-23 09:11:00,
2013-11-23 04:12:00,32.4,28.7,30.35,NW,325,0.0,0.0,86,0.00,,---,0.00,VWS V14.01,2013-11-23 09:12:00,
2013-11-23 04:13:00,32.4,28.7,30.35,NW,325,0.0,0.0,86,0.00,,---,0.00,VWS V14.01,2013-11-23 09:13:00,
2013-11-23 04:14:00,32.4,28.7,30.35,NW,325,0.0,2.0,86,0.00,,---,0.00,VWS V14.01,2013-11-23 09:14:00,
2013-11-23 04:15:00,32.4,28.7,30.35,NW,325,0.0,1.0,86,0.00,,---,0.00,VWS V14.01,2013-11-23 09:15:00,
2013-11-23 04:16:00,32.4,28.7,30.35,NW,325,0.0,0.0,86,0.00,,---,0.00,VWS V14.01,2013-11-23 09:16:00,
2013-11-23 04:17:00,32.3,28.6,30.35,NW,325,0.0,2.0,86,0.00,,---,0.00,VWS V14.01,2013-11-23 09:17:00,
2013-11-23 04:18:00,32.3,28.6,30.35,NW,325,0.0,0.0,86,0.00,,---,0.00,VWS V14.01,2013-11-23 09:18:00,
2013-11-23 04:19:00,32.3,28.6,30.35,NW,325,0.0,0.0,86,0.00,,---,0.00,VWS V14.01,2013-11-23 09:19:00,
2013-11-23 04:20:00,32.3,28.6,30.35,NNW,327,0.0,3.0,86,0.00,,---,0.00,VWS V14.01,2013-11-23 09:20:00,
2013-11-23 04:21:00,32.2,28.5,30.35,NNW,327,0.0,0.0,86,0.00,,---,0.00,VWS V14.01,2013-11-23 09:21:00,
2013-11-23 04:22:00,32.2,28.5,30.35,NNW,327,0.0,0.0,86,0.00,,---,0.00,VWS V14.01,2013-11-23 09:22:00,
2013-11-23 04:23:00,32.2,28.5,30.35,NNW,327,0.0,0.0,86,0.00,,---,0.00,VWS V14.01,2013-11-23 09:23:00,
2013-11-23 04:24:00,32.2,28.5,30.35,North,349,2.0,3.0,86,0.00,,---,0.00,VWS V14.01,2013-11-23 09:24:00,
2013-11-23 04:25:00,32.2,28.5,30.35,NNW,340,5.0,5.0,86,0.00,,---,0.00,VWS V14.01,2013-11-23 09:25:00,
2013-11-23 04:26:00,32.1,28.4,30.36,NW,325,0.0,5.0,86,0.00,,---,0.00,VWS V14.01,2013-11-23 09:26:00,
2013-11-23 04:27:00,32.2,28.5,30.36,NW,325,0.0,0.0,86,0.00,,---,0.00,VWS V14.01,2013-11-23 09:27:00,
2013-11-23 04:28:00,32.1,28.4,30.36,NW,317,0.0,2.0,86,0.00,,---,0.00,VWS V14.01,2013-11-23 09:28:00,
2013-11-23 04:29:00,32.1,28.4,30.36,NW,322,0.0,2.0,86,0.00,,---,0.00,VWS V14.01,2013-11-23 09:29:00,
2013-11-23 04:30:00,32.1,28.4,30.36,NW,322,0.0,0.0,86,0.00,,---,0.00,VWS V14.01,2013-11-23 09:30:00,
2013-11-23 04:31:00,32.1,28.4,30.36,NW,322,0.0,0.0,86,0.00,,---,0.00,VWS V14.01,2013-11-23 09:31:00,
2013-11-23 04:32:00,32.1,28.4,30.36,NW,322,0.0,0.0,86,0.00,,---,0.00,VWS V14.01,2013-11-23 09:32:00,
2013-11-23 04:33:00,32.0,28.3,30.36,NW,322,0.0,0.0,86,0.00,,---,0.00,VWS V14.01,2013-11-23 09:33:00,
2013-11-23 04:34:00,32.1,28.4,30.36,NW,322,0.0,0.0,86,0.00,,---,0.00,VWS V14.01,2013-11-23 09:34:00,
2013-11-23 04:35:00,32.0,28.3,30.36,NW,322,0.0,0.0,86,0.00,,---,0.00,VWS V14.01,2013-11-23 09:35:00,
2013-11-23 04:36:00,32.0,28.3,30.36,NW,322,0.0,0.0,86,0.00,,---,0.00,VWS V14.01,2013-11-23 09:36:00,
2013-11-23 04:37:00,32.0,28.3,30.36,NW,322,0.0,0.0,86,0.00,,---,0.00,VWS V14.01,2013-11-23 09:37:00,
2013-11-23 04:38:00,31.9,28.2,30.36,NW,322,0.0,0.0,86,0.00,,---,0.00,VWS V14.01,2013-11-23 09:38:00,
2013-11-23 04:39:00,31.9,28.5,30.36,NW,322,0.0,1.0,87,0.00,,---,0.00,VWS V14.01,2013-11-23 09:39:00,
2013-11-23 04:40:00,31.9,28.5,30.36,NW,322,0.0,0.0,87,0.00,,---,0.00,VWS V14.01,2013-11-23 09:40:00,
2013-11-23 04:41:00,31.9,28.5,30.36,NW,322,0.0,0.0,87,0.00,,---,0.00,VWS V14.01,2013-11-23 09:41:00,
2013-11-23 04:42:00,31.8,28.4,30.36,NW,322,0.0,0.0,87,0.00,,---,0.00,VWS V14.01,2013-11-23 09:42:00,
2013-11-23 04:43:00,31.8,28.4,30.36,NW,322,0.0,1.0,87,0.00,,---,0.00,VWS V14.01,2013-11-23 09:43:00,
2013-11-23 04:44:00,31.8,28.4,30.36,NW,322,0.0,1.0,87,0.00,,---,0.00,VWS V14.01,2013-11-23 09:44:00,
2013-11-23 04:45:00,31.8,28.4,30.36,NW,322,0.0,0.0,87,0.00,,---,0.00,VWS V14.01,2013-11-23 09:45:00,
2013-11-23 04:46:00,31.7,28.3,30.36,NNW,330,3.0,4.0,87,0.00,,---,0.00,VWS V14.01,2013-11-23 09:46:00,
2013-11-23 04:47:00,31.7,28.3,30.36,NNW,338,2.0,4.0,87,0.00,,---,0.00,VWS V14.01,2013-11-23 09:47:00,
2013-11-23 04:48:00,31.7,28.3,30.36,NNW,338,0.0,2.0,87,0.00,,---,0.00,VWS V14.01,2013-11-23 09:48:00,
2013-11-23 04:49:00,31.7,28.3,30.36,North,355,0.0,1.0,87,0.00,,---,0.00,VWS V14.01,2013-11-23 09:49:00,
2013-11-23 04:50:00,31.7,28.3,30.36,North,355,0.0,0.0,87,0.00,,---,0.00,VWS V14.01,2013-11-23 09:50:00,
2013-11-23 04:51:00,31.7,28.3,30.36,NNW,343,0.0,1.0,87,0.00,,---,0.00,VWS V14.01,2013-11-23 09:51:00,
2013-11-23 04:52:00,31.7,28.6,30.36,NNW,343,0.0,1.0,88,0.00,,---,0.00,VWS V14.01,2013-11-23 09:52:00,
2013-11-23 04:53:00,31.7,28.6,30.36,NNW,336,2.0,3.0,88,0.00,,---,0.00,VWS V14.01,2013-11-23 09:53:00,
2013-11-23 04:54:00,31.7,28.6,30.36,NNW,336,0.0,2.0,88,0.00,,---,0.00,VWS V14.01,2013-11-23 09:54:00,
2013-11-23 04:55:00,31.7,28.6,30.36,North,355,2.0,2.0,88,0.00,,---,0.00,VWS V14.01,2013-11-23 09:55:00,
2013-11-23 04:56:00,31.7,28.6,30.36,NNW,333,0.0,4.0,88,0.00,,---,0.00,VWS V14.01,2013-11-23 09:56:00,
2013-11-23 04:57:00,31.7,28.6,30.36,NNW,333,0.0,0.0,88,0.00,,---,0.00,VWS V14.01,2013-11-23 09:57:00,
2013-11-23 04:58:00,31.7,28.6,30.36,NNW,340,0.0,3.0,88,0.00,,---,0.00,VWS V14.01,2013-11-23 09:58:00,
2013-11-23 04:59:00,31.7,28.6,30.37,North,355,0.0,4.0,88,0.00,,---,0.00,VWS V14.01,2013-11-23 09:59:00,
2013-11-23 05:00:00,31.7,28.6,30.37,North,355,0.0,0.0,88,0.00,,---,0.00,VWS V14.01,2013-11-23 10:00:00,
2013-11-23 05:01:00,31.6,28.5,30.37,North,355,1.0,1.0,88,0.00,,---,0.00,VWS V14.01,2013-11-23 10:01:00,
2013-11-23 05:02:00,31.7,28.6,30.37,North,355,0.0,2.0,88,0.00,,---,0.00,VWS V14.01,2013-11-23 10:02:00,
2013-11-23 05:03:00,31.7,28.6,30.37,North,355,0.0,2.0,88,0.00,,---,0.00,VWS V14.01,2013-11-23 10:03:00,
2013-11-23 05:04:00,31.7,28.6,30.37,North,355,0.0,0.0,88,0.00,,---,0.00,VWS V14.01,2013-11-23 10:04:00,
2013-11-23 05:05:00,31.6,28.5,30.37,North,355,0.0,0.0,88,0.00,,---,0.00,VWS V14.01,2013-11-23 10:05:00,
2013-11-23 05:06:00,31.6,28.5,30.37,North,355,0.0,0.0,88,0.00,,---,0.00,VWS V14.01,2013-11-23 10:06:00,
2013-11-23 05:07:00,31.6,28.5,30.37,North,355,0.0,2.0,88,0.00,,---,0.00,VWS V14.01,2013-11-23 10:07:00,
2013-11-23 05:08:00,31.6,28.5,30.37,North,355,0.0,1.0,88,0.00,,---,0.00,VWS V14.01,2013-11-23 10:08:00,
2013-11-23 05:09:00,31.6,28.5,30.37,North,355,0.0,1.0,88,0.00,,---,0.00,VWS V14.01,2013-11-23 10:09:00,
2013-11-23 05:10:00,31.6,28.5,30.37,North,355,0.0,0.0,88,0.00,,---,0.00,VWS V14.01,2013-11-23 10:10:00,
2013-11-23 05:11:00,31.5,28.4,30.37,North,355,0.0,0.0,88,0.00,,---,0.00,VWS V14.01,2013-11-23 10:11:00,
2013-11-23 05:12:00,31.5,28.4,30.37,North,355,0.0,1.0,88,0.00,,---,0.00,VWS V14.01,2013-11-23 10:12:00,
2013-11-23 05:13:00,31.5,28.4,30.37,North,351,0.0,3.0,88,0.00,,---,0.00,VWS V14.01,2013-11-23 10:13:00,
2013-11-23 05:14:00,31.5,28.6,30.36,North,351,2.0,2.0,89,0.00,,---,0.00,VWS V14.01,2013-11-23 10:14:00,
2013-11-23 05:15:00,31.4,28.5,30.36,North,351,2.0,2.0,89,0.00,,---,0.00,VWS V14.01,2013-11-23 10:15:00,
2013-11-23 05:16:00,31.4,28.5,30.36,North,351,0.0,2.0,89,0.00,,---,0.00,VWS V14.01,2013-11-23 10:16:00,
2013-11-23 05:17:00,31.4,28.5,30.36,NNW,347,0.0,3.0,89,0.00,,---,0.00,VWS V14.01,2013-11-23 10:17:00,
2013-11-23 05:18:00,31.4,28.5,30.37,NNW,347,1.0,2.0,89,0.00,,---,0.00,VWS V14.01,2013-11-23 10:18:00,
2013-11-23 05:19:00,31.4,28.5,30.37,NNW,347,0.0,1.0,89,0.00,,---,0.00,VWS V14.01,2013-11-23 10:19:00,
2013-11-23 05:20:00,31.4,28.5,30.36,NNW,347,0.0,0.0,89,0.00,,---,0.00,VWS V14.01,2013-11-23 10:20:00,
2013-11-23 05:21:00,31.4,28.5,30.36,NNW,346,0.0,4.0,89,0.00,,---,0.00,VWS V14.01,2013-11-23 10:21:00,
2013-11-23 05:22:00,31.3,28.4,30.37,NNW,346,0.0,0.0,89,0.00,,---,0.00,VWS V14.01,2013-11-23 10:22:00,
2013-11-23 05:23:00,31.4,28.5,30.37,North,351,1.0,4.0,89,0.00,,---,0.00,VWS V14.01,2013-11-23 10:23:00,
2013-11-23 05:24:00,31.3,28.4,30.36,North,355,0.0,1.0,89,0.00,,---,0.00,VWS V14.01,2013-11-23 10:24:00,
2013-11-23 05:25:00,31.3,28.4,30.36,North,350,0.0,2.0,89,0.00,,---,0.00,VWS V14.01,2013-11-23 10:25:00,
2013-11-23 05:26:00,31.3,28.7,30.36,North,350,0.0,0.0,90,0.00,,---,0.00,VWS V14.01,2013-11-23 10:26:00,
2013-11-23 05:27:00,31.3,28.7,30.36,North,350,0.0,0.0,90,0.00,,---,0.00,VWS V14.01,2013-11-23 10:27:00,
2013-11-23 05:28:00,31.3,28.7,30.37,North,350,0.0,0.0,90,0.00,,---,0.00,VWS V14.01,2013-11-23 10:28:00,
2013-11-23 05:29:00,31.3,28.7,30.37,North,350,0.0,0.0,90,0.00,,---,0.00,VWS V14.01,2013-11-23 10:29:00,
2013-11-23 05:30:00,31.3,28.7,30.36,North,350,0.0,0.0,90,0.00,,---,0.00,VWS V14.01,2013-11-23 10:30:00,
2013-11-23 05:31:00,31.3,28.4,30.36,North,350,0.0,0.0,89,0.00,,---,0.00,VWS V14.01,2013-11-23 10:31:00,
2013-11-23 05:32:00,31.2,28.3,30.37,North,350,0.0,0.0,89,0.00,,---,0.00,VWS V14.01,2013-11-23 10:32:00,
2013-11-23 05:33:00,31.2,28.6,30.37,North,351,0.0,1.0,90,0.00,,---,0.00,VWS V14.01,2013-11-23 10:33:00,
2013-11-23 05:34:00,31.2,28.6,30.37,North,351,0.0,0.0,90,0.00,,---,0.00,VWS V14.01,2013-11-23 10:34:00,
2013-11-23 05:35:00,31.2,28.6,30.37,NW,323,0.0,1.0,90,0.00,,---,0.00,VWS V14.01,2013-11-23 10:35:00,
2013-11-23 05:36:00,31.2,28.6,30.37,NW,323,0.0,2.0,90,0.00,,---,0.00,VWS V14.01,2013-11-23 10:36:00,
2013-11-23 05:37:00,31.2,28.6,30.37,NW,323,0.0,0.0,90,0.00,,---,0.00,VWS V14.01,2013-11-23 10:37:00,
2013-11-23 05:38:00,31.2,28.6,30.37,NW,323,0.0,0.0,90,0.00,,---,0.00,VWS V14.01,2013-11-23 10:38:00,
2013-11-23 05:39:00,31.2,28.6,30.37,NW,323,2.0,2.0,90,0.00,,---,0.00,VWS V14.01,2013-11-23 10:39:00,
2013-11-23 05:40:00,31.2,28.6,30.37,NNW,329,0.0,2.0,90,0.00,,---,0.00,VWS V14.01,2013-11-23 10:40:00,
2013-11-23 05:41:00,31.2,28.6,30.37,NNW,329,0.0,0.0,90,0.00,,---,0.00,VWS V14.01,2013-11-23 10:41:00,
2013-11-23 05:42:00,31.2,28.6,30.36,NNW,329,1.0,2.0,90,0.00,,---,0.00,VWS V14.01,2013-11-23 10:42:00,
2013-11-23 05:43:00,31.2,28.6,30.37,NNW,329,0.0,1.0,90,0.00,,---,0.00,VWS V14.01,2013-11-23 10:43:00,
2013-11-23 05:44:00,31.2,28.6,30.37,NNW,329,0.0,0.0,90,0.00,,---,0.00,VWS V14.01,2013-11-23 10:44:00,
2013-11-23 05:45:00,31.2,28.6,30.37,NNW,329,0.0,0.0,90,0.00,,---,0.00,VWS V14.01,2013-11-23 10:45:00,
2013-11-23 05:46:00,31.2,28.6,30.37,NNW,329,0.0,0.0,90,0.00,,---,0.00,VWS V14.01,2013-11-23 10:46:00,
2013-11-23 05:47:00,31.2,28.6,30.36,NNW,329,0.0,0.0,90,0.00,,---,0.00,VWS V14.01,2013-11-23 10:47:00,
2013-11-23 05:48:00,31.1,28.5,30.36,NNW,341,0.0,2.0,90,0.00,,---,0.00,VWS V14.01,2013-11-23 10:48:00,
2013-11-23 05:49:00,31.1,28.8,30.37,NNW,340,0.0,3.0,91,0.00,,---,0.00,VWS V14.01,2013-11-23 10:49:00,
2013-11-23 05:50:00,31.1,28.8,30.37,NNW,340,1.0,1.0,91,0.00,,---,0.00,VWS V14.01,2013-11-23 10:50:00,
2013-11-23 05:51:00,31.1,28.8,30.37,NNW,340,0.0,1.0,91,0.00,,---,0.00,VWS V14.01,2013-11-23 10:51:00,
2013-11-23 05:52:00,31.1,28.8,30.37,NNW,333,0.0,2.0,91,0.00,,---,0.00,VWS V14.01,2013-11-23 10:52:00,
2013-11-23 05:53:00,31.1,28.8,30.37,NNW,333,0.0,0.0,91,0.00,,---,0.00,VWS V14.01,2013-11-23 10:53:00,
2013-11-23 05:54:00,31.1,28.8,30.37,NNW,333,0.0,2.0,91,0.00,,---,0.00,VWS V14.01,2013-11-23 10:54:00,
2013-11-23 05:55:00,31.1,28.8,30.37,NNW,333,0.0,0.0,91,0.00,,---,0.00,VWS V14.01,2013-11-23 10:55:00,
2013-11-23 05:56:00,31.1,28.8,30.37,NNW,333,0.0,0.0,91,0.00,,---,0.00,VWS V14.01,2013-11-23 10:56:00,
2013-11-23 05:57:00,31.0,28.7,30.37,NNW,339,3.0,4.0,91,0.00,,---,0.00,VWS V14.01,2013-11-23 10:57:00,
2013-11-23 05:58:00,31.0,28.7,30.36,NNW,339,0.0,3.0,91,0.00,,---,0.00,VWS V14.01,2013-11-23 10:58:00,
2013-11-23 05:59:00,31.0,28.7,30.36,NNW,339,0.0,0.0,91,0.00,,---,0.00,VWS V14.01,2013-11-23 10:59:00,
2013-11-23 06:00:00,31.0,28.7,30.36,NNW,339,1.0,1.0,91,0.00,,---,0.00,VWS V14.01,2013-11-23 11:00:00,
2013-11-23 06:01:00,31.0,28.7,30.36,NNW,336,0.0,3.0,91,0.00,,---,0.00,VWS V14.01,2013-11-23 11:01:00,
2013-11-23 06:02:00,31.0,28.7,30.36,NNW,336,0.0,0.0,91,0.00,,---,0.00,VWS V14.01,2013-11-23 11:02:00,
2013-11-23 06:03:00,31.0,28.7,30.36,NNW,336,0.0,0.0,91,0.00,,---,0.00,VWS V14.01,2013-11-23 11:03:00,
2013-11-23 06:04:00,31.0,28.7,30.36,NNW,336,0.0,0.0,91,0.00,,---,0.00,VWS V14.01,2013-11-23 11:04:00,
2013-11-23 06:05:00,31.0,28.7,30.36,NNW,335,0.0,2.0,91,0.00,,---,0.00,VWS V14.01,2013-11-23 11:05:00,
2013-11-23 06:06:00,30.9,28.6,30.36,NNW,339,0.0,3.0,91,0.00,,---,0.00,VWS V14.01,2013-11-23 11:06:00,
2013-11-23 06:07:00,30.9,28.6,30.36,NNW,339,0.0,0.0,91,0.00,,---,0.00,VWS V14.01,2013-11-23 11:07:00,
2013-11-23 06:08:00,30.9,28.6,30.36,NNW,339,0.0,0.0,91,0.00,,---,0.00,VWS V14.01,2013-11-23 11:08:00,
2013-11-23 06:09:00,30.9,28.6,30.36,NNW,339,0.0,0.0,91,0.00,,---,0.00,VWS V14.01,2013-11-23 11:09:00,
2013-11-23 06:10:00,30.8,28.5,30.37,NNW,337,0.0,1.0,91,0.00,,---,0.00,VWS V14.01,2013-11-23 11:10:00,
2013-11-23 06:11:00,30.8,28.5,30.37,NNW,337,0.0,0.0,91,0.00,,---,0.00,VWS V14.01,2013-11-23 11:11:00,
2013-11-23 06:12:00,30.8,28.5,30.37,NNW,337,0.0,0.0,91,0.00,,---,0.00,VWS V14.01,2013-11-23 11:12:00,
2013-11-23 06:13:00,30.8,28.5,30.37,NW,315,0.0,2.0,91,0.00,,---,0.00,VWS V14.01,2013-11-23 11:13:00,
2013-11-23 06:14:00,30.8,28.8,30.37,NW,315,0.0,0.0,92,0.00,,---,0.00,VWS V14.01,2013-11-23 11:14:00,
2013-11-23 06:15:00,30.7,28.7,30.37,NW,315,0.0,0.0,92,0.00,,---,0.00,VWS V14.01,2013-11-23 11:15:00,
2013-11-23 06:16:00,30.7,28.7,30.37,NNW,329,0.0,2.0,92,0.00,,---,0.00,VWS V14.01,2013-11-23 11:16:00,
2013-11-23 06:17:00,30.7,28.7,30.37,NNW,329,0.0,0.0,92,0.00,,---,0.00,VWS V14.01,2013-11-23 11:17:00,
2013-11-23 06:18:00,30.7,28.7,30.37,NNW,336,0.0,0.0,92,0.00,,---,0.00,VWS V14.01,2013-11-23 11:18:00,
2013-11-23 06:19:00,30.7,28.7,30.37,NNW,337,0.0,1.0,92,0.00,,---,0.00,VWS V14.01,2013-11-23 11:19:00,
2013-11-23 06:20:00,30.6,28.6,30.37,NNW,336,0.0,2.0,92,0.00,,---,0.00,VWS V14.01,2013-11-23 11:20:00,
2013-11-23 06:21:00,30.6,28.6,30.37,NNW,336,0.0,0.0,92,0.00,,---,0.00,VWS V14.01,2013-11-23 11:21:00,
2013-11-23 06:22:00,30.6,28.6,30.37,NNW,336,1.0,1.0,92,0.00,,---,0.00,VWS V14.01,2013-11-23 11:22:00,
2013-11-23 06:23:00,30.6,28.6,30.38,NNW,336,0.0,3.0,92,0.00,,---,0.00,VWS V14.01,2013-11-23 11:23:00,
2013-11-23 06:24:00,30.6,28.6,30.38,NNW,336,0.0,3.0,92,0.00,,---,0.00,VWS V14.01,2013-11-23 11:24:00,
2013-11-23 06:25:00,30.6,28.6,30.38,NNW,336,0.0,2.0,92,0.00,,---,0.00,VWS V14.01,2013-11-23 11:25:00,
2013-11-23 06:26:00,30.6,28.6,30.38,NNW,336,0.0,1.0,92,0.00,,---,0.00,VWS V14.01,2013-11-23 11:26:00,
2013-11-23 06:27:00,30.6,28.6,30.38,NNW,336,0.0,0.0,92,0.00,,---,0.00,VWS V14.01,2013-11-23 11:27:00,
2013-11-23 06:28:00,30.6,28.6,30.38,NNW,336,0.0,0.0,92,0.00,,---,0.00,VWS V14.01,2013-11-23 11:28:00,
2013-11-23 06:29:00,30.6,28.6,30.38,NNW,336,0.0,0.0,92,0.00,,---,0.00,VWS V14.01,2013-11-23 11:29:00,
2013-11-23 06:30:00,30.6,28.6,30.38,NNW,336,0.0,0.0,92,0.00,,---,0.00,VWS V14.01,2013-11-23 11:30:00,
2013-11-23 06:31:00,30.5,28.5,30.38,NNW,336,0.0,0.0,92,0.00,,---,0.00,VWS V14.01,2013-11-23 11:31:00,
2013-11-23 06:32:00,30.5,28.5,30.38,NNW,336,0.0,0.0,92,0.00,,---,0.00,VWS V14.01,2013-11-23 11:32:00,
2013-11-23 06:33:00,30.5,28.5,30.38,NNW,336,0.0,0.0,92,0.00,,---,0.00,VWS V14.01,2013-11-23 11:33:00,
2013-11-23 06:34:00,30.4,28.4,30.38,NNW,336,0.0,0.0,92,0.00,,---,0.00,VWS V14.01,2013-11-23 11:34:00,
2013-11-23 06:35:00,30.4,28.4,30.38,NNW,336,0.0,0.0,92,0.00,,---,0.00,VWS V14.01,2013-11-23 11:35:00,
2013-11-23 06:36:00,30.4,28.4,30.38,NNW,336,0.0,0.0,92,0.00,,---,0.00,VWS V14.01,2013-11-23 11:36:00,
2013-11-23 06:37:00,30.4,28.4,30.38,NNW,336,0.0,0.0,92,0.00,,---,0.00,VWS V14.01,2013-11-23 11:37:00,
2013-11-23 06:38:00,30.3,28.3,30.39,NNW,336,0.0,0.0,92,0.00,,---,0.00,VWS V14.01,2013-11-23 11:38:00,
2013-11-23 06:39:00,30.3,28.3,30.39,NNW,336,0.0,0.0,92,0.00,,---,0.00,VWS V14.01,2013-11-23 11:39:00,
2013-11-23 06:40:00,30.3,28.3,30.39,NNW,336,0.0,0.0,92,0.00,,---,0.00,VWS V14.01,2013-11-23 11:40:00,
2013-11-23 06:41:00,30.3,28.3,30.39,NNW,336,0.0,0.0,92,0.00,,---,0.00,VWS V14.01,2013-11-23 11:41:00,
2013-11-23 06:42:00,30.3,28.3,30.39,NNW,336,0.0,0.0,92,0.00,,---,0.00,VWS V14.01,2013-11-23 11:42:00,
2013-11-23 06:43:00,30.3,28.3,30.39,NNW,336,0.0,0.0,92,0.00,,---,0.00,VWS V14.01,2013-11-23 11:43:00,
2013-11-23 06:44:00,30.3,28.3,30.39,NNW,336,0.0,0.0,92,0.00,,---,0.00,VWS V14.01,2013-11-23 11:44:00,
2013-11-23 06:45:00,30.2,28.2,30.39,NNW,336,0.0,0.0,92,0.00,,---,0.00,VWS V14.01,2013-11-23 11:45:00,
2013-11-23 06:46:00,30.2,28.2,30.39,NNW,336,0.0,0.0,92,0.00,,---,0.00,VWS V14.01,2013-11-23 11:46:00,
2013-11-23 06:47:00,30.2,28.4,30.39,NNW,336,0.0,0.0,93,0.00,,---,0.00,VWS V14.01,2013-11-23 11:47:00,
2013-11-23 06:48:00,30.2,28.4,30.39,NNW,336,0.0,0.0,93,0.00,,---,0.00,VWS V14.01,2013-11-23 11:48:00,
2013-11-23 06:49:00,30.2,28.4,30.38,NNW,336,0.0,0.0,93,0.00,,---,0.00,VWS V14.01,2013-11-23 11:49:00,
2013-11-23 06:50:00,30.1,28.3,30.38,NNW,336,0.0,0.0,93,0.00,,---,0.00,VWS V14.01,2013-11-23 11:50:00,
2013-11-23 06:51:00,30.1,28.3,30.38,NNW,336,0.0,0.0,93,0.00,,---,0.00,VWS V14.01,2013-11-23 11:51:00,
2013-11-23 06:52:00,30.1,28.3,30.38,NNW,336,0.0,0.0,93,0.00,,---,0.00,VWS V14.01,2013-11-23 11:52:00,
2013-11-23 06:53:00,30.1,28.3,30.38,NNW,336,0.0,0.0,93,0.00,,---,0.00,VWS V14.01,2013-11-23 11:53:00,
2013-11-23 06:54:00,30.1,28.3,30.38,NNW,336,0.0,0.0,93,0.00,,---,0.00,VWS V14.01,2013-11-23 11:54:00,
2013-11-23 06:55:00,30.1,28.3,30.38,NNW,336,0.0,0.0,93,0.00,,---,0.00,VWS V14.01,2013-11-23 11:55:00,
2013-11-23 06:56:00,30.1,28.3,30.38,NNW,336,0.0,0.0,93,0.00,,---,0.00,VWS V14.01,2013-11-23 11:56:00,
2013-11-23 06:57:00,30.1,28.3,30.38,NNW,336,0.0,0.0,93,0.00,,---,0.00,VWS V14.01,2013-11-23 11:57:00,
2013-11-23 06:58:00,30.0,28.2,30.38,NNW,336,0.0,0.0,93,0.00,,---,0.00,VWS V14.01,2013-11-23 11:58:00,
2013-11-23 06:59:00,30.1,28.3,30.38,NNW,336,0.0,0.0,93,0.00,,---,0.00,VWS V14.01,2013-11-23 11:59:00,
2013-11-23 07:00:00,30.0,28.2,30.38,NNW,336,0.0,0.0,93,0.00,,---,0.00,VWS V14.01,2013-11-23 12:00:00,
2013-11-23 07:01:00,30.0,28.2,30.38,NNW,336,0.0,0.0,93,0.00,,---,0.00,VWS V14.01,2013-11-23 12:01:00,
2013-11-23 07:02:00,30.0,28.2,30.38,NNW,336,0.0,0.0,93,0.00,,---,0.00,VWS V14.01,2013-11-23 12:02:00,
2013-11-23 07:03:00,30.0,28.2,30.39,NNW,336,0.0,0.0,93,0.00,,---,0.00,VWS V14.01,2013-11-23 12:03:00,
2013-11-23 07:04:00,30.0,28.2,30.39,NNW,336,0.0,0.0,93,0.00,,---,0.00,VWS V14.01,2013-11-23 12:04:00,
2013-11-23 07:05:00,29.9,28.1,30.39,NNW,336,0.0,0.0,93,0.00,,---,0.00,VWS V14.01,2013-11-23 12:05:00,
2013-11-23 07:06:00,29.9,28.1,30.39,NNW,336,0.0,0.0,93,0.00,,---,0.00,VWS V14.01,2013-11-23 12:06:00,
2013-11-23 07:07:00,29.9,28.1,30.39,NNW,336,0.0,0.0,93,0.00,,---,0.00,VWS V14.01,2013-11-23 12:07:00,
2013-11-23 07:08:00,29.9,28.1,30.39,NNW,336,0.0,0.0,93,0.00,,---,0.00,VWS V14.01,2013-11-23 12:08:00,
2013-11-23 07:09:00,29.9,28.1,30.39,NNW,336,0.0,0.0,93,0.00,,---,0.00,VWS V14.01,2013-11-23 12:09:00,
2013-11-23 07:10:00,29.8,28.0,30.39,NNW,336,0.0,0.0,93,0.00,,---,0.00,VWS V14.01,2013-11-23 12:10:00,
2013-11-23 07:11:00,29.8,28.0,30.39,NNW,336,0.0,0.0,93,0.00,,---,0.00,VWS V14.01,2013-11-23 12:11:00,
2013-11-23 07:12:00,29.8,28.0,30.39,NNW,336,0.0,0.0,93,0.00,,---,0.00,VWS V14.01,2013-11-23 12:12:00,
2013-11-23 07:13:00,29.8,28.0,30.39,NNW,336,0.0,0.0,93,0.00,,---,0.00,VWS V14.01,2013-11-23 12:13:00,
2013-11-23 07:14:00,29.8,28.0,30.38,NNW,336,0.0,0.0,93,0.00,,---,0.00,VWS V14.01,2013-11-23 12:14:00,
2013-11-23 07:15:00,29.8,28.0,30.38,NNW,336,0.0,0.0,93,0.00,,---,0.00,VWS V14.01,2013-11-23 12:15:00,
2013-11-23 07:16:00,29.7,27.9,30.38,NNW,336,0.0,0.0,93,0.00,,---,0.00,VWS V14.01,2013-11-23 12:16:00,
2013-11-23 07:17:00,29.7,27.9,30.38,NNW,336,0.0,0.0,93,0.00,,---,0.00,VWS V14.01,2013-11-23 12:17:00,
2013-11-23 07:18:00,29.7,27.9,30.38,NNW,336,0.0,0.0,93,0.00,,---,0.00,VWS V14.01,2013-11-23 12:18:00,
2013-11-23 07:19:00,29.7,27.9,30.38,NNW,336,0.0,0.0,93,0.00,,---,0.00,VWS V14.01,2013-11-23 12:19:00,
2013-11-23 07:20:00,29.7,27.9,30.38,NNW,336,0.0,0.0,93,0.00,,---,0.00,VWS V14.01,2013-11-23 12:20:00,
2013-11-23 07:21:00,29.7,27.9,30.38,NNW,336,0.0,0.0,93,0.00,,---,0.00,VWS V14.01,2013-11-23 12:21:00,
2013-11-23 07:22:00,29.7,27.9,30.38,NNW,336,0.0,0.0,93,0.00,,---,0.00,VWS V14.01,2013-11-23 12:22:00,
2013-11-23 07:23:00,29.7,27.9,30.38,NNW,336,0.0,0.0,93,0.00,,---,0.00,VWS V14.01,2013-11-23 12:23:00,
2013-11-23 07:24:00,29.7,27.9,30.38,NNW,336,0.0,1.0,93,0.00,,---,0.00,VWS V14.01,2013-11-23 12:24:00,
2013-11-23 07:25:00,29.7,27.9,30.38,NNW,336,0.0,0.0,93,0.00,,---,0.00,VWS V14.01,2013-11-23 12:25:00,
2013-11-23 07:26:00,29.7,27.9,30.38,NNW,336,0.0,0.0,93,0.00,,---,0.00,VWS V14.01,2013-11-23 12:26:00,
2013-11-23 07:27:00,29.7,27.9,30.38,NNW,336,0.0,0.0,93,0.00,,---,0.00,VWS V14.01,2013-11-23 12:27:00,
2013-11-23 07:28:00,29.7,27.9,30.38,NNW,336,0.0,0.0,93,0.00,,---,0.00,VWS V14.01,2013-11-23 12:28:00,
2013-11-23 07:29:00,29.7,28.2,30.38,NNW,336,0.0,0.0,94,0.00,,---,0.00,VWS V14.01,2013-11-23 12:29:00,
2013-11-23 07:30:00,29.7,28.2,30.38,NNW,336,0.0,0.0,94,0.00,,---,0.00,VWS V14.01,2013-11-23 12:30:00,
2013-11-23 07:31:00,29.7,28.2,30.38,NNW,336,0.0,0.0,94,0.00,,---,0.00,VWS V14.01,2013-11-23 12:31:00,
2013-11-23 07:32:00,29.7,28.2,30.38,NNW,336,0.0,0.0,94,0.00,,---,0.00,VWS V14.01,2013-11-23 12:32:00,
2013-11-23 07:33:00,29.7,28.2,30.38,NNW,336,0.0,0.0,94,0.00,,---,0.00,VWS V14.01,2013-11-23 12:33:00,
2013-11-23 07:34:00,29.7,28.2,30.38,NNW,336,0.0,0.0,94,0.00,,---,0.00,VWS V14.01,2013-11-23 12:34:00,
2013-11-23 07:35:00,29.7,28.2,30.38,NNW,336,0.0,0.0,94,0.00,,---,0.00,VWS V14.01,2013-11-23 12:35:00,
2013-11-23 07:36:00,29.7,28.2,30.38,NNW,336,0.0,0.0,94,0.00,,---,0.00,VWS V14.01,2013-11-23 12:36:00,
2013-11-23 07:37:00,29.7,28.2,30.38,NNW,336,0.0,0.0,94,0.00,,---,0.00,VWS V14.01,2013-11-23 12:37:00,
2013-11-23 07:38:00,29.7,28.2,30.38,NNW,336,0.0,0.0,94,0.00,,---,0.00,VWS V14.01,2013-11-23 12:38:00,
2013-11-23 07:39:00,29.7,28.2,30.38,NNW,336,0.0,0.0,94,0.00,,---,0.00,VWS V14.01,2013-11-23 12:39:00,
2013-11-23 07:40:00,29.7,28.2,30.38,NNW,336,0.0,0.0,94,0.00,,---,0.00,VWS V14.01,2013-11-23 12:40:00,
2013-11-23 07:41:00,29.7,28.2,30.39,NNW,336,0.0,0.0,94,0.00,,---,0.00,VWS V14.01,2013-11-23 12:41:00,
2013-11-23 07:42:00,29.7,28.2,30.39,NNW,336,0.0,0.0,94,0.00,,---,0.00,VWS V14.01,2013-11-23 12:42:00,
2013-11-23 07:43:00,29.7,28.2,30.39,NNW,336,0.0,0.0,94,0.00,,---,0.00,VWS V14.01,2013-11-23 12:43:00,
2013-11-23 07:44:00,29.7,28.2,30.39,NNW,336,0.0,0.0,94,0.00,,---,0.00,VWS V14.01,2013-11-23 12:44:00,
2013-11-23 07:45:00,29.7,28.2,30.39,NNW,336,0.0,0.0,94,0.00,,---,0.00,VWS V14.01,2013-11-23 12:45:00,
2013-11-23 07:46:00,29.7,28.2,30.39,NNW,336,0.0,0.0,94,0.00,,---,0.00,VWS V14.01,2013-11-23 12:46:00,
2013-11-23 07:47:00,29.7,28.2,30.39,NNW,336,0.0,0.0,94,0.00,,---,0.00,VWS V14.01,2013-11-23 12:47:00,
2013-11-23 07:48:00,29.7,28.2,30.39,NNW,336,0.0,0.0,94,0.00,,---,0.00,VWS V14.01,2013-11-23 12:48:00,
2013-11-23 07:49:00,29.9,28.4,30.39,NNW,336,0.0,0.0,94,0.00,,---,0.00,VWS V14.01,2013-11-23 12:49:00,
2013-11-23 07:50:00,29.9,28.4,30.39,NNW,336,0.0,0.0,94,0.00,,---,0.00,VWS V14.01,2013-11-23 12:50:00,
2013-11-23 07:51:00,29.9,28.4,30.39,NNW,336,0.0,0.0,94,0.00,,---,0.00,VWS V14.01,2013-11-23 12:51:00,
2013-11-23 07:52:00,29.9,28.4,30.39,NNW,336,0.0,0.0,94,0.00,,---,0.00,VWS V14.01,2013-11-23 12:52:00,
2013-11-23 07:53:00,30.0,28.5,30.39,NNW,336,0.0,0.0,94,0.00,,---,0.00,VWS V14.01,2013-11-23 12:53:00,
2013-11-23 07:54:00,30.0,28.5,30.39,NNW,336,0.0,0.0,94,0.00,,---,0.00,VWS V14.01,2013-11-23 12:54:00,
2013-11-23 07:55:00,30.0,28.5,30.39,NNW,336,0.0,0.0,94,0.00,,---,0.00,VWS V14.01,2013-11-23 12:55:00,
2013-11-23 07:56:00,30.0,28.5,30.39,NNW,336,0.0,0.0,94,0.00,,---,0.00,VWS V14.01,2013-11-23 12:56:00,
2013-11-23 07:57:00,30.1,28.6,30.39,NNW,336,0.0,0.0,94,0.00,,---,0.00,VWS V14.01,2013-11-23 12:57:00,
2013-11-23 07:58:00,30.1,28.6,30.39,NNW,336,0.0,0.0,94,0.00,,---,0.00,VWS V14.01,2013-11-23 12:58:00,
2013-11-23 07:59:00,30.1,28.6,30.39,NNW,336,0.0,0.0,94,0.00,,---,0.00,VWS V14.01,2013-11-23 12:59:00,
2013-11-23 08:00:00,30.1,28.6,30.39,NNW,336,0.0,0.0,94,0.00,,---,0.00,VWS V14.01,2013-11-23 13:00:00,
2013-11-23 08:01:00,30.1,28.6,30.39,NNW,336,0.0,0.0,94,0.00,,---,0.00,VWS V14.01,2013-11-23 13:01:00,
2013-11-23 08:02:00,30.1,28.6,30.39,NNW,336,0.0,0.0,94,0.00,,---,0.00,VWS V14.01,2013-11-23 13:02:00,
2013-11-23 08:03:00,30.1,28.6,30.39,NNW,336,1.0,1.0,94,0.00,,---,0.00,VWS V14.01,2013-11-23 13:03:00,
2013-11-23 08:04:00,30.1,28.6,30.39,NNW,336,0.0,1.0,94,0.00,,---,0.00,VWS V14.01,2013-11-23 13:04:00,
2013-11-23 08:05:00,30.1,28.6,30.39,NNW,336,0.0,0.0,94,0.00,,---,0.00,VWS V14.01,2013-11-23 13:05:00,
2013-11-23 08:06:00,30.2,28.7,30.39,NW,326,2.0,3.0,94,0.00,,---,0.00,VWS V14.01,2013-11-23 13:06:00,
2013-11-23 08:07:00,30.2,28.7,30.39,NW,326,0.0,2.0,94,0.00,,---,0.00,VWS V14.01,2013-11-23 13:07:00,
2013-11-23 08:08:00,30.2,28.7,30.39,NW,326,0.0,0.0,94,0.00,,---,0.00,VWS V14.01,2013-11-23 13:08:00,
2013-11-23 08:09:00,30.2,28.7,30.39,NW,326,0.0,0.0,94,0.00,,---,0.00,VWS V14.01,2013-11-23 13:09:00,
2013-11-23 08:10:00,30.2,28.7,30.39,NW,326,0.0,0.0,94,0.00,,---,0.00,VWS V14.01,2013-11-23 13:10:00,
2013-11-23 08:11:00,30.2,28.7,30.39,NNW,329,0.0,2.0,94,0.00,,---,0.00,VWS V14.01,2013-11-23 13:11:00,
2013-11-23 08:12:00,30.3,28.8,30.39,NNW,329,0.0,0.0,94,0.00,,---,0.00,VWS V14.01,2013-11-23 13:12:00,
2013-11-23 08:13:00,30.3,28.8,30.39,NNW,327,0.0,2.0,94,0.00,,---,0.00,VWS V14.01,2013-11-23 13:13:00,
2013-11-23 08:14:00,30.3,28.8,30.39,NNW,327,0.0,0.0,94,0.00,,---,0.00,VWS V14.01,2013-11-23 13:14:00,
2013-11-23 08:15:00,30.3,28.8,30.39,NNW,327,0.0,0.0,94,0.00,,---,0.00,VWS V14.01,2013-11-23 13:15:00,
2013-11-23 08:16:00,30.3,28.8,30.39,NW,321,0.0,0.0,94,0.00,,---,0.00,VWS V14.01,2013-11-23 13:16:00,
2013-11-23 08:17:00,30.4,28.9,30.39,NW,321,0.0,0.0,94,0.00,,---,0.00,VWS V14.01,2013-11-23 13:17:00,
2013-11-23 08:18:00,30.4,28.9,30.39,NW,321,0.0,0.0,94,0.00,,---,0.00,VWS V14.01,2013-11-23 13:18:00,
2013-11-23 08:19:00,30.5,29.0,30.39,NW,321,0.0,1.0,94,0.00,,---,0.00,VWS V14.01,2013-11-23 13:19:00,
2013-11-23 08:20:00,30.5,29.0,30.39,NW,321,0.0,0.0,94,0.00,,---,0.00,VWS V14.01,2013-11-23 13:20:00,
2013-11-23 08:21:00,30.6,29.1,30.39,NW,321,0.0,1.0,94,0.00,,---,0.00,VWS V14.01,2013-11-23 13:21:00,
2013-11-23 08:22:00,30.6,29.1,30.40,NW,321,0.0,1.0,94,0.00,,---,0.00,VWS V14.01,2013-11-23 13:22:00,
2013-11-23 08:23:00,30.7,28.9,30.40,NW,316,2.0,2.0,93,0.00,,---,0.00,VWS V14.01,2013-11-23 13:23:00,
2013-11-23 08:24:00,30.7,28.9,30.40,NW,316,0.0,2.0,93,0.00,,---,0.00,VWS V14.01,2013-11-23 13:24:00,
2013-11-23 08:25:00,30.7,29.2,30.40,NW,309,0.0,3.0,94,0.00,,---,0.00,VWS V14.01,2013-11-23 13:25:00,
2013-11-23 08:26:00,30.7,28.9,30.40,NW,309,0.0,1.0,93,0.00,,---,0.00,VWS V14.01,2013-11-23 13:26:00,
2013-11-23 08:27:00,30.7,28.9,30.40,NW,309,0.0,1.0,93,0.00,,---,0.00,VWS V14.01,2013-11-23 13:27:00,
2013-11-23 08:28:00,30.8,29.0,30.40,NW,309,0.0,1.0,93,0.00,,---,0.00,VWS V14.01,2013-11-23 13:28:00,
2013-11-23 08:29:00,30.8,29.0,30.40,NW,309,0.0,1.0,93,0.00,,---,0.00,VWS V14.01,2013-11-23 13:29:00,
2013-11-23 08:30:00,30.9,29.1,30.40,NW,309,0.0,0.0,93,0.00,,---,0.00,VWS V14.01,2013-11-23 13:30:00,
2013-11-23 08:31:00,30.9,29.1,30.40,NW,309,2.0,3.0,93,0.00,,---,0.00,VWS V14.01,2013-11-23 13:31:00,
2013-11-23 08:32:00,30.9,29.1,30.40,NW,309,0.0,2.0,93,0.00,,---,0.00,VWS V14.01,2013-11-23 13:32:00,
2013-11-23 08:33:00,31.0,29.2,30.39,NW,309,2.0,2.0,93,0.00,,---,0.00,VWS V14.01,2013-11-23 13:33:00,
2013-11-23 08:34:00,31.0,29.2,30.39,NW,309,0.0,2.0,93,0.00,,---,0.00,VWS V14.01,2013-11-23 13:34:00,
2013-11-23 08:35:00,31.0,29.2,30.39,NW,309,0.0,0.0,93,0.00,,---,0.00,VWS V14.01,2013-11-23 13:35:00,
2013-11-23 08:36:00,31.1,29.0,30.39,NW,309,0.0,0.0,92,0.00,,---,0.00,VWS V14.01,2013-11-23 13:36:00,
2013-11-23 08:37:00,31.1,29.0,30.39,NW,310,2.0,3.0,92,0.00,,---,0.00,VWS V14.01,2013-11-23 13:37:00,
2013-11-23 08:38:00,31.2,29.1,30.39,NW,310,1.0,2.0,92,0.00,,---,0.00,VWS V14.01,2013-11-23 13:38:00,
2013-11-23 08:39:00,31.2,29.1,30.39,NW,310,0.0,1.0,92,0.00,,---,0.00,VWS V14.01,2013-11-23 13:39:00,
2013-11-23 08:40:00,31.3,29.2,30.39,NW,310,2.0,2.0,92,0.00,,---,0.00,VWS V14.01,2013-11-23 13:40:00,
2013-11-23 08:41:00,31.3,29.2,30.39,NW,310,0.0,3.0,92,0.00,,---,0.00,VWS V14.01,2013-11-23 13:41:00,
2013-11-23 08:42:00,31.4,29.4,30.39,NW,310,0.0,1.0,92,0.00,,---,0.00,VWS V14.01,2013-11-23 13:42:00,
2013-11-23 08:43:00,31.4,29.4,30.39,NW,310,0.0,0.0,92,0.00,,---,0.00,VWS V14.01,2013-11-23 13:43:00,
2013-11-23 08:44:00,31.5,29.5,30.39,NW,310,0.0,1.0,92,0.00,,---,0.00,VWS V14.01,2013-11-23 13:44:00,
2013-11-23 08:45:00,31.5,29.5,30.39,WNW,300,2.0,5.0,92,0.00,,---,0.00,VWS V14.01,2013-11-23 13:45:00,
2013-11-23 08:46:00,31.5,29.5,30.40,WNW,300,0.0,2.0,92,0.00,,---,0.00,VWS V14.01,2013-11-23 13:46:00,
2013-11-23 08:47:00,31.5,29.2,30.40,West,270,0.0,4.0,91,0.00,,---,0.00,VWS V14.01,2013-11-23 13:47:00,
2013-11-23 08:48:00,31.5,29.2,30.40,West,270,0.0,1.0,91,0.00,,---,0.00,VWS V14.01,2013-11-23 13:48:00,
2013-11-23 08:49:00,31.5,29.2,30.40,West,270,0.0,2.0,91,0.00,,---,0.00,VWS V14.01,2013-11-23 13:49:00,
2013-11-23 08:50:00,31.5,29.2,30.40,West,270,0.0,0.0,91,0.00,,---,0.00,VWS V14.01,2013-11-23 13:50:00,
2013-11-23 08:51:00,31.5,29.2,30.40,West,270,0.0,2.0,91,0.00,,---,0.00,VWS V14.01,2013-11-23 13:51:00,
2013-11-23 08:52:00,31.6,29.3,30.40,West,270,0.0,0.0,91,0.00,,---,0.00,VWS V14.01,2013-11-23 13:52:00,
2013-11-23 08:53:00,31.6,29.3,30.40,West,270,0.0,0.0,91,0.00,,---,0.00,VWS V14.01,2013-11-23 13:53:00,
2013-11-23 08:54:00,31.6,29.3,30.39,West,270,0.0,0.0,91,0.00,,---,0.00,VWS V14.01,2013-11-23 13:54:00,
2013-11-23 08:55:00,31.6,29.3,30.39,West,270,0.0,1.0,91,0.00,,---,0.00,VWS V14.01,2013-11-23 13:55:00,
2013-11-23 08:56:00,31.7,29.1,30.40,West,270,0.0,0.0,90,0.00,,---,0.00,VWS V14.01,2013-11-23 13:56:00,
2013-11-23 08:57:00,31.7,29.1,30.40,West,270,0.0,0.0,90,0.00,,---,0.00,VWS V14.01,2013-11-23 13:57:00,
2013-11-23 08:58:00,31.7,29.1,30.40,West,270,0.0,0.0,90,0.00,,---,0.00,VWS V14.01,2013-11-23 13:58:00,
2013-11-23 08:59:00,31.7,29.1,30.40,West,270,2.0,3.0,90,0.00,,---,0.00,VWS V14.01,2013-11-23 13:59:00,
2013-11-23 09:00:00,31.8,29.2,30.40,West,270,0.0,3.0,90,0.00,,---,0.00,VWS V14.01,2013-11-23 14:00:00,
2013-11-23 09:01:00,31.8,29.2,30.40,West,270,0.0,0.0,90,0.00,,---,0.00,VWS V14.01,2013-11-23 14:01:00,
2013-11-23 09:02:00,31.8,29.2,30.40,West,270,0.0,1.0,90,0.00,,---,0.00,VWS V14.01,2013-11-23 14:02:00,
2013-11-23 09:03:00,31.8,29.2,30.40,West,270,0.0,2.0,90,0.00,,---,0.00,VWS V14.01,2013-11-23 14:03:00,
2013-11-23 09:04:00,31.9,29.3,30.40,West,270,2.0,2.0,90,0.00,,---,0.00,VWS V14.01,2013-11-23 14:04:00,
2013-11-23 09:05:00,31.9,29.3,30.40,WNW,284,0.0,4.0,90,0.00,,---,0.00,VWS V14.01,2013-11-23 14:05:00,
2013-11-23 09:06:00,31.9,29.3,30.40,WNW,284,0.0,0.0,90,0.00,,---,0.00,VWS V14.01,2013-11-23 14:06:00,
2013-11-23 09:07:00,32.0,29.1,30.40,WNW,286,2.0,2.0,89,0.00,,---,0.00,VWS V14.01,2013-11-23 14:07:00,
2013-11-23 09:08:00,32.0,29.1,30.40,WNW,287,0.0,2.0,89,0.00,,---,0.00,VWS V14.01,2013-11-23 14:08:00,
2013-11-23 09:09:00,32.0,29.1,30.40,WNW,286,0.0,1.0,89,0.00,,---,0.00,VWS V14.01,2013-11-23 14:09:00,
2013-11-23 09:10:00,32.0,29.1,30.40,WNW,286,0.0,0.0,89,0.00,,---,0.00,VWS V14.01,2013-11-23 14:10:00,
2013-11-23 09:11:00,32.0,29.1,30.40,WNW,297,0.0,4.0,89,0.00,,---,0.00,VWS V14.01,2013-11-23 14:11:00,
2013-11-23 09:12:00,32.0,29.1,30.40,WNW,300,3.0,4.0,89,0.00,,---,0.00,VWS V14.01,2013-11-23 14:12:00,
2013-11-23 09:13:00,32.1,29.2,30.40,WNW,300,0.0,3.0,89,0.00,,---,0.00,VWS V14.01,2013-11-23 14:13:00,
2013-11-23 09:14:00,32.1,29.2,30.40,NW,304,1.0,3.0,89,0.00,,---,0.00,VWS V14.01,2013-11-23 14:14:00,
2013-11-23 09:15:00,32.1,29.2,30.40,North,10,0.0,2.0,89,0.00,,---,0.00,VWS V14.01,2013-11-23 14:15:00,
2013-11-23 09:16:00,32.1,29.2,30.40,North,10,0.0,0.0,89,0.00,,---,0.00,VWS V14.01,2013-11-23 14:16:00,
2013-11-23 09:17:00,32.2,29.3,30.40,North,355,0.0,2.0,89,0.00,,---,0.00,VWS V14.01,2013-11-23 14:17:00,
2013-11-23 09:18:00,32.2,29.3,30.40,WNW,292,2.0,4.0,89,0.00,,---,0.00,VWS V14.01,2013-11-23 14:18:00,
2013-11-23 09:19:00,32.3,29.1,30.41,WNW,294,2.0,3.0,88,0.00,,---,0.00,VWS V14.01,2013-11-23 14:19:00,
2013-11-23 09:20:00,32.3,29.1,30.41,WNW,293,1.0,5.0,88,0.00,,---,0.00,VWS V14.01,2013-11-23 14:20:00,
2013-11-23 09:21:00,32.3,29.1,30.41,WNW,294,0.0,2.0,88,0.00,,---,0.00,VWS V14.01,2013-11-23 14:21:00,
2013-11-23 09:22:00,32.3,28.9,30.41,WNW,298,2.0,3.0,87,0.00,,---,0.00,VWS V14.01,2013-11-23 14:22:00,
2013-11-23 09:23:00,32.4,29.0,30.41,WNW,299,0.0,3.0,87,0.00,,---,0.00,VWS V14.01,2013-11-23 14:23:00,
2013-11-23 09:24:00,32.4,29.0,30.41,North,360,0.0,0.0,87,0.00,,---,0.00,VWS V14.01,2013-11-23 14:24:00,
2013-11-23 09:25:00,32.4,29.0,30.41,NNW,343,0.0,1.0,87,0.00,,---,0.00,VWS V14.01,2013-11-23 14:25:00,
2013-11-23 09:26:00,32.5,29.1,30.40,NW,310,0.0,3.0,87,0.00,,---,0.00,VWS V14.01,2013-11-23 14:26:00,
2013-11-23 09:27:00,32.5,29.1,30.40,NW,315,2.0,2.0,87,0.00,,---,0.00,VWS V14.01,2013-11-23 14:27:00,
2013-11-23 09:28:00,32.5,28.8,30.41,NW,315,0.0,3.0,86,0.00,,---,0.00,VWS V14.01,2013-11-23 14:28:00,
2013-11-23 09:29:00,32.5,28.8,30.41,WNW,300,2.0,5.0,86,0.00,,---,0.00,VWS V14.01,2013-11-23 14:29:00,
2013-11-23 09:30:00,32.5,28.8,30.41,WNW,283,0.0,7.0,86,0.00,,---,0.00,VWS V14.01,2013-11-23 14:30:00,
2013-11-23 09:31:00,32.5,28.5,30.41,West,281,2.0,4.0,85,0.00,,---,0.00,VWS V14.01,2013-11-23 14:31:00,
2013-11-23 09:32:00,32.5,28.5,30.41,WNW,298,2.0,5.0,85,0.00,,---,0.00,VWS V14.01,2013-11-23 14:32:00,
2013-11-23 09:33:00,32.6,28.6,30.42,WNW,293,0.0,2.0,85,0.00,,---,0.00,VWS V14.01,2013-11-23 14:33:00,
2013-11-23 09:34:00,32.6,28.6,30.42,WNW,294,0.0,1.0,85,0.00,,---,0.00,VWS V14.01,2013-11-23 14:34:00,
2013-11-23 09:35:00,32.6,28.6,30.42,NW,320,0.0,2.0,85,0.00,,---,0.00,VWS V14.01,2013-11-23 14:35:00,
2013-11-23 09:36:00,32.6,28.6,30.42,NW,320,0.0,0.0,85,0.00,,---,0.00,VWS V14.01,2013-11-23 14:36:00,
2013-11-23 09:37:00,32.7,29.0,30.41,NW,319,0.0,0.0,86,0.00,,---,0.00,VWS V14.01,2013-11-23 14:37:00,
2013-11-23 09:38:00,32.8,29.1,30.42,NW,306,0.0,3.0,86,0.00,,---,0.00,VWS V14.01,2013-11-23 14:38:00,
2013-11-23 09:39:00,32.8,28.8,30.42,NW,314,0.0,2.0,85,0.00,,---,0.00,VWS V14.01,2013-11-23 14:39:00,
2013-11-23 09:40:00,32.9,28.9,30.41,NW,314,0.0,0.0,85,0.00,,---,0.00,VWS V14.01,2013-11-23 14:40:00,
2013-11-23 09:41:00,32.9,28.9,30.41,WNW,301,2.0,3.0,85,0.00,,---,0.00,VWS V14.01,2013-11-23 14:41:00,
2013-11-23 09:42:00,32.9,28.6,30.41,West,279,0.0,4.0,84,0.00,,---,0.00,VWS V14.01,2013-11-23 14:42:00,
2013-11-23 09:43:00,32.9,28.6,30.41,WNW,282,1.0,3.0,84,0.00,,---,0.00,VWS V14.01,2013-11-23 14:43:00,
2013-11-23 09:44:00,32.9,28.3,30.41,West,279,0.0,0.0,83,0.00,,---,0.00,VWS V14.01,2013-11-23 14:44:00,
2013-11-23 09:45:00,33.0,28.4,30.40,WNW,286,0.0,3.0,83,0.00,,---,0.00,VWS V14.01,2013-11-23 14:45:00,
2013-11-23 09:46:00,33.0,28.1,30.41,West,278,1.0,1.0,82,0.00,,---,0.00,VWS V14.01,2013-11-23 14:46:00,
2013-11-23 09:47:00,33.0,27.8,30.41,West,273,3.0,5.0,81,0.00,,---,0.00,VWS V14.01,2013-11-23 14:47:00,
2013-11-23 09:48:00,33.0,27.2,30.41,WNW,288,1.0,5.0,79,0.00,,---,0.00,VWS V14.01,2013-11-23 14:48:00,
2013-11-23 09:49:00,32.9,26.8,30.41,West,274,3.0,6.0,78,0.00,,---,0.00,VWS V14.01,2013-11-23 14:49:00,
2013-11-23 09:50:00,32.9,26.8,30.41,WNW,298,0.0,4.0,78,0.00,,---,0.00,VWS V14.01,2013-11-23 14:50:00,
2013-11-23 09:51:00,32.9,26.8,30.41,WNW,298,0.0,1.0,78,0.00,,---,0.00,VWS V14.01,2013-11-23 14:51:00,
2013-11-23 09:52:00,32.9,26.8,30.41,WNW,297,2.0,2.0,78,0.00,,---,0.00,VWS V14.01,2013-11-23 14:52:00,
2013-11-23 09:53:00,32.9,26.8,30.41,WNW,302,0.0,6.0,78,0.00,,---,0.00,VWS V14.01,2013-11-23 14:53:00,
2013-11-23 09:54:00,32.9,26.5,30.41,NW,307,0.0,0.0,77,0.00,,---,0.00,VWS V14.01,2013-11-23 14:54:00,
2013-11-23 09:55:00,33.0,26.9,30.41,West,281,0.0,1.0,78,0.00,,---,0.00,VWS V14.01,2013-11-23 14:55:00,
2013-11-23 09:56:00,33.0,26.9,30.40,WNW,284,1.0,3.0,78,0.00,,---,0.00,VWS V14.01,2013-11-23 14:56:00,
2013-11-23 09:57:00,33.0,26.9,30.41,WNW,284,0.0,1.0,78,0.00,,---,0.00,VWS V14.01,2013-11-23 14:57:00,
2013-11-23 09:58:00,33.1,27.0,30.40,WNW,284,2.0,2.0,78,0.00,,---,0.00,VWS V14.01,2013-11-23 14:58:00,
2013-11-23 09:59:00,33.2,27.1,30.40,WNW,284,2.0,3.0,78,0.00,,---,0.00,VWS V14.01,2013-11-23 14:59:00,
2013-11-23 10:00:00,33.2,27.1,30.40,WNW,299,3.0,3.0,78,0.00,,---,0.00,VWS V14.01,2013-11-23 15:00:00,
2013-11-23 10:01:00,33.3,26.9,30.40,WNW,298,0.0,4.0,77,0.00,,---,0.00,VWS V14.01,2013-11-23 15:01:00,
2013-11-23 10:02:00,33.4,27.3,30.40,NNW,328,3.0,4.0,78,0.00,,---,0.00,VWS V14.01,2013-11-23 15:02:00,
2013-11-23 10:03:00,33.5,27.1,30.40,NW,321,0.0,3.0,77,0.00,,---,0.00,VWS V14.01,2013-11-23 15:03:00,
2013-11-23 10:04:00,33.5,27.1,30.40,NW,310,3.0,3.0,77,0.00,,---,0.00,VWS V14.01,2013-11-23 15:04:00,
2013-11-23 10:05:00,33.5,27.1,30.40,WNW,300,0.0,5.0,77,0.00,,---,0.00,VWS V14.01,2013-11-23 15:05:00,
2013-11-23 10:06:00,33.6,26.9,30.40,WNW,292,3.0,4.0,76,0.00,,---,0.00,VWS V14.01,2013-11-23 15:06:00,
2013-11-23 10:07:00,33.6,26.9,30.40,West,276,0.0,3.0,76,0.00,,---,0.00,VWS V14.01,2013-11-23 15:07:00,
2013-11-23 10:08:00,33.7,27.0,30.40,West,280,0.0,3.0,76,0.00,,---,0.00,VWS V14.01,2013-11-23 15:08:00,
2013-11-23 10:09:00,33.7,27.0,30.40,West,280,0.0,1.0,76,0.00,,---,0.00,VWS V14.01,2013-11-23 15:09:00,
2013-11-23 10:10:00,33.7,27.0,30.40,NNW,340,3.0,5.0,76,0.00,,---,0.00,VWS V14.01,2013-11-23 15:10:00,
2013-11-23 10:11:00,33.8,26.7,30.40,WNW,298,0.0,3.0,75,0.00,,---,0.00,VWS V14.01,2013-11-23 15:11:00,
2013-11-23 10:12:00,33.8,26.7,30.40,WNW,298,0.0,0.0,75,0.00,,---,0.00,VWS V14.01,2013-11-23 15:12:00,
2013-11-23 10:13:00,33.8,26.7,30.40,WNW,298,0.0,0.0,75,0.00,,---,0.00,VWS V14.01,2013-11-23 15:13:00,
2013-11-23 10:14:00,33.8,26.7,30.40,WNW,298,0.0,0.0,75,0.00,,---,0.00,VWS V14.01,2013-11-23 15:14:00,
2013-11-23 10:15:00,33.9,26.5,30.40,WNW,298,3.0,3.0,74,0.00,,---,0.00,VWS V14.01,2013-11-23 15:15:00,
2013-11-23 10:16:00,34.0,26.6,30.40,NW,311,0.0,4.0,74,0.00,,---,0.00,VWS V14.01,2013-11-23 15:16:00,
2013-11-23 10:17:00,34.0,26.6,30.40,WNW,288,0.0,1.0,74,0.00,,---,0.00,VWS V14.01,2013-11-23 15:17:00,
2013-11-23 10:18:00,34.1,26.7,30.40,WSW,256,3.0,5.0,74,0.00,,---,0.00,VWS V14.01,2013-11-23 15:18:00,
2013-11-23 10:19:00,34.1,26.4,30.40,WSW,256,0.0,3.0,73,0.00,,---,0.00,VWS V14.01,2013-11-23 15:19:00,
2013-11-23 10:20:00,34.2,26.5,30.39,NW,309,1.0,5.0,73,0.00,,---,0.00,VWS V14.01,2013-11-23 15:20:00,
2013-11-23 10:21:00,34.2,26.5,30.39,WNW,297,1.0,4.0,73,0.00,,---,0.00,VWS V14.01,2013-11-23 15:21:00,
2013-11-23 10:22:00,34.3,26.2,30.39,West,272,3.0,5.0,72,0.00,,---,0.00,VWS V14.01,2013-11-23 15:22:00,
2013-11-23 10:23:00,34.3,26.2,30.39,WSW,252,0.0,4.0,72,0.00,,---,0.00,VWS V14.01,2013-11-23 15:23:00,
2013-11-23 10:24:00,34.4,26.3,30.39,WSW,253,0.0,1.0,72,0.00,,---,0.00,VWS V14.01,2013-11-23 15:24:00,
2013-11-23 10:25:00,34.4,26.3,30.39,WNW,286,4.0,5.0,72,0.00,,---,0.00,VWS V14.01,2013-11-23 15:25:00,
2013-11-23 10:26:00,34.5,25.7,30.39,WNW,288,1.0,4.0,70,0.00,,---,0.00,VWS V14.01,2013-11-23 15:26:00,
2013-11-23 10:27:00,34.5,26.1,30.39,WNW,286,3.0,3.0,71,0.00,,---,0.00,VWS V14.01,2013-11-23 15:27:00,
2013-11-23 10:28:00,34.6,26.2,30.40,WNW,286,0.0,3.0,71,0.00,,---,0.00,VWS V14.01,2013-11-23 15:28:00,
2013-11-23 10:29:00,34.6,26.2,30.39,WNW,286,0.0,0.0,71,0.00,,---,0.00,VWS V14.01,2013-11-23 15:29:00,
2013-11-23 10:30:00,34.6,26.2,30.39,WSW,253,1.0,4.0,71,0.00,,---,0.00,VWS V14.01,2013-11-23 15:30:00,
2013-11-23 10:31:00,34.7,26.6,30.39,SSW,213,6.0,6.0,72,0.00,,---,0.00,VWS V14.01,2013-11-23 15:31:00,
2013-11-23 10:32:00,34.7,26.3,30.39,SW,232,1.0,6.0,71,0.00,,---,0.00,VWS V14.01,2013-11-23 15:32:00,
2013-11-23 10:33:00,34.7,26.3,30.39,NW,310,3.0,4.0,71,0.00,,---,0.00,VWS V14.01,2013-11-23 15:33:00,
2013-11-23 10:34:00,34.7,25.9,30.39,WSW,246,3.0,6.0,70,0.00,,---,0.00,VWS V14.01,2013-11-23 15:34:00,
2013-11-23 10:35:00,34.7,26.3,30.40,NW,313,4.0,4.0,71,0.00,,---,0.00,VWS V14.01,2013-11-23 15:35:00,
2013-11-23 10:36:00,34.7,25.9,30.39,NW,306,2.0,6.0,70,0.00,,---,0.00,VWS V14.01,2013-11-23 15:36:00,
2013-11-23 10:37:00,34.7,25.9,30.39,WNW,302,1.0,2.0,70,0.00,,---,0.00,VWS V14.01,2013-11-23 15:37:00,
2013-11-23 10:38:00,34.7,25.9,30.39,NW,313,2.0,3.0,70,0.00,,---,0.00,VWS V14.01,2013-11-23 15:38:00,
2013-11-23 10:39:00,34.7,25.9,30.39,NW,305,3.0,4.0,70,0.00,,---,0.00,VWS V14.01,2013-11-23 15:39:00,
2013-11-23 10:40:00,34.7,25.6,30.39,NW,305,0.0,3.0,69,0.00,,---,0.00,VWS V14.01,2013-11-23 15:40:00,
2013-11-23 10:41:00,34.7,25.6,30.39,NNW,331,2.0,3.0,69,0.00,,---,0.00,VWS V14.01,2013-11-23 15:41:00,
2013-11-23 10:42:00,34.8,25.3,30.39,WNW,298,1.0,4.0,68,0.00,,---,0.00,VWS V14.01,2013-11-23 15:42:00,
2013-11-23 10:43:00,34.7,24.5,30.39,WNW,298,0.0,2.0,66,0.00,,---,0.00,VWS V14.01,2013-11-23 15:43:00,
2013-11-23 10:44:00,34.7,24.5,30.39,WNW,292,1.0,2.0,66,0.00,,---,0.00,VWS V14.01,2013-11-23 15:44:00,
2013-11-23 10:45:00,34.8,24.6,30.39,WNW,292,1.0,3.0,66,0.00,,---,0.00,VWS V14.01,2013-11-23 15:45:00,
2013-11-23 10:46:00,34.8,24.6,30.39,WNW,292,0.0,1.0,66,0.00,,---,0.00,VWS V14.01,2013-11-23 15:46:00,
2013-11-23 10:47:00,34.8,24.2,30.39,WNW,292,1.0,1.0,65,0.00,,---,0.00,VWS V14.01,2013-11-23 15:47:00,
2013-11-23 10:48:00,34.9,24.3,30.39,West,263,2.0,3.0,65,0.00,,---,0.00,VWS V14.01,2013-11-23 15:48:00,
2013-11-23 10:49:00,35.0,24.4,30.39,NW,307,4.0,4.0,65,0.00,,---,0.00,VWS V14.01,2013-11-23 15:49:00,
2013-11-23 10:50:00,35.0,24.1,30.39,WNW,298,0.0,4.0,64,0.00,,---,0.00,VWS V14.01,2013-11-23 15:50:00,
2013-11-23 10:51:00,35.0,24.1,30.39,WNW,298,0.0,0.0,64,0.00,,---,0.00,VWS V14.01,2013-11-23 15:51:00,
2013-11-23 10:52:00,35.1,24.5,30.39,WNW,298,0.0,0.0,65,0.00,,---,0.00,VWS V14.01,2013-11-23 15:52:00,
2013-11-23 10:53:00,35.2,24.6,30.39,WSW,258,2.0,4.0,65,0.00,,---,0.00,VWS V14.01,2013-11-23 15:53:00,
2013-11-23 10:54:00,35.2,24.3,30.39,WSW,244,0.0,5.0,64,0.00,,---,0.00,VWS V14.01,2013-11-23 15:54:00,
2013-11-23 10:55:00,35.3,24.4,30.38,West,272,2.0,2.0,64,0.00,,---,0.00,VWS V14.01,2013-11-23 15:55:00,
2013-11-23 10:56:00,35.3,24.0,30.38,West,268,0.0,2.0,63,0.00,,---,0.00,VWS V14.01,2013-11-23 15:56:00,
2013-11-23 10:57:00,35.4,23.7,30.38,West,269,1.0,2.0,62,0.00,,---,0.00,VWS V14.01,2013-11-23 15:57:00,
2013-11-23 10:58:00,35.4,23.3,30.38,West,270,0.0,2.0,61,0.00,,---,0.00,VWS V14.01,2013-11-23 15:58:00,
2013-11-23 10:59:00,35.4,23.3,30.38,West,270,0.0,2.0,61,0.00,,---,0.00,VWS V14.01,2013-11-23 15:59:00,
2013-11-23 11:00:00,35.5,23.4,30.38,WSW,253,1.0,1.0,61,0.00,,---,0.00,VWS V14.01,2013-11-23 16:00:00,
2013-11-23 11:01:00,35.5,23.4,30.38,WNW,302,3.0,3.0,61,0.00,,---,0.00,VWS V14.01,2013-11-23 16:01:00,
2013-11-23 11:02:00,35.5,23.0,30.38,WNW,302,0.0,3.0,60,0.00,,---,0.00,VWS V14.01,2013-11-23 16:02:00,
2013-11-23 11:03:00,35.6,23.1,30.38,NW,305,0.0,4.0,60,0.00,,---,0.00,VWS V14.01,2013-11-23 16:03:00,
2013-11-23 11:04:00,35.6,23.1,30.38,NW,305,0.0,1.0,60,0.00,,---,0.00,VWS V14.01,2013-11-23 16:04:00,
2013-11-23 11:05:00,35.7,23.2,30.38,NW,305,3.0,5.0,60,0.00,,---,0.00,VWS V14.01,2013-11-23 16:05:00,
2013-11-23 11:06:00,35.7,23.6,30.38,WSW,245,1.0,4.0,61,0.00,,---,0.00,VWS V14.01,2013-11-23 16:06:00,
2013-11-23 11:07:00,35.8,23.3,30.38,WSW,248,0.0,5.0,60,0.00,,---,0.00,VWS V14.01,2013-11-23 16:07:00,
2013-11-23 11:08:00,35.9,23.4,30.38,WNW,290,0.0,3.0,60,0.00,,---,0.00,VWS V14.01,2013-11-23 16:08:00,
2013-11-23 11:09:00,35.9,23.4,30.38,WNW,289,2.0,2.0,60,0.00,,---,0.00,VWS V14.01,2013-11-23 16:09:00,
2013-11-23 11:10:00,36.0,23.1,30.38,WNW,292,0.0,4.0,59,0.00,,---,0.00,VWS V14.01,2013-11-23 16:10:00,
2013-11-23 11:11:00,36.0,22.7,30.38,WNW,284,0.0,5.0,58,0.00,,---,0.00,VWS V14.01,2013-11-23 16:11:00,
2013-11-23 11:12:00,36.1,23.2,30.38,WNW,284,0.0,0.0,59,0.00,,---,0.00,VWS V14.01,2013-11-23 16:12:00,
2013-11-23 11:13:00,36.1,24.0,30.38,West,276,0.0,1.0,61,0.00,,---,0.00,VWS V14.01,2013-11-23 16:13:00,
2013-11-23 11:14:00,36.2,23.7,30.38,West,261,1.0,3.0,60,0.00,,---,0.00,VWS V14.01,2013-11-23 16:14:00,
2013-11-23 11:15:00,36.3,23.4,30.38,SW,235,4.0,5.0,59,0.00,,---,0.00,VWS V14.01,2013-11-23 16:15:00,
2013-11-23 11:16:00,36.4,23.0,30.38,WSW,245,0.0,4.0,58,0.00,,---,0.00,VWS V14.01,2013-11-23 16:16:00,
2013-11-23 11:17:00,36.5,23.5,30.38,WSW,245,0.0,2.0,59,0.00,,---,0.00,VWS V14.01,2013-11-23 16:17:00,
2013-11-23 11:18:00,36.6,22.8,30.38,NW,306,0.0,2.0,57,0.00,,---,0.00,VWS V14.01,2013-11-23 16:18:00,
2013-11-23 11:19:00,36.7,23.3,30.37,WSW,240,6.0,6.0,58,0.00,,---,0.00,VWS V14.01,2013-11-23 16:19:00,
2013-11-23 11:20:00,36.8,23.0,30.37,West,268,1.0,7.0,57,0.00,,---,0.00,VWS V14.01,2013-11-23 16:20:00,
2013-11-23 11:21:00,36.8,22.2,30.37,West,268,0.0,1.0,55,0.00,,---,0.00,VWS V14.01,2013-11-23 16:21:00,
2013-11-23 11:22:00,36.8,22.6,30.37,WNW,290,0.0,2.0,56,0.00,,---,0.00,VWS V14.01,2013-11-23 16:22:00,
2013-11-23 11:23:00,36.9,22.3,30.37,West,273,3.0,5.0,55,0.00,,---,0.00,VWS V14.01,2013-11-23 16:23:00,
2013-11-23 11:24:00,36.9,21.8,30.37,NW,319,3.0,3.0,54,0.00,,---,0.00,VWS V14.01,2013-11-23 16:24:00,
2013-11-23 11:25:00,36.9,21.8,30.37,NW,304,1.0,3.0,54,0.00,,---,0.00,VWS V14.01,2013-11-23 16:25:00,
2013-11-23 11:26:00,37.0,22.4,30.37,WNW,298,0.0,4.0,55,0.00,,---,0.00,VWS V14.01,2013-11-23 16:26:00,
2013-11-23 11:27:00,37.0,22.4,30.37,SW,225,3.0,3.0,55,0.00,,---,0.00,VWS V14.01,2013-11-23 16:27:00,
2013-11-23 11:28:00,37.1,22.0,30.37,WSW,252,1.0,3.0,54,0.00,,---,0.00,VWS V14.01,2013-11-23 16:28:00,
2013-11-23 11:29:00,37.1,22.0,30.37,NW,319,5.0,5.0,54,0.00,,---,0.00,VWS V14.01,2013-11-23 16:29:00,
2013-11-23 11:30:00,37.1,22.0,30.37,WNW,283,3.0,5.0,54,0.00,,---,0.00,VWS V14.01,2013-11-23 16:30:00,
2013-11-23 11:31:00,37.2,21.7,30.37,West,263,2.0,4.0,53,0.00,,---,0.00,VWS V14.01,2013-11-23 16:31:00,
2013-11-23 11:32:00,37.2,21.2,30.37,SW,222,5.0,6.0,52,0.00,,---,0.00,VWS V14.01,2013-11-23 16:32:00,
2013-11-23 11:33:00,37.3,20.9,30.37,WNW,294,3.0,8.0,51,0.00,,---,0.00,VWS V14.01,2013-11-23 16:33:00,
2013-11-23 11:34:00,37.3,21.3,30.37,NW,320,4.0,4.0,52,0.00,,---,0.00,VWS V14.01,2013-11-23 16:34:00,
2013-11-23 11:35:00,37.3,21.3,30.37,WSW,250,8.0,8.0,52,0.00,,---,0.00,VWS V14.01,2013-11-23 16:35:00,
2013-11-23 11:36:00,37.3,20.4,30.37,WNW,288,1.0,6.0,50,0.00,,---,0.00,VWS V14.01,2013-11-23 16:36:00,
2013-11-23 11:37:00,37.3,20.4,30.37,NW,323,0.0,2.0,50,0.00,,---,0.00,VWS V14.01,2013-11-23 16:37:00,
2013-11-23 11:38:00,37.3,20.4,30.37,NW,320,0.0,5.0,50,0.00,,---,0.00,VWS V14.01,2013-11-23 16:38:00,
2013-11-23 11:39:00,37.4,20.9,30.36,WSW,246,4.0,4.0,51,0.00,,---,0.00,VWS V14.01,2013-11-23 16:39:00,
2013-11-23 11:40:00,37.4,20.9,30.37,WSW,244,0.0,5.0,51,0.00,,---,0.00,VWS V14.01,2013-11-23 16:40:00,
2013-11-23 11:41:00,37.4,20.9,30.37,WSW,244,0.0,1.0,51,0.00,,---,0.00,VWS V14.01,2013-11-23 16:41:00,
2013-11-23 11:42:00,37.4,20.5,30.37,WNW,288,0.0,4.0,50,0.00,,---,0.00,VWS V14.01,2013-11-23 16:42:00,
2013-11-23 11:43:00,37.4,20.5,30.36,NW,307,2.0,4.0,50,0.00,,---,0.00,VWS V14.01,2013-11-23 16:43:00,
2013-11-23 11:44:00,37.4,20.5,30.37,NW,312,5.0,5.0,50,0.00,,---,0.00,VWS V14.01,2013-11-23 16:44:00,
2013-11-23 11:45:00,37.4,21.4,30.36,WSW,240,7.0,7.0,52,0.00,,---,0.00,VWS V14.01,2013-11-23 16:45:00,
2013-11-23 11:46:00,37.5,21.5,30.36,West,263,0.0,7.0,52,0.00,,---,0.00,VWS V14.01,2013-11-23 16:46:00,
2013-11-23 11:47:00,37.6,22.0,30.36,West,263,0.0,0.0,53,0.00,,---,0.00,VWS V14.01,2013-11-23 16:47:00,
2013-11-23 11:48:00,37.7,22.6,30.36,WNW,290,1.0,4.0,54,0.00,,---,0.00,VWS V14.01,2013-11-23 16:48:00,
2013-11-23 11:49:00,37.8,21.8,30.36,NNW,329,1.0,4.0,52,0.00,,---,0.00,VWS V14.01,2013-11-23 16:49:00,
2013-11-23 11:50:00,37.9,21.9,30.36,West,259,1.0,5.0,52,0.00,,---,0.00,VWS V14.01,2013-11-23 16:50:00,
2013-11-23 11:51:00,38.0,21.0,30.36,West,267,3.0,5.0,50,0.00,,---,0.00,VWS V14.01,2013-11-23 16:51:00,
2013-11-23 11:52:00,38.1,21.6,30.36,NW,306,4.0,4.0,51,0.00,,---,0.00,VWS V14.01,2013-11-23 16:52:00,
2013-11-23 11:53:00,38.2,21.7,30.36,NW,311,0.0,3.0,51,0.00,,---,0.00,VWS V14.01,2013-11-23 16:53:00,
2013-11-23 11:54:00,38.2,22.1,30.36,South,184,0.0,4.0,52,0.00,,---,0.00,VWS V14.01,2013-11-23 16:54:00,
2013-11-23 11:55:00,38.3,22.2,30.36,NW,304,2.0,2.0,52,0.00,,---,0.00,VWS V14.01,2013-11-23 16:55:00,
2013-11-23 11:56:00,38.4,21.9,30.36,West,271,2.0,7.0,51,0.00,,---,0.00,VWS V14.01,2013-11-23 16:56:00,
2013-11-23 11:57:00,38.6,22.0,30.36,NW,309,2.0,7.0,51,0.00,,---,0.00,VWS V14.01,2013-11-23 16:57:00,
2013-11-23 11:58:00,38.6,21.6,30.36,WNW,293,3.0,4.0,50,0.00,,---,0.00,VWS V14.01,2013-11-23 16:58:00,
2013-11-23 11:59:00,38.7,21.7,30.36,WNW,303,6.0,6.0,50,0.00,,---,0.00,VWS V14.01,2013-11-23 16:59:00,
2013-11-23 12:00:00,38.7,21.2,30.36,NW,323,5.0,8.0,49,0.00,,---,0.00,VWS V14.01,2013-11-23 17:00:00,
2013-11-23 12:01:00,38.6,20.6,30.36,NW,305,0.0,6.0,48,0.00,,---,0.00,VWS V14.01,2013-11-23 17:01:00,
2013-11-23 12:02:00,38.6,21.6,30.36,West,266,4.0,5.0,50,0.00,,---,0.00,VWS V14.01,2013-11-23 17:02:00,
2013-11-23 12:03:00,38.6,21.1,30.36,North,5,0.0,5.0,49,0.00,,---,0.00,VWS V14.01,2013-11-23 17:03:00,
2013-11-23 12:04:00,38.6,21.6,30.35,WNW,296,3.0,6.0,50,0.00,,---,0.00,VWS V14.01,2013-11-23 17:04:00,
2013-11-23 12:05:00,38.6,21.6,30.35,NW,307,0.0,4.0,50,0.00,,---,0.00,VWS V14.01,2013-11-23 17:05:00,
2013-11-23 12:06:00,38.6,22.0,30.35,WNW,300,1.0,3.0,51,0.00,,---,0.00,VWS V14.01,2013-11-23 17:06:00,
2013-11-23 12:07:00,38.7,21.7,30.35,West,279,7.0,7.0,50,0.00,,---,0.00,VWS V14.01,2013-11-23 17:07:00,
2013-11-23 12:08:00,38.7,21.7,30.36,West,260,1.0,8.0,50,0.00,,---,0.00,VWS V14.01,2013-11-23 17:08:00,
2013-11-23 12:09:00,38.7,22.1,30.36,WNW,287,4.0,4.0,51,0.00,,---,0.00,VWS V14.01,2013-11-23 17:09:00,
2013-11-23 12:10:00,38.8,21.8,30.36,NW,315,3.0,5.0,50,0.00,,---,0.00,VWS V14.01,2013-11-23 17:10:00,
2013-11-23 12:11:00,38.8,21.3,30.35,WNW,298,3.0,5.0,49,0.00,,---,0.00,VWS V14.01,2013-11-23 17:11:00,
2013-11-23 12:12:00,38.8,20.8,30.35,West,277,4.0,5.0,48,0.00,,---,0.00,VWS V14.01,2013-11-23 17:12:00,
2013-11-23 12:13:00,38.8,20.8,30.35,NNW,330,0.0,5.0,48,0.00,,---,0.00,VWS V14.01,2013-11-23 17:13:00,
2013-11-23 12:14:00,38.8,20.8,30.35,WSW,246,2.0,3.0,48,0.00,,---,0.00,VWS V14.01,2013-11-23 17:14:00,
2013-11-23 12:15:00,38.8,21.8,30.35,WSW,248,0.0,3.0,50,0.00,,---,0.00,VWS V14.01,2013-11-23 17:15:00,
2013-11-23 12:16:00,38.8,21.8,30.35,WNW,298,1.0,4.0,50,0.00,,---,0.00,VWS V14.01,2013-11-23 17:16:00,
2013-11-23 12:17:00,38.8,22.2,30.35,WNW,295,0.0,3.0,51,0.00,,---,0.00,VWS V14.01,2013-11-23 17:17:00,
2013-11-23 12:18:00,38.9,22.3,30.34,WNW,295,0.0,0.0,51,0.00,,---,0.00,VWS V14.01,2013-11-23 17:18:00,
2013-11-23 12:19:00,38.9,22.3,30.35,NW,306,3.0,4.0,51,0.00,,---,0.00,VWS V14.01,2013-11-23 17:19:00,
2013-11-23 12:20:00,38.9,22.3,30.35,NW,308,4.0,6.0,51,0.00,,---,0.00,VWS V14.01,2013-11-23 17:20:00,
2013-11-23 12:21:00,39.0,22.4,30.35,NNW,329,1.0,10.0,51,0.00,,---,0.00,VWS V14.01,2013-11-23 17:21:00,
2013-11-23 12:22:00,39.0,18.4,30.35,WNW,298,4.0,4.0,43,0.00,,---,0.00,VWS V14.01,2013-11-23 17:22:00,
2013-11-23 12:23:00,39.0,17.9,30.35,NW,324,0.0,4.0,42,0.00,,---,0.00,VWS V14.01,2013-11-23 17:23:00,
2013-11-23 12:24:00,39.1,18.0,30.35,NW,313,4.0,6.0,42,0.00,,---,0.00,VWS V14.01,2013-11-23 17:24:00,
2013-11-23 12:25:00,39.1,17.4,30.35,NE,55,3.0,4.0,41,0.00,,---,0.00,VWS V14.01,2013-11-23 17:25:00,
2013-11-23 12:26:00,39.2,18.0,30.34,NE,34,5.0,5.0,42,0.00,,---,0.00,VWS V14.01,2013-11-23 17:26:00,
2013-11-23 12:27:00,39.2,18.6,30.35,WNW,296,1.0,5.0,43,0.00,,---,0.00,VWS V14.01,2013-11-23 17:27:00,
2013-11-23 12:28:00,39.2,18.0,30.35,WNW,297,0.0,8.0,42,0.00,,---,0.00,VWS V14.01,2013-11-23 17:28:00,
2013-11-23 12:29:00,39.2,18.6,30.35,North,5,0.0,5.0,43,0.00,,---,0.00,VWS V14.01,2013-11-23 17:29:00,
2013-11-23 12:30:00,39.2,18.0,30.34,NW,311,3.0,6.0,42,0.00,,---,0.00,VWS V14.01,2013-11-23 17:30:00,
2013-11-23 12:31:00,39.1,18.5,30.35,NNW,347,3.0,7.0,43,0.00,,---,0.00,VWS V14.01,2013-11-23 17:31:00,
2013-11-23 12:32:00,39.1,18.5,30.34,NW,307,4.0,6.0,43,0.00,,---,0.00,VWS V14.01,2013-11-23 17:32:00,
2013-11-23 12:33:00,39.1,18.5,30.35,WNW,303,0.0,5.0,43,0.00,,---,0.00,VWS V14.01,2013-11-23 17:33:00,
2013-11-23 12:34:00,39.0,19.5,30.35,WNW,301,0.0,4.0,45,0.00,,---,0.00,VWS V14.01,2013-11-23 17:34:00,
2013-11-23 12:35:00,39.0,19.5,30.35,WNW,290,4.0,4.0,45,0.00,,---,0.00,VWS V14.01,2013-11-23 17:35:00,
2013-11-23 12:36:00,39.0,19.5,30.35,NW,306,5.0,5.0,45,0.00,,---,0.00,VWS V14.01,2013-11-23 17:36:00,
2013-11-23 12:37:00,39.0,19.5,30.35,NW,306,0.0,5.0,45,0.00,,---,0.00,VWS V14.01,2013-11-23 17:37:00,
2013-11-23 12:38:00,39.0,19.0,30.35,NW,305,4.0,7.0,44,0.00,,---,0.00,VWS V14.01,2013-11-23 17:38:00,
2013-11-23 12:39:00,38.9,18.9,30.35,NNW,329,3.0,5.0,44,0.00,,---,0.00,VWS V14.01,2013-11-23 17:39:00,
2013-11-23 12:40:00,38.9,18.9,30.35,WNW,294,2.0,8.0,44,0.00,,---,0.00,VWS V14.01,2013-11-23 17:40:00,
2013-11-23 12:41:00,38.8,19.3,30.35,NW,313,0.0,2.0,45,0.00,,---,0.00,VWS V14.01,2013-11-23 17:41:00,
2013-11-23 12:42:00,38.8,19.8,30.35,NNW,333,2.0,3.0,46,0.00,,---,0.00,VWS V14.01,2013-11-23 17:42:00,
2013-11-23 12:43:00,38.8,20.3,30.35,WNW,302,1.0,6.0,47,0.00,,---,0.00,VWS V14.01,2013-11-23 17:43:00,
2013-11-23 12:44:00,38.7,19.2,30.35,NW,304,0.0,4.0,45,0.00,,---,0.00,VWS V14.01,2013-11-23 17:44:00,
2013-11-23 12:45:00,38.7,19.2,30.34,WNW,302,1.0,3.0,45,0.00,,---,0.00,VWS V14.01,2013-11-23 17:45:00,
2013-11-23 12:46:00,38.7,19.2,30.34,NNW,334,0.0,4.0,45,0.00,,---,0.00,VWS V14.01,2013-11-23 17:46:00,
2013-11-23 12:47:00,38.7,19.2,30.34,NW,319,5.0,10.0,45,0.00,,---,0.00,VWS V14.01,2013-11-23 17:47:00,
2013-11-23 12:48:00,38.6,19.6,30.34,NNW,327,1.0,5.0,46,0.00,,---,0.00,VWS V14.01,2013-11-23 17:48:00,
2013-11-23 12:49:00,38.6,19.6,30.34,NW,314,0.0,4.0,46,0.00,,---,0.00,VWS V14.01,2013-11-23 17:49:00,
2013-11-23 12:50:00,38.6,20.1,30.34,NW,306,2.0,4.0,47,0.00,,---,0.00,VWS V14.01,2013-11-23 17:50:00,
2013-11-23 12:51:00,38.6,20.1,30.34,WNW,298,4.0,4.0,47,0.00,,---,0.00,VWS V14.01,2013-11-23 17:51:00,
2013-11-23 12:52:00,38.5,20.0,30.34,NW,313,4.0,4.0,47,0.00,,---,0.00,VWS V14.01,2013-11-23 17:52:00,
2013-11-23 12:53:00,38.5,19.5,30.34,NW,323,3.0,4.0,46,0.00,,---,0.00,VWS V14.01,2013-11-23 17:53:00,
2013-11-23 12:54:00,38.4,19.4,30.34,NW,321,4.0,7.0,46,0.00,,---,0.00,VWS V14.01,2013-11-23 17:54:00,
2013-11-23 12:55:00,38.3,19.4,30.35,WNW,302,5.0,14.0,46,0.00,,---,0.00,VWS V14.01,2013-11-23 17:55:00,
2013-11-23 12:56:00,38.2,19.3,30.35,NW,305,1.0,5.0,46,0.00,,---,0.00,VWS V14.01,2013-11-23 17:56:00,
2013-11-23 12:57:00,38.1,20.2,30.35,WNW,293,5.0,5.0,48,0.00,,---,0.00,VWS V14.01,2013-11-23 17:57:00,
2013-11-23 12:58:00,38.0,19.6,30.35,WNW,293,2.0,5.0,47,0.00,,---,0.00,VWS V14.01,2013-11-23 17:58:00,
2013-11-23 12:59:00,38.0,19.6,30.35,West,274,5.0,5.0,47,0.00,,---,0.00,VWS V14.01,2013-11-23 17:59:00,
2013-11-23 13:00:00,38.0,19.6,30.35,WNW,294,1.0,7.0,47,0.00,,---,0.00,VWS V14.01,2013-11-23 18:00:00,
2013-11-23 13:01:00,37.9,19.5,30.35,WNW,291,1.0,5.0,47,0.00,,---,0.00,VWS V14.01,2013-11-23 18:01:00,
2013-11-23 13:02:00,37.9,19.5,30.35,West,260,2.0,8.0,47,0.00,,---,0.00,VWS V14.01,2013-11-23 18:02:00,
2013-11-23 13:03:00,37.8,19.4,30.35,WNW,286,5.0,8.0,47,0.00,,---,0.00,VWS V14.01,2013-11-23 18:03:00,
2013-11-23 13:04:00,37.7,19.3,30.35,NW,317,3.0,6.0,47,0.00,,---,0.00,VWS V14.01,2013-11-23 18:04:00,
2013-11-23 13:05:00,37.7,19.3,30.35,WNW,298,2.0,4.0,47,0.00,,---,0.00,VWS V14.01,2013-11-23 18:05:00,
2013-11-23 13:06:00,37.7,19.3,30.35,NE,55,3.0,3.0,47,0.00,,---,0.00,VWS V14.01,2013-11-23 18:06:00,
2013-11-23 13:07:00,37.7,20.3,30.35,NW,309,3.0,8.0,49,0.00,,---,0.00,VWS V14.01,2013-11-23 18:07:00,
2013-11-23 13:08:00,37.7,20.3,30.35,WNW,286,3.0,6.0,49,0.00,,---,0.00,VWS V14.01,2013-11-23 18:08:00,
2013-11-23 13:09:00,37.7,20.3,30.35,NNW,331,3.0,7.0,49,0.00,,---,0.00,VWS V14.01,2013-11-23 18:09:00,
2013-11-23 13:10:00,37.7,20.3,30.35,NNW,332,3.0,8.0,49,0.00,,---,0.00,VWS V14.01,2013-11-23 18:10:00,
2013-11-23 13:11:00,37.6,20.2,30.35,NNW,331,1.0,5.0,49,0.00,,---,0.00,VWS V14.01,2013-11-23 18:11:00,
2013-11-23 13:12:00,37.6,19.7,30.35,NW,305,1.0,6.0,48,0.00,,---,0.00,VWS V14.01,2013-11-23 18:12:00,
2013-11-23 13:13:00,37.5,20.6,30.35,SSW,202,3.0,8.0,50,0.00,,---,0.00,VWS V14.01,2013-11-23 18:13:00,
2013-11-23 13:14:00,37.5,20.6,30.35,WNW,302,2.0,5.0,50,0.00,,---,0.00,VWS V14.01,2013-11-23 18:14:00,
2013-11-23 13:15:00,37.5,20.6,30.35,NW,318,9.0,9.0,50,0.00,,---,0.00,VWS V14.01,2013-11-23 18:15:00,
2013-11-23 13:16:00,37.5,20.6,30.35,NNW,348,2.0,10.0,50,0.00,,---,0.00,VWS V14.01,2013-11-23 18:16:00,
2013-11-23 13:17:00,37.4,20.0,30.35,NW,326,6.0,9.0,49,0.00,,---,0.00,VWS V14.01,2013-11-23 18:17:00,
2013-11-23 13:18:00,37.3,19.4,30.35,NW,317,1.0,6.0,48,0.00,,---,0.00,VWS V14.01,2013-11-23 18:18:00,
2013-11-23 13:19:00,37.3,19.4,30.35,NNW,338,3.0,9.0,48,0.00,,---,0.00,VWS V14.01,2013-11-23 18:19:00,
2013-11-23 13:20:00,37.2,18.8,30.35,North,5,2.0,6.0,47,0.00,,---,0.00,VWS V14.01,2013-11-23 18:20:00,
2013-11-23 13:21:00,37.1,19.2,30.35,NW,325,5.0,5.0,48,0.00,,---,0.00,VWS V14.01,2013-11-23 18:21:00,
2013-11-23 13:22:00,37.0,18.2,30.35,NNW,340,4.0,9.0,46,0.00,,---,0.00,VWS V14.01,2013-11-23 18:22:00,
2013-11-23 13:23:00,36.9,18.6,30.35,WNW,303,4.0,5.0,47,0.00,,---,0.00,VWS V14.01,2013-11-23 18:23:00,
2013-11-23 13:24:00,36.9,18.6,30.35,NW,323,3.0,6.0,47,0.00,,---,0.00,VWS V14.01,2013-11-23 18:24:00,
2013-11-23 13:25:00,36.9,19.1,30.35,WNW,283,5.0,6.0,48,0.00,,---,0.00,VWS V14.01,2013-11-23 18:25:00,
2013-11-23 13:26:00,36.8,19.5,30.35,WNW,284,10.0,12.0,49,0.00,,---,0.00,VWS V14.01,2013-11-23 18:26:00,
2013-11-23 13:27:00,36.8,19.5,30.35,WNW,290,4.0,10.0,49,0.00,,---,0.00,VWS V14.01,2013-11-23 18:27:00,
2013-11-23 13:28:00,36.7,19.8,30.35,WSW,255,4.0,6.0,50,0.00,,---,0.00,VWS V14.01,2013-11-23 18:28:00,
2013-11-23 13:29:00,36.7,19.8,30.35,WNW,301,3.0,7.0,50,0.00,,---,0.00,VWS V14.01,2013-11-23 18:29:00,
2013-11-23 13:30:00,36.7,19.8,30.35,NW,311,0.0,8.0,50,0.00,,---,0.00,VWS V14.01,2013-11-23 18:30:00,
2013-11-23 13:31:00,36.6,19.7,30.35,NW,319,3.0,8.0,50,0.00,,---,0.00,VWS V14.01,2013-11-23 18:31:00,
2013-11-23 13:32:00,36.6,19.7,30.35,NNW,337,4.0,4.0,50,0.00,,---,0.00,VWS V14.01,2013-11-23 18:32:00,
2013-11-23 13:33:00,36.6,19.7,30.36,WNW,286,7.0,14.0,50,0.00,,---,0.00,VWS V14.01,2013-11-23 18:33:00,
2013-11-23 13:34:00,36.5,19.6,30.36,NW,315,5.0,9.0,50,0.00,,---,0.00,VWS V14.01,2013-11-23 18:34:00,
2013-11-23 13:35:00,36.4,20.0,30.36,WNW,292,2.0,4.0,51,0.00,,---,0.00,VWS V14.01,2013-11-23 18:35:00,
2013-11-23 13:36:00,36.3,20.4,30.36,NW,315,3.0,6.0,52,0.00,,---,0.00,VWS V14.01,2013-11-23 18:36:00,
2013-11-23 13:37:00,36.3,20.4,30.36,NW,315,2.0,6.0,52,0.00,,---,0.00,VWS V14.01,2013-11-23 18:37:00,
2013-11-23 13:38:00,36.2,19.8,30.36,WNW,292,3.0,6.0,51,0.00,,---,0.00,VWS V14.01,2013-11-23 18:38:00,
2013-11-23 13:39:00,36.2,20.3,30.36,NW,315,2.0,8.0,52,0.00,,---,0.00,VWS V14.01,2013-11-23 18:39:00,
2013-11-23 13:40:00,36.1,20.2,30.36,WNW,292,7.0,13.0,52,0.00,,---,0.00,VWS V14.01,2013-11-23 18:40:00,
2013-11-23 13:41:00,36.1,19.7,30.36,WNW,292,6.0,8.0,51,0.00,,---,0.00,VWS V14.01,2013-11-23 18:41:00,
2013-11-23 13:42:00,36.0,20.5,30.36,NW,315,5.0,7.0,53,0.00,,---,0.00,VWS V14.01,2013-11-23 18:42:00,
2013-11-23 13:43:00,35.9,20.9,30.36,NW,315,3.0,5.0,54,0.00,,---,0.00,VWS V14.01,2013-11-23 18:43:00,
2013-11-23 13:44:00,35.8,20.4,30.36,NW,315,3.0,7.0,53,0.00,,---,0.00,VWS V14.01,2013-11-23 18:44:00,
2013-11-23 13:45:00,35.8,20.8,30.36,WNW,292,4.0,7.0,54,0.00,,---,0.00,VWS V14.01,2013-11-23 18:45:00,
2013-11-23 13:46:00,35.7,20.7,30.37,NW,315,4.0,8.0,54,0.00,,---,0.00,VWS V14.01,2013-11-23 18:46:00,
2013-11-23 13:47:00,35.7,20.3,30.36,WNW,292,5.0,9.0,53,0.00,,---,0.00,VWS V14.01,2013-11-23 18:47:00,
2013-11-23 13:48:00,35.6,20.6,30.36,WNW,292,3.0,8.0,54,0.00,,---,0.00,VWS V14.01,2013-11-23 18:48:00,
2013-11-23 13:49:00,35.5,20.5,30.36,NW,315,6.0,12.0,54,0.00,,---,0.00,VWS V14.01,2013-11-23 18:49:00,
2013-11-23 13:50:00,35.4,20.4,30.37,NW,315,5.0,14.0,54,0.00,,---,0.00,VWS V14.01,2013-11-23 18:50:00,
2013-11-23 13:51:00,35.3,20.8,30.37,NW,315,1.0,5.0,55,0.00,,---,0.00,VWS V14.01,2013-11-23 18:51:00,
2013-11-23 13:52:00,35.3,21.2,30.37,WNW,292,2.0,5.0,56,0.00,,---,0.00,VWS V14.01,2013-11-23 18:52:00,
2013-11-23 13:53:00,35.3,21.2,30.37,WNW,292,2.0,5.0,56,0.00,,---,0.00,VWS V14.01,2013-11-23 18:53:00,
2013-11-23 13:54:00,35.3,21.6,30.37,NW,315,4.0,11.0,57,0.00,,---,0.00,VWS V14.01,2013-11-23 18:54:00,
2013-11-23 13:55:00,35.3,21.6,30.36,NW,315,2.0,3.0,57,0.00,,---,0.00,VWS V14.01,2013-11-23 18:55:00,
2013-11-23 13:56:00,35.2,21.5,30.37,WNW,292,2.0,6.0,57,0.00,,---,0.00,VWS V14.01,2013-11-23 18:56:00,
2013-11-23 13:57:00,35.2,21.5,30.37,NW,315,3.0,5.0,57,0.00,,---,0.00,VWS V14.01,2013-11-23 18:57:00,
2013-11-23 13:58:00,35.2,21.5,30.37,NW,315,2.0,4.0,57,0.00,,---,0.00,VWS V14.01,2013-11-23 18:58:00,
2013-11-23 13:59:00,35.1,21.4,30.36,WNW,292,4.0,8.0,57,0.00,,---,0.00,VWS V14.01,2013-11-23 18:59:00,
2013-11-23 14:00:00,35.1,21.8,30.37,NW,315,3.0,7.0,58,0.00,,---,0.00,VWS V14.01,2013-11-23 19:00:00,
2013-11-23 14:01:00,35.1,21.8,30.37,WNW,292,3.0,7.0,58,0.00,,---,0.00,VWS V14.01,2013-11-23 19:01:00,
2013-11-23 14:02:00,35.2,21.9,30.36,WNW,292,3.0,8.0,58,0.00,,---,0.00,VWS V14.01,2013-11-23 19:02:00,
2013-11-23 14:03:00,35.2,22.3,30.36,WNW,292,3.0,7.0,59,0.00,,---,0.00,VWS V14.01,2013-11-23 19:03:00,
2013-11-23 14:04:00,35.2,21.9,30.36,WNW,292,3.0,5.0,58,0.00,,---,0.00,VWS V14.01,2013-11-23 19:04:00,
2013-11-23 14:05:00,35.3,22.4,30.36,WNW,292,5.0,11.0,59,0.00,,---,0.00,VWS V14.01,2013-11-23 19:05:00,
2013-11-23 14:06:00,35.3,22.0,30.36,NW,315,3.0,7.0,58,0.00,,---,0.00,VWS V14.01,2013-11-23 19:06:00,
2013-11-23 14:07:00,35.4,22.5,30.36,NW,315,3.0,9.0,59,0.00,,---,0.00,VWS V14.01,2013-11-23 19:07:00,
2013-11-23 14:08:00,35.4,22.1,30.36,NW,315,3.0,6.0,58,0.00,,---,0.00,VWS V14.01,2013-11-23 19:08:00,
2013-11-23 14:09:00,35.5,22.2,30.36,NW,315,5.0,9.0,58,0.00,,---,0.00,VWS V14.01,2013-11-23 19:09:00,
2013-11-23 14:10:00,35.5,21.8,30.36,NW,315,3.0,8.0,57,0.00,,---,0.00,VWS V14.01,2013-11-23 19:10:00,
2013-11-23 14:11:00,35.5,21.8,30.36,NW,315,3.0,8.0,57,0.00,,---,0.00,VWS V14.01,2013-11-23 19:11:00,
2013-11-23 14:12:00,35.5,21.8,30.36,NW,315,3.0,6.0,57,0.00,,---,0.00,VWS V14.01,2013-11-23 19:12:00,
2013-11-23 14:13:00,35.5,21.8,30.36,WNW,292,3.0,7.0,57,0.00,,---,0.00,VWS V14.01,2013-11-23 19:13:00,
2013-11-23 14:14:00,35.5,21.8,30.36,NW,315,3.0,5.0,57,0.00,,---,0.00,VWS V14.01,2013-11-23 19:14:00,
2013-11-23 14:15:00,35.5,21.8,30.36,NW,315,3.0,8.0,57,0.00,,---,0.00,VWS V14.01,2013-11-23 19:15:00,
2013-11-23 14:16:00,35.5,21.8,30.36,NNW,338,5.0,12.0,57,0.00,,---,0.00,VWS V14.01,2013-11-23 19:16:00,
2013-11-23 14:17:00,35.5,21.8,30.36,NW,315,2.0,5.0,57,0.00,,---,0.00,VWS V14.01,2013-11-23 19:17:00,
2013-11-23 14:18:00,35.6,22.3,30.36,West,270,3.0,5.0,58,0.00,,---,0.00,VWS V14.01,2013-11-23 19:18:00,
2013-11-23 14:19:00,35.7,22.8,30.36,NW,315,2.0,3.0,59,0.00,,---,0.00,VWS V14.01,2013-11-23 19:19:00,
2013-11-23 14:20:00,35.8,22.9,30.36,NW,315,5.0,7.0,59,0.00,,---,0.00,VWS V14.01,2013-11-23 19:20:00,
2013-11-23 14:21:00,35.9,23.0,30.36,NW,315,4.0,10.0,59,0.00,,---,0.00,VWS V14.01,2013-11-23 19:21:00,
2013-11-23 14:22:00,36.0,23.1,30.36,NW,315,2.0,4.0,59,0.00,,---,0.00,VWS V14.01,2013-11-23 19:22:00,
2013-11-23 14:23:00,36.1,23.2,30.36,NW,315,2.0,8.0,59,0.00,,---,0.00,VWS V14.01,2013-11-23 19:23:00,
2013-11-23 14:24:00,36.2,22.9,30.36,West,270,2.0,7.0,58,0.00,,---,0.00,VWS V14.01,2013-11-23 19:24:00,
2013-11-23 14:25:00,36.2,22.9,30.36,NW,315,4.0,7.0,58,0.00,,---,0.00,VWS V14.01,2013-11-23 19:25:00,
2013-11-23 14:26:00,36.2,22.9,30.36,WNW,292,3.0,7.0,58,0.00,,---,0.00,VWS V14.01,2013-11-23 19:26:00,
2013-11-23 14:27:00,36.2,22.9,30.36,NW,315,5.0,8.0,58,0.00,,---,0.00,VWS V14.01,2013-11-23 19:27:00,
2013-11-23 14:28:00,36.1,22.8,30.36,NNW,338,6.0,10.0,58,0.00,,---,0.00,VWS V14.01,2013-11-23 19:28:00,
2013-11-23 14:29:00,36.1,22.8,30.36,NW,315,2.0,5.0,58,0.00,,---,0.00,VWS V14.01,2013-11-23 19:29:00,
2013-11-23 14:30:00,36.0,23.1,30.36,WNW,292,2.0,3.0,59,0.00,,---,0.00,VWS V14.01,2013-11-23 19:30:00,
2013-11-23 14:31:00,35.9,23.0,30.36,NW,315,1.0,5.0,59,0.00,,---,0.00,VWS V14.01,2013-11-23 19:31:00,
2013-11-23 14:32:00,35.9,23.0,30.36,NW,315,0.0,3.0,59,0.00,,---,0.00,VWS V14.01,2013-11-23 19:32:00,
2013-11-23 14:33:00,35.9,23.4,30.36,WNW,292,3.0,9.0,60,0.00,,---,0.00,VWS V14.01,2013-11-23 19:33:00,
2013-11-23 14:34:00,35.9,23.0,30.36,NW,315,5.0,9.0,59,0.00,,---,0.00,VWS V14.01,2013-11-23 19:34:00,
2013-11-23 14:35:00,35.7,23.2,30.36,NW,315,2.0,5.0,60,0.00,,---,0.00,VWS V14.01,2013-11-23 19:35:00,
2013-11-23 14:36:00,35.7,22.8,30.37,NW,315,5.0,9.0,59,0.00,,---,0.00,VWS V14.01,2013-11-23 19:36:00,
2013-11-23 14:37:00,35.5,23.0,30.37,NNW,338,3.0,7.0,60,0.00,,---,0.00,VWS V14.01,2013-11-23 19:37:00,
2013-11-23 14:38:00,35.4,22.9,30.37,NW,315,1.0,3.0,60,0.00,,---,0.00,VWS V14.01,2013-11-23 19:38:00,
2013-11-23 14:39:00,35.3,23.2,30.37,WNW,292,3.0,6.0,61,0.00,,---,0.00,VWS V14.01,2013-11-23 19:39:00,
2013-11-23 14:40:00,35.2,23.1,30.37,NW,315,6.0,11.0,61,0.00,,---,0.00,VWS V14.01,2013-11-23 19:40:00,
2013-11-23 14:41:00,35.2,22.3,30.37,NW,315,8.0,12.0,59,0.00,,---,0.00,VWS V14.01,2013-11-23 19:41:00,
2013-11-23 14:42:00,35.0,22.1,30.37,NNW,338,5.0,13.0,59,0.00,,---,0.00,VWS V14.01,2013-11-23 19:42:00,
2013-11-23 14:43:00,34.8,22.0,30.37,NW,315,3.0,8.0,59,0.00,,---,0.00,VWS V14.01,2013-11-23 19:43:00,
2013-11-23 14:44:00,34.7,21.9,30.37,WNW,292,4.0,8.0,59,0.00,,---,0.00,VWS V14.01,2013-11-23 19:44:00,
2013-11-23 14:45:00,34.6,21.8,30.38,West,270,1.0,5.0,59,0.00,,---,0.00,VWS V14.01,2013-11-23 19:45:00,
2013-11-23 14:46:00,34.5,22.1,30.38,NNW,338,1.0,3.0,60,0.00,,---,0.00,VWS V14.01,2013-11-23 19:46:00,
2013-11-23 14:47:00,34.4,22.4,30.38,NNW,338,0.0,1.0,61,0.00,,---,0.00,VWS V14.01,2013-11-23 19:47:00,
2013-11-23 14:48:00,34.4,22.4,30.38,NNW,338,0.0,3.0,61,0.00,,---,0.00,VWS V14.01,2013-11-23 19:48:00,
2013-11-23 14:49:00,34.4,22.4,30.38,NW,315,2.0,6.0,61,0.00,,---,0.00,VWS V14.01,2013-11-23 19:49:00,
2013-11-23 14:50:00,34.4,22.0,30.37,NW,315,3.0,7.0,60,0.00,,---,0.00,VWS V14.01,2013-11-23 19:50:00,
2013-11-23 14:51:00,34.4,22.0,30.38,WNW,292,3.0,7.0,60,0.00,,---,0.00,VWS V14.01,2013-11-23 19:51:00,
2013-11-23 14:52:00,34.4,22.0,30.38,NW,315,3.0,5.0,60,0.00,,---,0.00,VWS V14.01,2013-11-23 19:52:00,
2013-11-23 14:53:00,34.3,21.9,30.38,NW,315,3.0,5.0,60,0.00,,---,0.00,VWS V14.01,2013-11-23 19:53:00,
2013-11-23 14:54:00,34.3,21.9,30.38,West,270,2.0,5.0,60,0.00,,---,0.00,VWS V14.01,2013-11-23 19:54:00,
2013-11-23 14:55:00,34.2,21.8,30.38,WNW,292,4.0,6.0,60,0.00,,---,0.00,VWS V14.01,2013-11-23 19:55:00,
2013-11-23 14:56:00,34.1,21.7,30.38,West,270,4.0,6.0,60,0.00,,---,0.00,VWS V14.01,2013-11-23 19:56:00,
2013-11-23 14:57:00,34.0,21.6,30.38,WNW,292,3.0,5.0,60,0.00,,---,0.00,VWS V14.01,2013-11-23 19:57:00,
2013-11-23 14:58:00,33.9,21.5,30.38,WNW,292,3.0,7.0,60,0.00,,---,0.00,VWS V14.01,2013-11-23 19:58:00,
2013-11-23 14:59:00,33.9,21.9,30.38,WNW,292,2.0,3.0,61,0.00,,---,0.00,VWS V14.01,2013-11-23 19:59:00,
2013-11-23 15:00:00,33.9,21.9,30.38,NNW,338,4.0,9.0,61,0.00,,---,0.00,VWS V14.01,2013-11-23 20:00:00,
2013-11-23 15:01:00,33.8,21.8,30.38,NW,315,1.0,3.0,61,0.00,,---,0.00,VWS V14.01,2013-11-23 20:01:00,
2013-11-23 15:02:00,33.8,21.8,30.38,WNW,292,3.0,7.0,61,0.00,,---,0.00,VWS V14.01,2013-11-23 20:02:00,
2013-11-23 15:03:00,33.8,21.8,30.38,NW,315,2.0,6.0,61,0.00,,---,0.00,VWS V14.01,2013-11-23 20:03:00,
2013-11-23 15:04:00,33.8,21.8,30.38,West,270,3.0,6.0,61,0.00,,---,0.00,VWS V14.01,2013-11-23 20:04:00,
2013-11-23 15:05:00,33.7,21.7,30.38,NW,315,3.0,5.0,61,0.00,,---,0.00,VWS V14.01,2013-11-23 20:05:00,
2013-11-23 15:06:00,33.7,21.7,30.38,NW,315,4.0,9.0,61,0.00,,---,0.00,VWS V14.01,2013-11-23 20:06:00,
2013-11-23 15:07:00,33.7,21.7,30.38,NW,315,2.0,5.0,61,0.00,,---,0.00,VWS V14.01,2013-11-23 20:07:00,
2013-11-23 15:08:00,33.7,22.1,30.38,NW,315,2.0,8.0,62,0.00,,---,0.00,VWS V14.01,2013-11-23 20:08:00,
2013-11-23 15:09:00,33.8,22.2,30.38,WNW,292,1.0,3.0,62,0.00,,---,0.00,VWS V14.01,2013-11-23 20:09:00,
2013-11-23 15:10:00,33.8,22.2,30.38,NW,315,2.0,5.0,62,0.00,,---,0.00,VWS V14.01,2013-11-23 20:10:00,
2013-11-23 15:11:00,33.9,21.9,30.38,West,270,3.0,8.0,61,0.00,,---,0.00,VWS V14.01,2013-11-23 20:11:00,
2013-11-23 15:12:00,33.9,21.9,30.39,WNW,292,4.0,15.0,61,0.00,,---,0.00,VWS V14.01,2013-11-23 20:12:00,
2013-11-23 15:13:00,33.9,21.5,30.39,WNW,292,4.0,15.0,60,0.00,,---,0.00,VWS V14.01,2013-11-23 20:13:00,
2013-11-23 15:14:00,33.9,21.5,30.39,NW,315,2.0,7.0,60,0.00,,---,0.00,VWS V14.01,2013-11-23 20:14:00,
2013-11-23 15:15:00,33.9,21.5,30.39,WNW,292,2.0,6.0,60,0.00,,---,0.00,VWS V14.01,2013-11-23 20:15:00,
2013-11-23 15:16:00,33.8,21.4,30.39,WNW,292,3.0,5.0,60,0.00,,---,0.00,VWS V14.01,2013-11-23 20:16:00,
2013-11-23 15:17:00,33.8,21.4,30.39,NW,315,5.0,12.0,60,0.00,,---,0.00,VWS V14.01,2013-11-23 20:17:00,
2013-11-23 15:18:00,33.7,20.9,30.39,WNW,292,6.0,9.0,59,0.00,,---,0.00,VWS V14.01,2013-11-23 20:18:00,
2013-11-23 15:19:00,33.7,20.9,30.39,NW,315,4.0,10.0,59,0.00,,---,0.00,VWS V14.01,2013-11-23 20:19:00,
2013-11-23 15:20:00,33.6,20.8,30.39,WNW,292,3.0,7.0,59,0.00,,---,0.00,VWS V14.01,2013-11-23 20:20:00,
2013-11-23 15:21:00,33.5,21.1,30.39,WNW,292,1.0,4.0,60,0.00,,---,0.00,VWS V14.01,2013-11-23 20:21:00,
2013-11-23 15:22:00,33.4,20.6,30.39,NW,315,6.0,10.0,59,0.00,,---,0.00,VWS V14.01,2013-11-23 20:22:00,
2013-11-23 15:23:00,33.4,20.6,30.39,NW,315,5.0,8.0,59,0.00,,---,0.00,VWS V14.01,2013-11-23 20:23:00,
2013-11-23 15:24:00,33.3,20.5,30.39,WNW,292,2.0,4.0,59,0.00,,---,0.00,VWS V14.01,2013-11-23 20:24:00,
2013-11-23 15:25:00,33.2,20.4,30.39,NNW,338,2.0,6.0,59,0.00,,---,0.00,VWS V14.01,2013-11-23 20:25:00,
2013-11-23 15:26:00,33.2,20.4,30.39,WNW,292,3.0,7.0,59,0.00,,---,0.00,VWS V14.01,2013-11-23 20:26:00,
2013-11-23 15:27:00,33.1,20.7,30.39,NW,315,3.0,7.0,60,0.00,,---,0.00,VWS V14.01,2013-11-23 20:27:00,
2013-11-23 15:28:00,33.0,20.6,30.39,NNW,338,3.0,5.0,60,0.00,,---,0.00,VWS V14.01,2013-11-23 20:28:00,
2013-11-23 15:29:00,33.0,20.6,30.39,NW,315,2.0,7.0,60,0.00,,---,0.00,VWS V14.01,2013-11-23 20:29:00,
2013-11-23 15:30:00,33.0,21.0,30.39,NNW,338,0.0,1.0,61,0.00,,---,0.00,VWS V14.01,2013-11-23 20:30:00,
2013-11-23 15:31:00,32.9,20.9,30.39,WNW,292,4.0,8.0,61,0.00,,---,0.00,VWS V14.01,2013-11-23 20:31:00,
2013-11-23 15:32:00,32.9,20.9,30.39,NW,315,2.0,4.0,61,0.00,,---,0.00,VWS V14.01,2013-11-23 20:32:00,
2013-11-23 15:33:00,32.9,20.9,30.39,WNW,292,1.0,5.0,61,0.00,,---,0.00,VWS V14.01,2013-11-23 20:33:00,
2013-11-23 15:34:00,32.9,20.9,30.39,WNW,292,0.0,2.0,61,0.00,,---,0.00,VWS V14.01,2013-11-23 20:34:00,
2013-11-23 15:35:00,32.8,20.9,30.39,NNW,338,5.0,8.0,61,0.00,,---,0.00,VWS V14.01,2013-11-23 20:35:00,
2013-11-23 15:36:00,32.8,20.9,30.39,NNW,338,1.0,3.0,61,0.00,,---,0.00,VWS V14.01,2013-11-23 20:36:00,
2013-11-23 15:37:00,32.8,20.9,30.40,West,270,1.0,4.0,61,0.00,,---,0.00,VWS V14.01,2013-11-23 20:37:00,
2013-11-23 15:38:00,32.8,20.9,30.40,NW,315,1.0,3.0,61,0.00,,---,0.00,VWS V14.01,2013-11-23 20:38:00,
2013-11-23 15:39:00,32.9,20.9,30.40,WNW,292,1.0,4.0,61,0.00,,---,0.00,VWS V14.01,2013-11-23 20:39:00,
2013-11-23 15:40:00,32.9,21.3,30.40,NNE,22,0.0,1.0,62,0.00,,---,0.00,VWS V14.01,2013-11-23 20:40:00,
2013-11-23 15:41:00,32.9,21.3,30.39,NW,315,7.0,14.0,62,0.00,,---,0.00,VWS V14.01,2013-11-23 20:41:00,
2013-11-23 15:42:00,32.9,20.9,30.40,NW,315,3.0,6.0,61,0.00,,---,0.00,VWS V14.01,2013-11-23 20:42:00,
2013-11-23 15:43:00,33.0,21.0,30.40,WNW,292,5.0,9.0,61,0.00,,---,0.00,VWS V14.01,2013-11-23 20:43:00,
2013-11-23 15:44:00,33.0,21.0,30.40,NW,315,2.0,7.0,61,0.00,,---,0.00,VWS V14.01,2013-11-23 20:44:00,
2013-11-23 15:45:00,33.0,21.0,30.40,NW,315,1.0,4.0,61,0.00,,---,0.00,VWS V14.01,2013-11-23 20:45:00,
2013-11-23 15:46:00,33.0,21.0,30.40,NW,315,4.0,10.0,61,0.00,,---,0.00,VWS V14.01,2013-11-23 20:46:00,
2013-11-23 15:47:00,33.0,21.0,30.40,NNW,338,3.0,15.0,61,0.00,,---,0.00,VWS V15.00,2013-11-23 20:47:00,
2013-11-23 15:48:00,33.0,20.6,30.40,NW,315,6.0,11.0,60,0.00,,---,0.00,VWS V15.00,2013-11-23 20:48:00,
2013-11-23 15:49:00,33.0,20.2,30.40,North,0,3.0,6.0,59,0.00,,---,0.00,VWS V15.00,2013-11-23 20:49:00,
2013-11-23 15:50:00,32.9,20.2,30.40,NW,315,5.0,8.0,59,0.00,,---,0.00,VWS V15.00,2013-11-23 20:50:00,
2013-11-23 15:51:00,32.9,19.8,30.40,NW,315,3.0,7.0,58,0.00,,---,0.00,VWS V15.00,2013-11-23 20:51:00,
2013-11-23 15:52:00,32.8,19.7,30.40,NNW,338,2.0,5.0,58,0.00,,---,0.00,VWS V15.00,2013-11-23 20:52:00,
2013-11-23 15:53:00,32.8,20.1,30.40,NW,315,2.0,7.0,59,0.00,,---,0.00,VWS V15.00,2013-11-23 20:53:00,
2013-11-23 15:54:00,32.7,20.0,30.40,WNW,292,1.0,3.0,59,0.00,,---,0.00,VWS V15.00,2013-11-23 20:54:00,
2013-11-23 15:55:00,32.6,19.9,30.40,WNW,292,2.0,4.0,59,0.00,,---,0.00,VWS V15.00,2013-11-23 20:55:00,
2013-11-23 15:56:00,32.6,19.9,30.40,WNW,292,2.0,4.0,59,0.00,,---,0.00,VWS V14.01,2013-11-23 20:56:00,
2013-11-23 15:57:00,32.5,19.8,30.40,North,350,1.0,4.0,59,0.00,,---,0.00,VWS V15.00,2013-11-23 20:57:00,
2013-11-23 15:58:00,32.5,19.8,30.40,NW,319,8.0,8.0,59,0.00,,---,0.00,VWS V15.00,2013-11-23 20:58:00,
2013-11-23 15:59:00,32.5,19.8,30.41,NNW,336,1.0,7.0,59,0.00,,---,0.00,VWS V15.00,2013-11-23 20:59:00,
2013-11-23 16:00:00,32.4,19.7,30.40,WNW,283,3.0,3.0,59,0.00,,---,0.00,VWS V15.00,2013-11-23 21:00:00,
2013-11-23 16:01:00,32.4,19.7,30.40,North,349,0.0,6.0,59,0.00,,---,0.00,VWS V15.00,2013-11-23 21:01:00,
2013-11-23 16:02:00,32.4,20.1,30.41,WNW,302,6.0,7.0,60,0.00,,---,0.00,VWS V14.01,2013-11-23 21:02:00,
2013-11-23 16:03:00,32.3,19.6,30.41,WNW,301,6.0,8.0,59,0.00,,---,0.00,VWS V15.00,2013-11-23 21:03:00,
2013-11-23 16:04:00,32.3,19.6,30.41,WNW,296,4.0,6.0,59,0.00,,---,0.00,VWS V15.00,2013-11-23 21:04:00,
2013-11-23 16:05:00,32.4,19.7,30.41,West,278,7.0,7.0,59,0.00,,---,0.00,VWS V15.00,2013-11-23 21:05:00,
2013-11-23 16:06:00,32.4,19.7,30.41,WNW,292,2.0,7.0,59,0.00,,---,0.00,VWS V15.00,2013-11-23 21:06:00,
2013-11-23 16:07:00,32.5,19.8,30.41,WNW,303,4.0,13.0,59,0.00,,---,0.00,VWS V14.01,2013-11-23 21:07:00,
2013-11-23 16:08:00,32.5,19.8,30.41,WNW,296,2.0,7.0,59,0.00,,---,0.00,VWS V15.00,2013-11-23 21:08:00,
2013-11-23 16:09:00,32.6,19.5,30.41,NW,309,2.0,7.0,58,0.00,,---,0.00,VWS V15.00,2013-11-23 21:09:00,
2013-11-23 16:10:00,32.6,19.9,30.41,WNW,298,5.0,5.0,59,0.00,,---,0.00,VWS V15.00,2013-11-23 21:10:00,
2013-11-23 16:11:00,32.7,20.0,30.41,WNW,292,1.0,13.0,59,0.00,,---,0.00,VWS V15.00,2013-11-23 21:11:00,
2013-11-23 16:12:00,32.8,20.1,30.41,WNW,293,5.0,5.0,59,0.00,,---,0.00,VWS V14.01,2013-11-23 21:12:00,
2013-11-23 16:13:00,32.8,19.7,30.41,NW,306,3.0,10.0,58,0.00,,---,0.00,VWS V15.00,2013-11-23 21:13:00,
2013-11-23 16:14:00,32.8,19.7,30.41,NNW,328,0.0,9.0,58,0.00,,---,0.00,VWS V15.00,2013-11-23 21:14:00,
2013-11-23 16:15:00,32.8,20.1,30.41,NW,321,0.0,4.0,59,0.00,,---,0.00,VWS V15.00,2013-11-23 21:15:00,
2013-11-23 16:16:00,32.8,20.1,30.41,NNW,343,3.0,9.0,59,0.00,,---,0.00,VWS V15.00,2013-11-23 21:16:00,
2013-11-23 16:17:00,32.7,20.0,30.41,WNW,292,6.0,7.0,59,0.00,,---,0.00,VWS V15.00,2013-11-23 21:17:00,
2013-11-23 16:18:00,32.7,20.0,30.41,ENE,69,3.0,7.0,59,0.00,,---,0.00,VWS V14.01,2013-11-23 21:18:00,
2013-11-23 16:19:00,32.6,19.9,30.41,WNW,295,0.0,9.0,59,0.00,,---,0.00,VWS V15.00,2013-11-23 21:19:00,
2013-11-23 16:20:00,32.5,19.4,30.41,NNW,344,4.0,7.0,58,0.00,,---,0.00,VWS V15.00,2013-11-23 21:20:00,
2013-11-23 16:21:00,32.4,19.3,30.41,NW,322,3.0,5.0,58,0.00,,---,0.00,VWS V15.00,2013-11-23 21:21:00,
2013-11-23 16:22:00,32.3,19.2,30.42,NNW,337,2.0,7.0,58,0.00,,---,0.00,VWS V15.00,2013-11-23 21:22:00,
2013-11-23 16:23:00,32.2,19.1,30.42,NNW,346,0.0,3.0,58,0.00,,---,0.00,VWS V14.01,2013-11-23 21:23:00,
2013-11-23 16:24:00,32.2,19.1,30.42,NW,321,3.0,6.0,58,0.00,,---,0.00,VWS V15.00,2013-11-23 21:24:00,
2013-11-23 16:25:00,32.1,19.0,30.42,SSE,153,2.0,4.0,58,0.00,,---,0.00,VWS V15.00,2013-11-23 21:25:00,
2013-11-23 16:26:00,32.0,18.9,30.42,North,355,6.0,7.0,58,0.00,,---,0.00,VWS V15.00,2013-11-23 21:26:00,
2013-11-23 16:27:00,32.0,18.9,30.42,NNW,327,6.0,12.0,58,0.00,,---,0.00,VWS V15.00,2013-11-23 21:27:00,
2013-11-23 16:28:00,31.9,18.4,30.42,WNW,300,7.0,8.0,57,0.00,,---,0.00,VWS V14.01,2013-11-23 21:28:00,
2013-11-23 16:29:00,31.8,18.7,30.42,NW,318,5.0,7.0,58,0.00,,---,0.00,VWS V15.00,2013-11-23 21:29:00,
2013-11-23 16:30:00,31.7,18.6,30.42,NW,319,0.0,7.0,58,0.00,,---,0.00,VWS V15.00,2013-11-23 21:30:00,
2013-11-23 16:31:00,31.7,18.6,30.42,North,355,3.0,11.0,58,0.00,,---,0.00,VWS V15.00,2013-11-23 21:31:00,
2013-11-23 16:32:00,31.6,18.5,30.42,NW,309,8.0,8.0,58,0.00,,---,0.00,VWS V15.00,2013-11-23 21:32:00,
2013-11-23 16:33:00,31.6,18.5,30.43,NNW,330,1.0,6.0,58,0.00,,---,0.00,VWS V15.00,2013-11-23 21:33:00,
2013-11-23 16:34:00,31.6,18.9,30.43,NW,311,4.0,10.0,59,0.00,,---,0.00,VWS V14.01,2013-11-23 21:34:00,
2013-11-23 16:35:00,31.5,18.8,30.43,North,355,6.0,6.0,59,0.00,,---,0.00,VWS V15.00,2013-11-23 21:35:00,
2013-11-23 16:36:00,31.5,18.8,30.43,NNW,344,4.0,8.0,59,0.00,,---,0.00,VWS V15.00,2013-11-23 21:36:00,
2013-11-23 16:37:00,31.5,18.8,30.43,WNW,288,4.0,8.0,59,0.00,,---,0.00,VWS V15.00,2013-11-23 21:37:00,
2013-11-23 16:38:00,31.5,18.8,30.43,NW,323,8.0,8.0,59,0.00,,---,0.00,VWS V15.00,2013-11-23 21:38:00,
2013-11-23 16:39:00,31.4,18.4,30.43,NW,313,12.0,12.0,58,0.00,,---,0.00,VWS V15.00,2013-11-23 21:39:00,
2013-11-23 16:40:00,31.4,18.4,30.43,WNW,286,0.0,8.0,58,0.00,,---,0.00,VWS V14.01,2013-11-23 21:40:00,
2013-11-23 16:41:00,31.4,18.4,30.43,NW,312,4.0,6.0,58,0.00,,---,0.00,VWS V15.00,2013-11-23 21:41:00,
2013-11-23 16:42:00,31.3,18.2,30.43,NNW,328,1.0,5.0,58,0.00,,---,0.00,VWS V15.00,2013-11-23 21:42:00,
2013-11-23 16:43:00,31.3,18.6,30.43,NNW,331,7.0,8.0,59,0.00,,---,0.00,VWS V15.00,2013-11-23 21:43:00,
2013-11-23 16:44:00,31.2,17.8,30.43,WNW,298,7.0,14.0,57,0.00,,---,0.00,VWS V15.00,2013-11-23 21:44:00,
2013-11-23 16:45:00,31.2,17.8,30.43,North,355,10.0,12.0,57,0.00,,---,0.00,VWS V15.00,2013-11-23 21:45:00,
2013-11-23 16:46:00,31.1,17.7,30.43,NNW,336,0.0,10.0,57,0.00,,---,0.00,VWS V14.01,2013-11-23 21:46:00,
2013-11-23 16:47:00,31.0,18.0,30.43,North,355,2.0,8.0,58,0.00,,---,0.00,VWS V15.00,2013-11-23 21:47:00,
2013-11-23 16:48:00,31.0,18.0,30.43,WNW,289,0.0,3.0,58,0.00,,---,0.00,VWS V15.00,2013-11-23 21:48:00,
2013-11-23 16:49:00,31.0,18.0,30.43,WNW,299,2.0,2.0,58,0.00,,---,0.00,VWS V15.00,2013-11-23 21:49:00,
2013-11-23 16:50:00,31.0,18.0,30.43,NW,323,0.0,6.0,58,0.00,,---,0.00,VWS V15.00,2013-11-23 21:50:00,
2013-11-23 16:51:00,30.9,17.9,30.43,WNW,284,0.0,6.0,58,0.00,,---,0.00,VWS V14.01,2013-11-23 21:51:00,
2013-11-23 16:52:00,30.8,17.8,30.43,NW,306,3.0,7.0,58,0.00,,---,0.00,VWS V15.00,2013-11-23 21:52:00,
2013-11-23 16:53:00,30.8,17.8,30.43,NNW,329,4.0,4.0,58,0.00,,---,0.00,VWS V15.00,2013-11-23 21:53:00,
2013-11-23 16:54:00,30.8,17.8,30.43,NNW,337,3.0,6.0,58,0.00,,---,0.00,VWS V15.00,2013-11-23 21:54:00,
2013-11-23 16:55:00,30.7,18.1,30.43,North,350,7.0,7.0,59,0.00,,---,0.00,VWS V15.00,2013-11-23 21:55:00,
2013-11-23 16:56:00,30.7,18.1,30.43,WNW,302,4.0,9.0,59,0.00,,---,0.00,VWS V14.01,2013-11-23 21:56:00,
2013-11-23 16:57:00,30.6,18.0,30.43,NW,311,0.0,6.0,59,0.00,,---,0.00,VWS V15.00,2013-11-23 21:57:00,
2013-11-23 16:58:00,30.6,18.0,30.43,NW,305,1.0,6.0,59,0.00,,---,0.00,VWS V15.00,2013-11-23 21:58:00,
2013-11-23 16:59:00,30.5,17.9,30.43,WNW,298,3.0,8.0,59,0.00,,---,0.00,VWS V15.00,2013-11-23 21:59:00,
2013-11-23 17:00:00,30.5,18.3,30.43,WNW,301,3.0,6.0,60,0.00,,---,0.00,VWS V15.00,2013-11-23 22:00:00,
2013-11-23 17:01:00,30.5,18.3,30.43,WNW,288,2.0,8.0,60,0.00,,---,0.00,VWS V15.00,2013-11-23 22:01:00,
2013-11-23 17:02:00,30.5,18.3,30.43,NW,310,5.0,7.0,60,0.00,,---,0.00,VWS V14.01,2013-11-23 22:02:00,
2013-11-23 17:03:00,30.4,18.2,30.43,NNW,330,1.0,5.0,60,0.00,,---,0.00,VWS V15.00,2013-11-23 22:03:00,
2013-11-23 17:04:00,30.4,18.2,30.43,NW,325,5.0,8.0,60,0.00,,---,0.00,VWS V15.00,2013-11-23 22:04:00,
2013-11-23 17:05:00,30.3,18.1,30.43,WNW,300,2.0,7.0,60,0.00,,---,0.00,VWS V15.00,2013-11-23 22:05:00,
2013-11-23 17:06:00,30.3,18.5,30.43,NNW,336,4.0,4.0,61,0.00,,---,0.00,VWS V15.00,2013-11-23 22:06:00,
2013-11-23 17:07:00,30.3,18.5,30.43,NW,310,0.0,7.0,61,0.00,,---,0.00,VWS V14.01,2013-11-23 22:07:00,
2013-11-23 17:08:00,30.3,18.9,30.43,NNW,341,2.0,4.0,62,0.00,,---,0.00,VWS V15.00,2013-11-23 22:08:00,
2013-11-23 17:09:00,30.3,18.9,30.43,NNW,338,0.0,2.0,62,0.00,,---,0.00,VWS V15.00,2013-11-23 22:09:00,
2013-11-23 17:10:00,30.3,18.9,30.43,NNW,332,0.0,1.0,62,0.00,,---,0.00,VWS V15.00,2013-11-23 22:10:00,
2013-11-23 17:11:00,30.3,18.9,30.43,West,277,3.0,3.0,62,0.00,,---,0.00,VWS V15.00,2013-11-23 22:11:00,
2013-11-23 17:12:00,30.3,18.9,30.43,NW,308,0.0,7.0,62,0.00,,---,0.00,VWS V15.00,2013-11-23 22:12:00,
2013-11-23 17:13:00,30.3,18.9,30.44,NW,309,0.0,1.0,62,0.00,,---,0.00,VWS V14.01,2013-11-23 22:13:00,
2013-11-23 17:14:00,30.2,18.8,30.43,NNW,345,0.0,5.0,62,0.00,,---,0.00,VWS V15.00,2013-11-23 22:14:00,
2013-11-23 17:15:00,30.3,18.9,30.43,NNW,338,1.0,3.0,62,0.00,,---,0.00,VWS V15.00,2013-11-23 22:15:00,
2013-11-23 17:16:00,30.2,18.8,30.43,NW,325,0.0,2.0,62,0.00,,---,0.00,VWS V15.00,2013-11-23 22:16:00,
2013-11-23 17:17:00,30.3,18.9,30.43,NW,313,0.0,5.0,62,0.00,,---,0.00,VWS V15.00,2013-11-23 22:17:00,
2013-11-23 17:18:00,30.2,19.1,30.43,NW,323,3.0,5.0,63,0.00,,---,0.00,VWS V15.00,2013-11-23 22:18:00,
2013-11-23 17:19:00,30.3,18.9,30.43,WNW,302,1.0,4.0,62,0.00,,---,0.00,VWS V14.01,2013-11-23 22:19:00,
2013-11-23 17:20:00,30.2,18.8,30.43,West,278,3.0,12.0,62,0.00,,---,0.00,VWS V15.00,2013-11-23 22:20:00,
2013-11-23 17:21:00,30.2,18.8,30.44,NW,304,4.0,9.0,62,0.00,,---,0.00,VWS V15.00,2013-11-23 22:21:00,
2013-11-23 17:22:00,30.2,18.4,30.44,NW,314,2.0,5.0,61,0.00,,---,0.00,VWS V15.00,2013-11-23 22:22:00,
2013-11-23 17:23:00,30.2,18.4,30.44,NW,318,0.0,2.0,61,0.00,,---,0.00,VWS V15.00,2013-11-23 22:23:00,
2013-11-23 17:24:00,30.2,18.4,30.44,WNW,289,5.0,8.0,61,0.00,,---,0.00,VWS V14.01,2013-11-23 22:24:00,
2013-11-23 17:25:00,30.1,18.3,30.44,North,360,3.0,9.0,61,0.00,,---,0.00,VWS V15.00,2013-11-23 22:25:00,
2013-11-23 17:26:00,30.1,18.3,30.44,NW,319,4.0,6.0,61,0.00,,---,0.00,VWS V15.00,2013-11-23 22:26:00,
2013-11-23 17:27:00,30.1,17.9,30.44,North,355,3.0,7.0,60,0.00,,---,0.00,VWS V15.00,2013-11-23 22:27:00,
2013-11-23 17:28:00,30.1,17.9,30.44,NW,322,3.0,5.0,60,0.00,,---,0.00,VWS V15.00,2013-11-23 22:28:00,
2013-11-23 17:29:00,30.1,17.9,30.44,NW,315,7.0,9.0,60,0.00,,---,0.00,VWS V15.00,2013-11-23 22:29:00,
2013-11-23 17:30:00,30.1,17.9,30.44,West,281,0.0,8.0,60,0.00,,---,0.00,VWS V14.01,2013-11-23 22:30:00,
2013-11-23 17:31:00,30.1,17.5,30.44,North,349,4.0,5.0,59,0.00,,---,0.00,VWS V15.00,2013-11-23 22:31:00,
2013-11-23 17:32:00,30.1,17.5,30.44,NW,312,3.0,7.0,59,0.00,,---,0.00,VWS V15.00,2013-11-23 22:32:00,
2013-11-23 17:33:00,30.1,17.5,30.44,North,360,1.0,3.0,59,0.00,,---,0.00,VWS V15.00,2013-11-23 22:33:00,
2013-11-23 17:34:00,30.1,17.5,30.44,North,11,1.0,1.0,59,0.00,,---,0.00,VWS V15.00,2013-11-23 22:34:00,
2013-11-23 17:35:00,30.1,17.5,30.44,North,11,1.0,1.0,59,0.00,,---,0.00,VWS V14.01,2013-11-23 22:35:00,
2013-11-23 17:36:00,30.0,17.4,30.44,NNW,348,5.0,7.0,59,0.00,,---,0.00,VWS V15.00,2013-11-23 22:36:00,
2013-11-23 17:37:00,30.0,17.0,30.44,WNW,286,4.0,7.0,58,0.00,,---,0.00,VWS V15.00,2013-11-23 22:37:00,
2013-11-23 17:38:00,30.0,17.0,30.44,NW,325,3.0,15.0,58,0.00,,---,0.00,VWS V15.00,2013-11-23 22:38:00,
2013-11-23 17:39:00,29.9,16.5,30.44,NW,325,9.0,9.0,57,0.00,,---,0.00,VWS V15.00,2013-11-23 22:39:00,
2013-11-23 17:40:00,29.9,16.5,30.44,WNW,294,4.0,9.0,57,0.00,,---,0.00,VWS V14.01,2013-11-23 22:40:00,
2013-11-23 17:41:00,29.9,16.9,30.44,West,275,5.0,9.0,58,0.00,,---,0.00,VWS V15.00,2013-11-23 22:41:00,
2013-11-23 17:42:00,29.9,16.9,30.44,NW,305,2.0,7.0,58,0.00,,---,0.00,VWS V15.00,2013-11-23 22:42:00,
2013-11-23 17:43:00,29.9,16.9,30.44,NW,311,4.0,10.0,58,0.00,,---,0.00,VWS V15.00,2013-11-23 22:43:00,
2013-11-23 17:44:00,29.8,16.8,30.44,WNW,299,0.0,10.0,58,0.00,,---,0.00,VWS V15.00,2013-11-23 22:44:00,
2013-11-23 17:45:00,29.8,16.8,30.44,NW,316,2.0,8.0,58,0.00,,---,0.00,VWS V15.00,2013-11-23 22:45:00,
2013-11-23 17:46:00,29.8,16.8,30.44,NW,313,7.0,10.0,58,0.00,,---,0.00,VWS V14.01,2013-11-23 22:46:00,
2013-11-23 17:47:00,29.7,16.8,30.44,NW,304,6.0,8.0,58,0.00,,---,0.00,VWS V15.00,2013-11-23 22:47:00,
2013-11-23 17:48:00,29.7,16.8,30.44,NW,319,1.0,7.0,58,0.00,,---,0.00,VWS V15.00,2013-11-23 22:48:00,
2013-11-23 17:49:00,29.7,16.8,30.44,NW,310,0.0,6.0,58,0.00,,---,0.00,VWS V15.00,2013-11-23 22:49:00,
2013-11-23 17:50:00,29.6,16.6,30.44,NW,306,1.0,10.0,58,0.00,,---,0.00,VWS V15.00,2013-11-23 22:50:00,
2013-11-23 17:51:00,29.6,17.0,30.44,NNW,342,1.0,3.0,59,0.00,,---,0.00,VWS V14.01,2013-11-23 22:51:00,
2013-11-23 17:52:00,29.6,17.0,30.44,NW,321,3.0,9.0,59,0.00,,---,0.00,VWS V15.00,2013-11-23 22:52:00,
2013-11-23 17:53:00,29.6,17.0,30.44,NW,308,4.0,10.0,59,0.00,,---,0.00,VWS V15.00,2013-11-23 22:53:00,
2013-11-23 17:54:00,29.5,17.0,30.44,WNW,291,2.0,7.0,59,0.00,,---,0.00,VWS V15.00,2013-11-23 22:54:00,
2013-11-23 17:55:00,29.5,17.0,30.45,NW,312,6.0,7.0,59,0.00,,---,0.00,VWS V15.00,2013-11-23 22:55:00,
2013-11-23 17:56:00,29.5,17.0,30.45,NNW,339,5.0,6.0,59,0.00,,---,0.00,VWS V15.00,2013-11-23 22:56:00,
2013-11-23 17:57:00,29.5,17.3,30.45,NNW,333,0.0,7.0,60,0.00,,---,0.00,VWS V14.01,2013-11-23 22:57:00,
2013-11-23 17:58:00,29.4,17.2,30.45,NNW,336,3.0,4.0,60,0.00,,---,0.00,VWS V15.00,2013-11-23 22:58:00,
2013-11-23 17:59:00,29.4,17.2,30.45,NNW,337,0.0,4.0,60,0.00,,---,0.00,VWS V15.00,2013-11-23 22:59:00,
2013-11-23 18:00:00,29.4,17.2,30.45,NNW,338,0.0,5.0,60,0.00,,---,0.00,VWS V15.00,2013-11-23 23:00:00,
2013-11-23 18:01:00,29.4,17.2,30.45,NNW,341,4.0,4.0,60,0.00,,---,0.00,VWS V15.00,2013-11-23 23:01:00,
2013-11-23 18:02:00,29.4,17.6,30.45,NW,326,9.0,9.0,61,0.00,,---,0.00,VWS V15.00,2013-11-23 23:02:00,
2013-11-23 18:03:00,29.4,17.6,30.45,NNW,336,6.0,11.0,61,0.00,,---,0.00,VWS V14.01,2013-11-23 23:03:00,
2013-11-23 18:04:00,29.4,17.6,30.45,NNW,331,3.0,6.0,61,0.00,,---,0.00,VWS V15.00,2013-11-23 23:04:00,
2013-11-23 18:05:00,29.4,17.6,30.45,NW,315,6.0,9.0,61,0.00,,---,0.00,VWS V15.00,2013-11-23 23:05:00,
2013-11-23 18:06:00,29.4,18.0,30.45,NNW,327,0.0,6.0,62,0.00,,---,0.00,VWS V15.00,2013-11-23 23:06:00,
2013-11-23 18:07:00,29.4,18.0,30.45,North,355,6.0,7.0,62,0.00,,---,0.00,VWS V15.00,2013-11-23 23:07:00,
2013-11-23 18:08:00,29.4,18.4,30.45,NNW,329,3.0,6.0,63,0.00,,---,0.00,VWS V14.01,2013-11-23 23:08:00,
2013-11-23 18:09:00,29.4,18.4,30.45,NNW,341,4.0,7.0,63,0.00,,---,0.00,VWS V15.00,2013-11-23 23:09:00,
2013-11-23 18:10:00,29.4,18.4,30.45,NNW,329,4.0,15.0,63,0.00,,---,0.00,VWS V14.01,2013-11-23 23:10:00,
2013-11-23 18:11:00,29.4,18.0,30.45,WNW,300,2.0,7.0,62,0.00,,---,0.00,VWS V15.00,2013-11-23 23:11:00,
2013-11-23 18:12:00,29.4,18.0,30.45,NW,322,0.0,4.0,62,0.00,,---,0.00,VWS V15.00,2013-11-23 23:12:00,
2013-11-23 18:13:00,29.3,17.9,30.45,NNW,330,4.0,6.0,62,0.00,,---,0.00,VWS V15.00,2013-11-23 23:13:00,
2013-11-23 18:14:00,29.3,17.9,30.45,WNW,298,3.0,7.0,62,0.00,,---,0.00,VWS V15.00,2013-11-23 23:14:00,
2013-11-23 18:15:00,29.3,17.9,30.45,WNW,294,1.0,9.0,62,0.00,,---,0.00,VWS V14.01,2013-11-23 23:15:00,
2013-11-23 18:16:00,29.3,17.9,30.45,WNW,296,0.0,5.0,62,0.00,,---,0.00,VWS V15.00,2013-11-23 23:16:00,
2013-11-23 18:17:00,29.3,17.9,30.46,NW,306,3.0,7.0,62,0.00,,---,0.00,VWS V15.00,2013-11-23 23:17:00,
2013-11-23 18:18:00,29.2,17.4,30.46,NNW,343,5.0,11.0,61,0.00,,---,0.00,VWS V15.00,2013-11-23 23:18:00,
2013-11-23 18:19:00,29.3,17.5,30.46,WSW,240,3.0,8.0,61,0.00,,---,0.00,VWS V15.00,2013-11-23 23:19:00,
2013-11-23 18:20:00,29.2,17.4,30.46,NW,311,4.0,4.0,61,0.00,,---,0.00,VWS V14.01,2013-11-23 23:20:00,
2013-11-23 18:21:00,29.2,17.4,30.46,NNW,337,1.0,7.0,61,0.00,,---,0.00,VWS V15.00,2013-11-23 23:21:00,
2013-11-23 18:22:00,29.2,17.4,30.45,NNW,331,3.0,7.0,61,0.00,,---,0.00,VWS V15.00,2013-11-23 23:22:00,
2013-11-23 18:23:00,29.2,17.4,30.46,NNW,346,3.0,5.0,61,0.00,,---,0.00,VWS V15.00,2013-11-23 23:23:00,
2013-11-23 18:24:00,29.2,17.4,30.46,NNW,329,5.0,7.0,61,0.00,,---,0.00,VWS V15.00,2013-11-23 23:24:00,
2013-11-23 18:25:00,29.2,17.4,30.46,NW,304,0.0,7.0,61,0.00,,---,0.00,VWS V14.01,2013-11-23 23:25:00,
2013-11-23 18:26:00,29.1,17.3,30.46,WNW,282,2.0,5.0,61,0.00,,---,0.00,VWS V15.00,2013-11-23 23:26:00,
2013-11-23 18:27:00,29.2,17.8,30.46,NW,319,2.0,4.0,62,0.00,,---,0.00,VWS V15.00,2013-11-23 23:27:00,
2013-11-23 18:28:00,29.1,17.7,30.46,NNW,342,6.0,8.0,62,0.00,,---,0.00,VWS V15.00,2013-11-23 23:28:00,
2013-11-23 18:29:00,29.1,17.7,30.46,NW,318,4.0,6.0,62,0.00,,---,0.00,VWS V15.00,2013-11-23 23:29:00,
2013-11-23 18:30:00,29.1,17.7,30.46,NW,312,4.0,7.0,62,0.00,,---,0.00,VWS V15.00,2013-11-23 23:30:00,
2013-11-23 18:31:00,29.1,17.7,30.46,WNW,296,2.0,4.0,62,0.00,,---,0.00,VWS V14.01,2013-11-23 23:31:00,
2013-11-23 18:32:00,29.1,18.1,30.46,NW,323,0.0,3.0,63,0.00,,---,0.00,VWS V15.00,2013-11-23 23:32:00,
2013-11-23 18:33:00,29.1,18.1,30.47,WNW,282,0.0,5.0,63,0.00,,---,0.00,VWS V15.00,2013-11-23 23:33:00,
2013-11-23 18:34:00,29.0,18.0,30.47,NNW,338,8.0,11.0,63,0.00,,---,0.00,VWS V15.00,2013-11-23 23:34:00,
2013-11-23 18:35:00,29.0,18.0,30.47,NNW,338,8.0,8.0,63,0.00,,---,0.00,VWS V15.00,2013-11-23 23:35:00,
2013-11-23 18:36:00,29.0,18.0,30.47,NNW,338,8.0,8.0,63,0.00,,---,0.00,VWS V14.01,2013-11-23 23:36:00,
2013-11-23 18:37:00,28.8,19.9,30.47,NNE,18,4.0,8.0,69,0.00,,---,0.00,VWS V15.00,2013-11-23 23:37:00,
2013-11-23 18:38:00,28.7,20.2,30.47,NNW,335,11.0,12.0,70,0.00,,---,0.00,VWS V15.00,2013-11-23 23:38:00,
2013-11-23 18:39:00,28.6,20.4,30.47,North,355,0.0,11.0,71,0.00,,---,0.00,VWS V15.00,2013-11-23 23:39:00,
2013-11-23 18:40:00,28.6,20.7,30.47,NNW,333,1.0,10.0,72,0.00,,---,0.00,VWS V15.00,2013-11-23 23:40:00,
2013-11-23 18:41:00,28.5,21.0,30.47,NW,309,5.0,8.0,73,0.00,,---,0.00,VWS V14.01,2013-11-23 23:41:00,
2013-11-23 18:42:00,28.4,20.9,30.47,North,11,3.0,8.0,73,0.00,,---,0.00,VWS V15.00,2013-11-23 23:42:00,
2013-11-23 18:43:00,28.3,20.8,30.47,NNW,344,8.0,9.0,73,0.00,,---,0.00,VWS V15.00,2013-11-23 23:43:00,
2013-11-23 18:44:00,28.2,20.7,30.47,North,360,9.0,9.0,73,0.00,,---,0.00,VWS V15.00,2013-11-23 23:44:00,
2013-11-23 18:45:00,28.1,20.6,30.47,NNW,336,3.0,10.0,73,0.00,,---,0.00,VWS V15.00,2013-11-23 23:45:00,
2013-11-23 18:46:00,28.0,20.5,30.47,North,355,2.0,6.0,73,0.00,,---,0.00,VWS V14.01,2013-11-23 23:46:00,
2013-11-23 18:47:00,28.0,20.8,30.47,NNW,338,4.0,9.0,74,0.00,,---,0.00,VWS V15.00,2013-11-23 23:47:00,
2013-11-23 18:48:00,27.9,20.7,30.48,NW,317,6.0,14.0,74,0.00,,---,0.00,VWS V15.00,2013-11-23 23:48:00,
2013-11-23 18:49:00,27.9,20.4,30.47,North,360,9.0,12.0,73,0.00,,---,0.00,VWS V15.00,2013-11-23 23:49:00,
2013-11-23 18:50:00,27.8,20.3,30.48,NNW,327,3.0,13.0,73,0.00,,---,0.00,VWS V15.00,2013-11-23 23:50:00,
2013-11-23 18:51:00,27.8,19.6,30.48,NNW,329,4.0,8.0,71,0.00,,---,0.00,VWS V15.00,2013-11-23 23:51:00,
2013-11-23 18:52:00,27.8,19.6,30.48,NNW,331,7.0,7.0,71,0.00,,---,0.00,VWS V14.01,2013-11-23 23:52:00,
2013-11-23 18:53:00,27.8,19.3,30.48,North,9,9.0,12.0,70,0.00,,---,0.00,VWS V15.00,2013-11-23 23:53:00,
2013-11-23 18:54:00,27.7,18.9,30.47,NNE,31,7.0,9.0,69,0.00,,---,0.00,VWS V15.00,2013-11-23 23:54:00,
2013-11-23 18:55:00,27.7,18.5,30.48,NE,35,7.0,16.0,68,0.00,,---,0.00,VWS V15.00,2013-11-23 23:55:00,
2013-11-23 18:56:00,27.7,18.2,30.48,NNW,333,2.0,12.0,67,0.00,,---,0.00,VWS V15.00,2013-11-23 23:56:00,
2013-11-23 18:57:00,27.6,18.1,30.48,NW,325,5.0,10.0,67,0.00,,---,0.00,VWS V14.01,2013-11-23 23:57:00,
2013-11-23 18:58:00,27.6,18.1,30.48,NNE,16,8.0,10.0,67,0.00,,---,0.00,VWS V15.00,2013-11-23 23:58:00,
2013-11-23 18:59:00,27.6,18.1,30.48,NNW,332,5.0,11.0,67,0.00,,---,0.00,VWS V15.00,2013-11-23 23:59:00,
2013-11-23 19:00:00,27.6,18.1,30.48,WNW,302,4.0,6.0,67,0.00,,---,0.00,VWS V15.00,2013-11-24 00:00:00,
2013-11-23 19:01:00,27.6,18.1,30.48,NNW,334,4.0,7.0,67,0.00,,---,0.00,VWS V15.00,2013-11-24 00:01:00,
2013-11-23 19:02:00,27.6,18.1,30.48,NW,314,0.0,5.0,67,0.00,,---,0.00,VWS V14.01,2013-11-24 00:02:00,
2013-11-23 19:03:00,27.6,18.1,30.48,NW,325,0.0,1.0,67,0.00,,---,0.00,VWS V15.00,2013-11-24 00:03:00,
2013-11-23 19:04:00,27.6,18.1,30.48,NW,324,4.0,6.0,67,0.00,,---,0.00,VWS V15.00,2013-11-24 00:04:00,
2013-11-23 19:05:00,27.6,18.1,30.48,NNW,348,7.0,7.0,67,0.00,,---,0.00,VWS V15.00,2013-11-24 00:05:00,
2013-11-23 19:06:00,27.6,18.1,30.48,NW,317,5.0,10.0,67,0.00,,---,0.00,VWS V15.00,2013-11-24 00:06:00,
2013-11-23 19:07:00,27.6,18.1,30.48,NW,311,3.0,8.0,67,0.00,,---,0.00,VWS V14.01,2013-11-24 00:07:00,
2013-11-23 19:08:00,27.6,18.1,30.48,NW,310,4.0,4.0,67,0.00,,---,0.00,VWS V15.00,2013-11-24 00:08:00,
2013-11-23 19:09:00,27.6,18.1,30.48,NW,319,9.0,9.0,67,0.00,,---,0.00,VWS V15.00,2013-11-24 00:09:00,
2013-11-23 19:10:00,27.6,17.7,30.48,NNW,344,2.0,7.0,66,0.00,,---,0.00,VWS V15.00,2013-11-24 00:10:00,
2013-11-23 19:11:00,27.6,17.7,30.48,NNW,329,3.0,8.0,66,0.00,,---,0.00,VWS V15.00,2013-11-24 00:11:00,
2013-11-23 19:12:00,27.6,18.1,30.48,NNE,24,2.0,8.0,67,0.00,,---,0.00,VWS V14.01,2013-11-24 00:12:00,
2013-11-23 19:13:00,27.6,18.1,30.48,NW,325,7.0,7.0,67,0.00,,---,0.00,VWS V15.00,2013-11-24 00:13:00,
2013-11-23 19:14:00,27.6,18.1,30.48,NW,323,11.0,14.0,67,0.00,,---,0.00,VWS V15.00,2013-11-24 00:14:00,
2013-11-23 19:15:00,27.5,18.3,30.48,NW,323,7.0,13.0,68,0.00,,---,0.00,VWS V15.00,2013-11-24 00:15:00,
2013-11-23 19:16:00,27.5,18.3,30.48,NNW,338,4.0,10.0,68,0.00,,---,0.00,VWS V15.00,2013-11-24 00:16:00,
2013-11-23 19:17:00,27.5,18.3,30.49,North,355,5.0,12.0,68,0.00,,---,0.00,VWS V14.01,2013-11-24 00:17:00,
2013-11-23 19:18:00,27.4,18.6,30.49,NNE,21,7.0,14.0,69,0.00,,---,0.00,VWS V15.00,2013-11-24 00:18:00,
2013-11-23 19:19:00,27.4,18.6,30.49,NNW,346,7.0,16.0,69,0.00,,---,0.00,VWS V15.00,2013-11-24 00:19:00,
2013-11-23 19:20:00,27.4,18.6,30.49,North,355,4.0,10.0,69,0.00,,---,0.00,VWS V15.00,2013-11-24 00:20:00,
2013-11-23 19:21:00,27.3,18.5,30.49,NNW,331,3.0,8.0,69,0.00,,---,0.00,VWS V15.00,2013-11-24 00:21:00,
2013-11-23 19:22:00,27.3,18.5,30.49,NW,305,5.0,8.0,69,0.00,,---,0.00,VWS V14.01,2013-11-24 00:22:00,
2013-11-23 19:23:00,27.2,18.4,30.49,NNW,334,6.0,10.0,69,0.00,,---,0.00,VWS V15.00,2013-11-24 00:23:00,
2013-11-23 19:24:00,27.2,18.0,30.49,NW,324,12.0,12.0,68,0.00,,---,0.00,VWS V15.00,2013-11-24 00:24:00,
2013-11-23 19:25:00,27.1,18.0,30.49,NW,313,3.0,8.0,68,0.00,,---,0.00,VWS V15.00,2013-11-24 00:25:00,
2013-11-23 19:26:00,27.1,18.0,30.49,NW,310,5.0,5.0,68,0.00,,---,0.00,VWS V15.00,2013-11-24 00:26:00,
2013-11-23 19:27:00,27.1,18.0,30.49,NW,310,6.0,6.0,68,0.00,,---,0.00,VWS V14.01,2013-11-24 00:27:00,
2013-11-23 19:28:00,27.0,17.9,30.49,NNW,329,2.0,7.0,68,0.00,,---,0.00,VWS V15.00,2013-11-24 00:28:00,
2013-11-23 19:29:00,27.0,17.9,30.49,NW,324,5.0,6.0,68,0.00,,---,0.00,VWS V15.00,2013-11-24 00:29:00,
2013-11-23 19:30:00,27.0,17.9,30.49,North,11,4.0,6.0,68,0.00,,---,0.00,VWS V15.00,2013-11-24 00:30:00,
2013-11-23 19:31:00,27.0,17.9,30.49,NNW,340,2.0,5.0,68,0.00,,---,0.00,VWS V15.00,2013-11-24 00:31:00,
2013-11-23 19:32:00,27.0,17.5,30.49,NW,323,9.0,9.0,67,0.00,,---,0.00,VWS V14.01,2013-11-24 00:32:00,
2013-11-23 19:33:00,27.0,17.5,30.49,NW,319,5.0,9.0,67,0.00,,---,0.00,VWS V15.00,2013-11-24 00:33:00,
2013-11-23 19:34:00,27.0,17.2,30.49,West,281,4.0,6.0,66,0.00,,---,0.00,VWS V15.00,2013-11-24 00:34:00,
2013-11-23 19:35:00,26.9,17.1,30.49,NNW,342,6.0,7.0,66,0.00,,---,0.00,VWS V15.00,2013-11-24 00:35:00,
2013-11-23 19:36:00,26.9,16.7,30.49,NW,306,2.0,10.0,65,0.00,,---,0.00,VWS V15.00,2013-11-24 00:36:00,
2013-11-23 19:37:00,26.9,16.7,30.49,North,350,6.0,8.0,65,0.00,,---,0.00,VWS V14.01,2013-11-24 00:37:00,
2013-11-23 19:38:00,26.8,16.6,30.49,NW,316,4.0,12.0,65,0.00,,---,0.00,VWS V15.00,2013-11-24 00:38:00,
2013-11-23 19:39:00,26.8,16.3,30.49,NNE,32,9.0,9.0,64,0.00,,---,0.00,VWS V15.00,2013-11-24 00:39:00,
2013-11-23 19:40:00,26.7,15.8,30.49,NW,317,3.0,12.0,63,0.00,,---,0.00,VWS V15.00,2013-11-24 00:40:00,
2013-11-23 19:41:00,26.7,15.8,30.50,WNW,285,6.0,6.0,63,0.00,,---,0.00,VWS V15.00,2013-11-24 00:41:00,
2013-11-23 19:42:00,26.7,15.8,30.50,NW,317,3.0,11.0,63,0.00,,---,0.00,VWS V14.01,2013-11-24 00:42:00,
2013-11-23 19:43:00,26.6,15.7,30.50,NNW,327,5.0,7.0,63,0.00,,---,0.00,VWS V15.00,2013-11-24 00:43:00,
2013-11-23 19:44:00,26.6,15.7,30.50,NW,318,2.0,6.0,63,0.00,,---,0.00,VWS V15.00,2013-11-24 00:44:00,
2013-11-23 19:45:00,26.6,15.7,30.50,NW,323,4.0,7.0,63,0.00,,---,0.00,VWS V15.00,2013-11-24 00:45:00,
2013-11-23 19:46:00,26.5,15.3,30.50,NW,304,8.0,12.0,62,0.00,,---,0.00,VWS V15.00,2013-11-24 00:46:00,
2013-11-23 19:47:00,26.5,15.3,30.50,North,355,5.0,9.0,62,0.00,,---,0.00,VWS V15.00,2013-11-24 00:47:00,
2013-11-23 19:48:00,26.5,15.3,30.50,WNW,298,7.0,9.0,62,0.00,,---,0.00,VWS V14.01,2013-11-24 00:48:00,
2013-11-23 19:49:00,26.4,14.8,30.50,North,355,1.0,14.0,61,0.00,,---,0.00,VWS V15.00,2013-11-24 00:49:00,
2013-11-23 19:50:00,26.4,14.8,30.50,North,5,5.0,5.0,61,0.00,,---,0.00,VWS V15.00,2013-11-24 00:50:00,
2013-11-23 19:51:00,26.4,14.8,30.50,NNW,342,6.0,6.0,61,0.00,,---,0.00,VWS V15.00,2013-11-24 00:51:00,
2013-11-23 19:52:00,26.3,14.7,30.50,WNW,290,2.0,9.0,61,0.00,,---,0.00,VWS V15.00,2013-11-24 00:52:00,
2013-11-23 19:53:00,26.3,14.7,30.50,NW,321,6.0,8.0,61,0.00,,---,0.00,VWS V15.00,2013-11-24 00:53:00,
2013-11-23 19:54:00,26.3,14.7,30.50,NW,323,0.0,6.0,61,0.00,,---,0.00,VWS V14.01,2013-11-24 00:54:00,
2013-11-23 19:55:00,26.3,14.7,30.50,NNW,329,1.0,3.0,61,0.00,,---,0.00,VWS V15.00,2013-11-24 00:55:00,
2013-11-23 19:56:00,26.3,14.7,30.50,NW,321,3.0,12.0,61,0.00,,---,0.00,VWS V15.00,2013-11-24 00:56:00,
2013-11-23 19:57:00,26.2,14.6,30.50,NNE,26,1.0,8.0,61,0.00,,---,0.00,VWS V15.00,2013-11-24 00:57:00,
2013-11-23 19:58:00,26.2,14.6,30.50,North,355,6.0,9.0,61,0.00,,---,0.00,VWS V15.00,2013-11-24 00:58:00,
2013-11-23 19:59:00,26.2,14.6,30.50,NNW,347,3.0,8.0,61,0.00,,---,0.00,VWS V14.01,2013-11-24 00:59:00,
2013-11-23 20:00:00,26.2,14.6,30.50,NNW,332,4.0,8.0,61,0.00,,---,0.00,VWS V15.00,2013-11-24 01:00:00,
2013-11-23 20:01:00,26.2,14.6,30.50,NNW,341,4.0,10.0,61,0.00,,---,0.00,VWS V15.00,2013-11-24 01:01:00,
2013-11-23 20:02:00,26.1,14.5,30.50,NW,319,6.0,8.0,61,0.00,,---,0.00,VWS V15.00,2013-11-24 01:02:00,
2013-11-23 20:03:00,26.1,14.5,30.50,North,355,0.0,5.0,61,0.00,,---,0.00,VWS V15.00,2013-11-24 01:03:00,
2013-11-23 20:04:00,26.1,14.5,30.50,NNW,335,6.0,9.0,61,0.00,,---,0.00,VWS V14.01,2013-11-24 01:04:00,
2013-11-23 20:05:00,26.1,14.5,30.50,NW,326,2.0,7.0,61,0.00,,---,0.00,VWS V15.00,2013-11-24 01:05:00,
2013-11-23 20:06:00,26.1,14.5,30.50,NW,313,4.0,7.0,61,0.00,,---,0.00,VWS V15.00,2013-11-24 01:06:00,
2013-11-23 20:07:00,26.1,14.9,30.50,NNW,327,3.0,7.0,62,0.00,,---,0.00,VWS V15.00,2013-11-24 01:07:00,
2013-11-23 20:08:00,26.1,14.5,30.50,NNW,336,7.0,7.0,61,0.00,,---,0.00,VWS V15.00,2013-11-24 01:08:00,
2013-11-23 20:09:00,26.0,14.8,30.50,WNW,284,1.0,7.0,62,0.00,,---,0.00,VWS V14.01,2013-11-24 01:09:00,
2013-11-23 20:10:00,26.0,14.8,30.51,NW,324,1.0,6.0,62,0.00,,---,0.00,VWS V15.00,2013-11-24 01:10:00,
2013-11-23 20:11:00,26.0,14.8,30.51,NW,308,1.0,5.0,62,0.00,,---,0.00,VWS V15.00,2013-11-24 01:11:00,
2013-11-23 20:12:00,26.0,15.1,30.50,NNW,327,0.0,2.0,63,0.00,,---,0.00,VWS V15.00,2013-11-24 01:12:00,
2013-11-23 20:13:00,25.9,15.1,30.51,NNE,30,2.0,4.0,63,0.00,,---,0.00,VWS V15.00,2013-11-24 01:13:00,
2013-11-23 20:14:00,25.9,15.1,30.51,North,355,0.0,4.0,63,0.00,,---,0.00,VWS V14.01,2013-11-24 01:14:00,
2013-11-23 20:15:00,25.9,15.1,30.51,NNW,342,3.0,6.0,63,0.00,,---,0.00,VWS V15.00,2013-11-24 01:15:00,
2013-11-23 20:16:00,25.8,15.0,30.51,North,350,0.0,6.0,63,0.00,,---,0.00,VWS V15.00,2013-11-24 01:16:00,
2013-11-23 20:17:00,25.8,15.0,30.51,North,360,4.0,6.0,63,0.00,,---,0.00,VWS V15.00,2013-11-24 01:17:00,
2013-11-23 20:18:00,25.8,15.0,30.51,NW,315,0.0,6.0,63,0.00,,---,0.00,VWS V15.00,2013-11-24 01:18:00,
2013-11-23 20:19:00,25.8,15.0,30.51,North,355,0.0,6.0,63,0.00,,---,0.00,VWS V14.01,2013-11-24 01:19:00,
2013-11-23 20:20:00,25.7,14.9,30.51,NNW,333,0.0,6.0,63,0.00,,---,0.00,VWS V15.00,2013-11-24 01:20:00,
2013-11-23 20:21:00,25.7,15.2,30.51,NW,319,3.0,8.0,64,0.00,,---,0.00,VWS V15.00,2013-11-24 01:21:00,
2013-11-23 20:22:00,25.7,15.2,30.51,NNE,31,5.0,7.0,64,0.00,,---,0.00,VWS V15.00,2013-11-24 01:22:00,
2013-11-23 20:23:00,25.6,14.8,30.51,WNW,294,2.0,5.0,63,0.00,,---,0.00,VWS V15.00,2013-11-24 01:23:00,
2013-11-23 20:24:00,25.7,15.2,30.51,NNW,348,1.0,3.0,64,0.00,,---,0.00,VWS V15.00,2013-11-24 01:24:00,
2013-11-23 20:25:00,25.6,15.1,30.51,North,350,0.0,4.0,64,0.00,,---,0.00,VWS V14.01,2013-11-24 01:25:00,
2013-11-23 20:26:00,25.6,15.1,30.51,WNW,290,2.0,5.0,64,0.00,,---,0.00,VWS V15.00,2013-11-24 01:26:00,
2013-11-23 20:27:00,25.6,15.1,30.52,NNW,327,3.0,4.0,64,0.00,,---,0.00,VWS V15.00,2013-11-24 01:27:00,
2013-11-23 20:28:00,25.6,15.1,30.52,NNW,339,0.0,3.0,64,0.00,,---,0.00,VWS V15.00,2013-11-24 01:28:00,
2013-11-23 20:29:00,25.5,15.0,30.52,NNW,339,3.0,6.0,64,0.00,,---,0.00,VWS V15.00,2013-11-24 01:29:00,
2013-11-23 20:30:00,25.5,15.0,30.52,NNW,346,0.0,4.0,64,0.00,,---,0.00,VWS V14.01,2013-11-24 01:30:00,
2013-11-23 20:31:00,25.5,15.0,30.52,NW,323,1.0,2.0,64,0.00,,---,0.00,VWS V15.00,2013-11-24 01:31:00,
2013-11-23 20:32:00,25.5,15.0,30.51,North,5,3.0,4.0,64,0.00,,---,0.00,VWS V15.00,2013-11-24 01:32:00,
2013-11-23 20:33:00,25.4,14.9,30.52,NW,323,2.0,7.0,64,0.00,,---,0.00,VWS V15.00,2013-11-24 01:33:00,
2013-11-23 20:34:00,25.4,14.9,30.52,NW,322,0.0,4.0,64,0.00,,---,0.00,VWS V15.00,2013-11-24 01:34:00,
2013-11-23 20:35:00,25.4,14.9,30.52,NW,323,0.0,3.0,64,0.00,,---,0.00,VWS V15.00,2013-11-24 01:35:00,
2013-11-23 20:36:00,25.4,14.9,30.52,WNW,302,0.0,4.0,64,0.00,,---,0.00,VWS V14.01,2013-11-24 01:36:00,
2013-11-23 20:37:00,25.4,14.9,30.52,NW,309,3.0,4.0,64,0.00,,---,0.00,VWS V15.00,2013-11-24 01:37:00,
2013-11-23 20:38:00,25.4,14.9,30.52,WNW,303,0.0,3.0,64,0.00,,---,0.00,VWS V15.00,2013-11-24 01:38:00,
2013-11-23 20:39:00,25.3,14.8,30.52,NNW,328,3.0,4.0,64,0.00,,---,0.00,VWS V15.00,2013-11-24 01:39:00,
2013-11-23 20:40:00,25.3,14.8,30.52,NNW,336,1.0,6.0,64,0.00,,---,0.00,VWS V15.00,2013-11-24 01:40:00,
2013-11-23 20:41:00,25.3,14.8,30.52,NNW,344,6.0,10.0,64,0.00,,---,0.00,VWS V15.00,2013-11-24 01:41:00,
2013-11-23 20:42:00,25.3,14.8,30.52,NNW,330,1.0,8.0,64,0.00,,---,0.00,VWS V14.01,2013-11-24 01:42:00,
2013-11-23 20:43:00,25.3,14.8,30.52,NNW,329,0.0,3.0,64,0.00,,---,0.00,VWS V15.00,2013-11-24 01:43:00,
2013-11-23 20:44:00,25.2,14.8,30.52,NNW,338,4.0,12.0,64,0.00,,---,0.00,VWS V15.00,2013-11-24 01:44:00,
2013-11-23 20:45:00,25.3,14.8,30.52,NNW,340,7.0,8.0,64,0.00,,---,0.00,VWS V15.00,2013-11-24 01:45:00,
2013-11-23 20:46:00,25.2,14.8,30.52,NNW,345,4.0,7.0,64,0.00,,---,0.00,VWS V15.00,2013-11-24 01:46:00,
2013-11-23 20:47:00,25.2,14.8,30.52,NNW,336,4.0,7.0,64,0.00,,---,0.00,VWS V14.01,2013-11-24 01:47:00,
2013-11-23 20:48:00,25.2,14.8,30.52,NNW,342,6.0,9.0,64,0.00,,---,0.00,VWS V15.00,2013-11-24 01:48:00,
2013-11-23 20:49:00,25.2,14.8,30.52,West,275,4.0,7.0,64,0.00,,---,0.00,VWS V15.00,2013-11-24 01:49:00,
2013-11-23 20:50:00,25.2,14.8,30.52,NNW,327,2.0,5.0,64,0.00,,---,0.00,VWS V15.00,2013-11-24 01:50:00,
2013-11-23 20:51:00,25.2,14.8,30.52,NW,311,2.0,3.0,64,0.00,,---,0.00,VWS V15.00,2013-11-24 01:51:00,
2013-11-23 20:52:00,25.2,15.1,30.52,North,355,3.0,3.0,65,0.00,,---,0.00,VWS V14.01,2013-11-24 01:52:00,
2013-11-23 20:53:00,25.2,15.1,30.52,NNW,340,6.0,10.0,65,0.00,,---,0.00,VWS V15.00,2013-11-24 01:53:00,
2013-11-23 20:54:00,25.2,15.1,30.52,NNW,341,3.0,7.0,65,0.00,,---,0.00,VWS V15.00,2013-11-24 01:54:00,
2013-11-23 20:55:00,25.1,15.0,30.52,North,350,0.0,4.0,65,0.00,,---,0.00,VWS V15.00,2013-11-24 01:55:00,
2013-11-23 20:56:00,25.1,15.0,30.52,WNW,283,5.0,6.0,65,0.00,,---,0.00,VWS V15.00,2013-11-24 01:56:00,
2013-11-23 20:57:00,25.1,15.0,30.52,WNW,284,4.0,5.0,65,0.00,,---,0.00,VWS V14.01,2013-11-24 01:57:00,
2013-11-23 20:58:00,25.1,15.4,30.52,NW,314,4.0,9.0,66,0.00,,---,0.00,VWS V15.00,2013-11-24 01:58:00,
2013-11-23 20:59:00,25.1,15.4,30.52,NW,319,0.0,4.0,66,0.00,,---,0.00,VWS V15.00,2013-11-24 01:59:00,
2013-11-23 21:00:00,25.1,15.4,30.52,WNW,302,3.0,7.0,66,0.00,,---,0.00,VWS V15.00,2013-11-24 02:00:00,
2013-11-23 21:01:00,25.0,15.3,30.52,NNW,329,4.0,6.0,66,0.00,,---,0.00,VWS V15.00,2013-11-24 02:01:00,
2013-11-23 21:02:00,25.0,15.3,30.52,NW,326,3.0,11.0,66,0.00,,---,0.00,VWS V14.01,2013-11-24 02:02:00,
2013-11-23 21:03:00,25.0,15.3,30.52,NNW,329,6.0,6.0,66,0.00,,---,0.00,VWS V15.00,2013-11-24 02:03:00,
2013-11-23 21:04:00,25.0,15.3,30.52,North,355,4.0,8.0,66,0.00,,---,0.00,VWS V15.00,2013-11-24 02:04:00,
2013-11-23 21:05:00,25.0,15.3,30.53,NNW,329,5.0,11.0,66,0.00,,---,0.00,VWS V15.00,2013-11-24 02:05:00,
2013-11-23 21:06:00,25.0,15.3,30.53,NNW,344,0.0,6.0,66,0.00,,---,0.00,VWS V15.00,2013-11-24 02:06:00,
2013-11-23 21:07:00,25.0,15.3,30.53,NNW,341,0.0,1.0,66,0.00,,---,0.00,VWS V15.00,2013-11-24 02:07:00,
2013-11-23 21:08:00,25.0,15.6,30.53,NW,319,2.0,5.0,67,0.00,,---,0.00,VWS V14.01,2013-11-24 02:08:00,
2013-11-23 21:09:00,25.0,15.6,30.53,NW,319,3.0,5.0,67,0.00,,---,0.00,VWS V15.00,2013-11-24 02:09:00,
2013-11-23 21:10:00,25.0,15.6,30.53,NNE,22,2.0,5.0,67,0.00,,---,0.00,VWS V15.00,2013-11-24 02:10:00,
2013-11-23 21:11:00,25.0,15.6,30.53,West,279,0.0,4.0,67,0.00,,---,0.00,VWS V15.00,2013-11-24 02:11:00,
2013-11-23 21:12:00,24.9,15.5,30.53,NNW,344,7.0,7.0,67,0.00,,---,0.00,VWS V15.00,2013-11-24 02:12:00,
2013-11-23 21:13:00,24.9,15.5,30.53,NW,306,2.0,10.0,67,0.00,,---,0.00,VWS V14.01,2013-11-24 02:13:00,
2013-11-23 21:14:00,24.9,15.9,30.53,NW,315,4.0,6.0,68,0.00,,---,0.00,VWS V15.00,2013-11-24 02:14:00,
2013-11-23 21:15:00,24.9,15.9,30.53,NW,325,8.0,11.0,68,0.00,,---,0.00,VWS V15.00,2013-11-24 02:15:00,
2013-11-23 21:16:00,24.9,15.9,30.53,NW,313,3.0,9.0,68,0.00,,---,0.00,VWS V15.00,2013-11-24 02:16:00,
2013-11-23 21:17:00,24.9,15.9,30.53,NNW,340,2.0,6.0,68,0.00,,---,0.00,VWS V15.00,2013-11-24 02:17:00,
2013-11-23 21:18:00,24.9,15.9,30.53,NW,326,3.0,6.0,68,0.00,,---,0.00,VWS V14.01,2013-11-24 02:18:00,
2013-11-23 21:19:00,24.8,15.8,30.53,NNW,334,3.0,13.0,68,0.00,,---,0.00,VWS V15.00,2013-11-24 02:19:00,
2013-11-23 21:20:00,24.8,15.8,30.53,NW,304,2.0,8.0,68,0.00,,---,0.00,VWS V15.00,2013-11-24 02:20:00,
2013-11-23 21:21:00,24.8,15.8,30.53,NW,310,4.0,6.0,68,0.00,,---,0.00,VWS V15.00,2013-11-24 02:21:00,
2013-11-23 21:22:00,24.8,15.8,30.53,NNW,327,4.0,5.0,68,0.00,,---,0.00,VWS V15.00,2013-11-24 02:22:00,
2013-11-23 21:23:00,24.8,15.8,30.53,NW,317,4.0,6.0,68,0.00,,---,0.00,VWS V15.00,2013-11-24 02:23:00,
2013-11-23 21:24:00,24.7,15.7,30.53,NNW,343,4.0,15.0,68,0.00,,---,0.00,VWS V14.01,2013-11-24 02:24:00,
2013-11-23 21:25:00,24.7,15.7,30.53,NW,317,9.0,9.0,68,0.00,,---,0.00,VWS V15.00,2013-11-24 02:25:00,
2013-11-23 21:26:00,24.7,15.7,30.53,North,360,10.0,13.0,68,0.00,,---,0.00,VWS V15.00,2013-11-24 02:26:00,
2013-11-23 21:27:00,24.6,15.9,30.53,NNW,331,6.0,10.0,69,0.00,,---,0.00,VWS V15.00,2013-11-24 02:27:00,
2013-11-23 21:28:00,24.6,15.9,30.53,NNE,18,3.0,7.0,69,0.00,,---,0.00,VWS V15.00,2013-11-24 02:28:00,
2013-11-23 21:29:00,24.6,15.9,30.53,NW,323,3.0,14.0,69,0.00,,---,0.00,VWS V14.01,2013-11-24 02:29:00,
2013-11-23 21:30:00,24.6,15.9,30.53,NW,323,3.0,3.0,69,0.00,,---,0.00,VWS V15.00,2013-11-24 02:30:00,
2013-11-23 21:31:00,24.5,15.8,30.54,NNW,333,0.0,4.0,69,0.00,,---,0.00,VWS V15.00,2013-11-24 02:31:00,
2013-11-23 21:32:00,24.5,16.1,30.54,NNW,329,5.0,10.0,70,0.00,,---,0.00,VWS V15.00,2013-11-24 02:32:00,
2013-11-23 21:33:00,24.5,16.1,30.53,NW,319,2.0,8.0,70,0.00,,---,0.00,VWS V15.00,2013-11-24 02:33:00,
2013-11-23 21:34:00,24.4,16.0,30.53,WNW,303,4.0,7.0,70,0.00,,---,0.00,VWS V14.01,2013-11-24 02:34:00,
2013-11-23 21:35:00,24.4,16.0,30.53,NNW,348,10.0,14.0,70,0.00,,---,0.00,VWS V15.00,2013-11-24 02:35:00,
2013-11-23 21:36:00,24.3,15.9,30.53,NW,325,2.0,12.0,70,0.00,,---,0.00,VWS V15.00,2013-11-24 02:36:00,
2013-11-23 21:37:00,24.3,15.9,30.53,NW,314,4.0,9.0,70,0.00,,---,0.00,VWS V15.00,2013-11-24 02:37:00,
2013-11-23 21:38:00,24.3,16.3,30.53,NNW,327,0.0,7.0,71,0.00,,---,0.00,VWS V15.00,2013-11-24 02:38:00,
2013-11-23 21:39:00,24.3,16.3,30.53,NNW,331,3.0,4.0,71,0.00,,---,0.00,VWS V15.00,2013-11-24 02:39:00,
2013-11-23 21:40:00,24.2,16.2,30.54,North,355,2.0,8.0,71,0.00,,---,0.00,VWS V14.01,2013-11-24 02:40:00,
2013-11-23 21:41:00,24.2,16.2,30.54,NNW,336,6.0,6.0,71,0.00,,---,0.00,VWS V15.00,2013-11-24 02:41:00,
2013-11-23 21:42:00,24.1,16.1,30.54,NW,324,4.0,9.0,71,0.00,,---,0.00,VWS V15.00,2013-11-24 02:42:00,
2013-11-23 21:43:00,24.1,16.1,30.53,North,5,4.0,12.0,71,0.00,,---,0.00,VWS V15.00,2013-11-24 02:43:00,
2013-11-23 21:44:00,24.1,16.1,30.54,NNW,343,4.0,7.0,71,0.00,,---,0.00,VWS V15.00,2013-11-24 02:44:00,
2013-11-23 21:45:00,24.0,16.0,30.54,NW,321,0.0,9.0,71,0.00,,---,0.00,VWS V14.01,2013-11-24 02:45:00,
2013-11-23 21:46:00,24.0,16.0,30.54,NNW,330,5.0,5.0,71,0.00,,---,0.00,VWS V15.00,2013-11-24 02:46:00,
2013-11-23 21:47:00,24.0,16.0,30.54,WNW,295,6.0,8.0,71,0.00,,---,0.00,VWS V15.00,2013-11-24 02:47:00,
2013-11-23 21:48:00,24.0,16.0,30.54,NW,322,3.0,8.0,71,0.00,,---,0.00,VWS V15.00,2013-11-24 02:48:00,
2013-11-23 21:49:00,24.0,16.0,30.54,NW,323,9.0,11.0,71,0.00,,---,0.00,VWS V15.00,2013-11-24 02:49:00,
2013-11-23 21:50:00,24.0,16.0,30.54,NNW,344,6.0,9.0,71,0.00,,---,0.00,VWS V15.00,2013-11-24 02:50:00,
2013-11-23 21:51:00,23.9,16.2,30.54,NNW,336,2.0,6.0,72,0.00,,---,0.00,VWS V14.01,2013-11-24 02:51:00,
2013-11-23 21:52:00,23.9,16.2,30.54,North,355,2.0,10.0,72,0.00,,---,0.00,VWS V15.00,2013-11-24 02:52:00,
2013-11-23 21:53:00,23.9,16.2,30.54,NW,319,6.0,6.0,72,0.00,,---,0.00,VWS V15.00,2013-11-24 02:53:00,
2013-11-23 21:54:00,23.9,16.2,30.54,NW,321,0.0,6.0,72,0.00,,---,0.00,VWS V15.00,2013-11-24 02:54:00,
2013-11-23 21:55:00,23.9,16.2,30.54,NW,306,0.0,5.0,72,0.00,,---,0.00,VWS V15.00,2013-11-24 02:55:00,
2013-11-23 21:56:00,23.9,16.2,30.54,WNW,291,0.0,7.0,72,0.00,,---,0.00,VWS V15.00,2013-11-24 02:56:00,
2013-11-23 21:57:00,23.9,16.2,30.54,North,355,7.0,8.0,72,0.00,,---,0.00,VWS V14.01,2013-11-24 02:57:00,
2013-11-23 21:58:00,23.8,16.1,30.54,NNW,327,5.0,7.0,72,0.00,,---,0.00,VWS V15.00,2013-11-24 02:58:00,
2013-11-23 21:59:00,23.8,16.1,30.54,NNW,340,2.0,5.0,72,0.00,,---,0.00,VWS V15.00,2013-11-24 02:59:00,
2013-11-23 22:00:00,23.8,16.4,30.54,NW,315,2.0,6.0,73,0.00,,---,0.00,VWS V15.00,2013-11-24 03:00:00,
2013-11-23 22:01:00,23.8,16.4,30.54,North,9,1.0,3.0,73,0.00,,---,0.00,VWS V15.00,2013-11-24 03:01:00,
2013-11-23 22:02:00,23.8,16.4,30.54,NW,311,0.0,5.0,73,0.00,,---,0.00,VWS V14.01,2013-11-24 03:02:00,
2013-11-23 22:03:00,23.8,16.4,30.54,NNW,333,3.0,4.0,73,0.00,,---,0.00,VWS V15.00,2013-11-24 03:03:00,
2013-11-23 22:04:00,23.7,16.3,30.54,NNW,336,1.0,3.0,73,0.00,,---,0.00,VWS V15.00,2013-11-24 03:04:00,
2013-11-23 22:05:00,23.7,16.3,30.54,NNW,345,3.0,5.0,73,0.00,,---,0.00,VWS V15.00,2013-11-24 03:05:00,
2013-11-23 22:06:00,23.7,16.3,30.54,NNW,343,2.0,4.0,73,0.00,,---,0.00,VWS V15.00,2013-11-24 03:06:00,
2013-11-23 22:07:00,23.6,16.2,30.54,NNW,340,0.0,3.0,73,0.00,,---,0.00,VWS V14.01,2013-11-24 03:07:00,
2013-11-23 22:08:00,23.6,16.2,30.54,NNW,340,3.0,3.0,73,0.00,,---,0.00,VWS V15.00,2013-11-24 03:08:00,
2013-11-23 22:09:00,23.6,16.2,30.54,NW,319,4.0,5.0,73,0.00,,---,0.00,VWS V15.00,2013-11-24 03:09:00,
2013-11-23 22:10:00,23.6,16.5,30.54,NNW,329,3.0,4.0,74,0.00,,---,0.00,VWS V15.00,2013-11-24 03:10:00,
2013-11-23 22:11:00,23.6,16.5,30.54,NW,321,7.0,7.0,74,0.00,,---,0.00,VWS V15.00,2013-11-24 03:11:00,
2013-11-23 22:12:00,23.6,16.2,30.54,North,350,0.0,7.0,73,0.00,,---,0.00,VWS V15.00,2013-11-24 03:12:00,
2013-11-23 22:13:00,23.6,16.2,30.54,NW,324,3.0,8.0,73,0.00,,---,0.00,VWS V14.01,2013-11-24 03:13:00,
2013-11-23 22:14:00,23.7,16.3,30.55,NNW,345,4.0,7.0,73,0.00,,---,0.00,VWS V15.00,2013-11-24 03:14:00,
2013-11-23 22:15:00,23.7,16.3,30.54,NNW,333,0.0,5.0,73,0.00,,---,0.00,VWS V15.00,2013-11-24 03:15:00,
2013-11-23 22:16:00,23.7,16.3,30.55,NW,325,3.0,6.0,73,0.00,,---,0.00,VWS V15.00,2013-11-24 03:16:00,
2013-11-23 22:17:00,23.8,16.4,30.55,NNW,339,0.0,8.0,73,0.00,,---,0.00,VWS V15.00,2013-11-24 03:17:00,
2013-11-23 22:18:00,23.8,16.1,30.55,WNW,285,3.0,7.0,72,0.00,,---,0.00,VWS V14.01,2013-11-24 03:18:00,
2013-11-23 22:19:00,23.8,16.1,30.55,NW,309,2.0,6.0,72,0.00,,---,0.00,VWS V15.00,2013-11-24 03:19:00,
2013-11-23 22:20:00,23.8,16.1,30.55,NW,313,5.0,5.0,72,0.00,,---,0.00,VWS V15.00,2013-11-24 03:20:00,
2013-11-23 22:21:00,23.8,16.1,30.55,NW,323,1.0,6.0,72,0.00,,---,0.00,VWS V15.00,2013-11-24 03:21:00,
2013-11-23 22:22:00,23.8,16.1,30.55,ENE,74,3.0,5.0,72,0.00,,---,0.00,VWS V15.00,2013-11-24 03:22:00,
2013-11-23 22:23:00,23.8,16.1,30.55,NW,315,1.0,7.0,72,0.00,,---,0.00,VWS V14.01,2013-11-24 03:23:00,
2013-11-23 22:24:00,23.8,16.1,30.55,NW,315,3.0,7.0,72,0.00,,---,0.00,VWS V15.00,2013-11-24 03:24:00,
2013-11-23 22:25:00,23.8,15.8,30.55,North,355,6.0,6.0,71,0.00,,---,0.00,VWS V15.00,2013-11-24 03:25:00,
2013-11-23 22:26:00,23.8,15.8,30.55,North,351,4.0,6.0,71,0.00,,---,0.00,VWS V15.00,2013-11-24 03:26:00,
2013-11-23 22:27:00,23.8,15.8,30.55,NW,317,4.0,5.0,71,0.00,,---,0.00,VWS V15.00,2013-11-24 03:27:00,
2013-11-23 22:28:00,23.8,15.8,30.55,NW,310,5.0,9.0,71,0.00,,---,0.00,VWS V14.01,2013-11-24 03:28:00,
2013-11-23 22:29:00,23.7,15.7,30.55,NNW,335,2.0,6.0,71,0.00,,---,0.00,VWS V15.00,2013-11-24 03:29:00,
2013-11-23 22:30:00,23.7,15.7,30.55,NNE,17,5.0,9.0,71,0.00,,---,0.00,VWS V15.00,2013-11-24 03:30:00,
2013-11-23 22:31:00,23.7,15.7,30.55,NNW,329,3.0,8.0,71,0.00,,---,0.00,VWS V15.00,2013-11-24 03:31:00,
2013-11-23 22:32:00,23.6,15.6,30.55,NNW,336,3.0,7.0,71,0.00,,---,0.00,VWS V15.00,2013-11-24 03:32:00,
2013-11-23 22:33:00,23.6,15.6,30.55,NW,322,3.0,4.0,71,0.00,,---,0.00,VWS V15.00,2013-11-24 03:33:00,
2013-11-23 22:34:00,23.6,15.6,30.55,NNW,333,1.0,6.0,71,0.00,,---,0.00,VWS V14.01,2013-11-24 03:34:00,
2013-11-23 22:35:00,23.5,15.5,30.55,West,279,5.0,5.0,71,0.00,,---,0.00,VWS V15.00,2013-11-24 03:35:00,
2013-11-23 22:36:00,23.5,15.5,30.55,NW,318,7.0,8.0,71,0.00,,---,0.00,VWS V15.00,2013-11-24 03:36:00,
2013-11-23 22:37:00,23.5,15.5,30.55,NW,325,4.0,8.0,71,0.00,,---,0.00,VWS V15.00,2013-11-24 03:37:00,
2013-11-23 22:38:00,23.5,15.5,30.55,NW,307,2.0,11.0,71,0.00,,---,0.00,VWS V15.00,2013-11-24 03:38:00,
2013-11-23 22:39:00,23.4,15.4,30.56,NNE,13,4.0,8.0,71,0.00,,---,0.00,VWS V15.00,2013-11-24 03:39:00,
2013-11-23 22:40:00,23.4,15.4,30.56,North,355,4.0,7.0,71,0.00,,---,0.00,VWS V14.01,2013-11-24 03:40:00,
2013-11-23 22:41:00,23.4,15.4,30.55,NNW,327,7.0,8.0,71,0.00,,---,0.00,VWS V15.00,2013-11-24 03:41:00,
2013-11-23 22:42:00,23.4,15.4,30.55,NNW,340,7.0,10.0,71,0.00,,---,0.00,VWS V15.00,2013-11-24 03:42:00,
2013-11-23 22:43:00,23.3,15.3,30.56,North,5,6.0,7.0,71,0.00,,---,0.00,VWS V15.00,2013-11-24 03:43:00,
2013-11-23 22:44:00,23.3,15.3,30.56,NNW,338,3.0,8.0,71,0.00,,---,0.00,VWS V15.00,2013-11-24 03:44:00,
2013-11-23 22:45:00,23.3,15.6,30.56,NNW,340,2.0,4.0,72,0.00,,---,0.00,VWS V15.00,2013-11-24 03:45:00,
2013-11-23 22:46:00,23.3,15.6,30.56,NNW,340,1.0,4.0,72,0.00,,---,0.00,VWS V14.01,2013-11-24 03:46:00,
2013-11-23 22:47:00,23.3,15.6,30.56,WNW,282,0.0,6.0,72,0.00,,---,0.00,VWS V15.00,2013-11-24 03:47:00,
2013-11-23 22:48:00,23.2,15.5,30.56,NW,307,5.0,5.0,72,0.00,,---,0.00,VWS V15.00,2013-11-24 03:48:00,
2013-11-23 22:49:00,23.2,15.5,30.56,NNW,330,10.0,10.0,72,0.00,,---,0.00,VWS V15.00,2013-11-24 03:49:00,
2013-11-23 22:50:00,23.2,15.5,30.56,NW,306,3.0,10.0,72,0.00,,---,0.00,VWS V15.00,2013-11-24 03:50:00,
2013-11-23 22:51:00,23.2,15.5,30.56,NNW,329,5.0,5.0,72,0.00,,---,0.00,VWS V14.01,2013-11-24 03:51:00,
2013-11-23 22:52:00,23.2,15.5,30.56,NNW,331,3.0,9.0,72,0.00,,---,0.00,VWS V15.00,2013-11-24 03:52:00,
2013-11-23 22:53:00,23.3,15.6,30.56,North,5,4.0,8.0,72,0.00,,---,0.00,VWS V15.00,2013-11-24 03:53:00,
2013-11-23 22:54:00,23.2,15.5,30.56,NNW,328,2.0,5.0,72,0.00,,---,0.00,VWS V15.00,2013-11-24 03:54:00,
2013-11-23 22:55:00,23.2,15.5,30.56,North,360,3.0,3.0,72,0.00,,---,0.00,VWS V15.00,2013-11-24 03:55:00,
2013-11-23 22:56:00,23.3,15.6,30.56,North,355,0.0,4.0,72,0.00,,---,0.00,VWS V15.00,2013-11-24 03:56:00,
2013-11-23 22:57:00,23.3,15.6,30.56,NW,325,2.0,5.0,72,0.00,,---,0.00,VWS V14.01,2013-11-24 03:57:00,
2013-11-23 22:58:00,23.3,15.6,30.56,NNW,336,0.0,4.0,72,0.00,,---,0.00,VWS V15.00,2013-11-24 03:58:00,
2013-11-23 22:59:00,23.3,15.6,30.56,North,349,4.0,7.0,72,0.00,,---,0.00,VWS V15.00,2013-11-24 03:59:00,
2013-11-23 23:00:00,23.3,15.6,30.56,North,5,4.0,10.0,72,0.00,,---,0.00,VWS V15.00,2013-11-24 04:00:00,
2013-11-23 23:01:00,23.3,15.6,30.56,NNW,332,1.0,4.0,72,0.00,,---,0.00,VWS V15.00,2013-11-24 04:01:00,
2013-11-23 23:02:00,23.4,15.7,30.56,NNW,339,3.0,7.0,72,0.00,,---,0.00,VWS V14.01,2013-11-24 04:02:00,
2013-11-23 23:03:00,23.4,16.0,30.56,NNW,333,6.0,6.0,73,0.00,,---,0.00,VWS V15.00,2013-11-24 04:03:00,
2013-11-23 23:04:00,23.4,16.0,30.56,NNW,336,2.0,7.0,73,0.00,,---,0.00,VWS V15.00,2013-11-24 04:04:00,
2013-11-23 23:05:00,23.4,16.4,30.56,NW,321,0.0,5.0,74,0.00,,---,0.00,VWS V15.00,2013-11-24 04:05:00,
2013-11-23 23:06:00,23.4,16.7,30.56,NNW,329,9.0,9.0,75,0.00,,---,0.00,VWS V15.00,2013-11-24 04:06:00,
2013-11-23 23:07:00,23.4,16.7,30.56,NW,321,3.0,10.0,75,0.00,,---,0.00,VWS V14.01,2013-11-24 04:07:00,
2013-11-23 23:08:00,23.4,17.0,30.56,North,360,1.0,8.0,76,0.00,,---,0.00,VWS V15.00,2013-11-24 04:08:00,
2013-11-23 23:09:00,23.4,17.0,30.56,NNW,332,0.0,7.0,76,0.00,,---,0.00,VWS V15.00,2013-11-24 04:09:00,
2013-11-23 23:10:00,23.3,17.2,30.56,NNW,331,5.0,6.0,77,0.00,,---,0.00,VWS V15.00,2013-11-24 04:10:00,
2013-11-23 23:11:00,23.3,17.2,30.56,NNW,340,0.0,5.0,77,0.00,,---,0.00,VWS V15.00,2013-11-24 04:11:00,
2013-11-23 23:12:00,23.3,17.2,30.56,NNE,28,0.0,2.0,77,0.00,,---,0.00,VWS V14.01,2013-11-24 04:12:00,
2013-11-23 23:13:00,23.3,17.5,30.56,NNW,341,3.0,6.0,78,0.00,,---,0.00,VWS V15.00,2013-11-24 04:13:00,
2013-11-23 23:14:00,23.3,17.5,30.56,North,351,1.0,4.0,78,0.00,,---,0.00,VWS V15.00,2013-11-24 04:14:00,
2013-11-23 23:15:00,23.2,17.4,30.56,North,355,5.0,7.0,78,0.00,,---,0.00,VWS V15.00,2013-11-24 04:15:00,
2013-11-23 23:16:00,23.2,17.1,30.56,NNW,331,2.0,6.0,77,0.00,,---,0.00,VWS V15.00,2013-11-24 04:16:00,
2013-11-23 23:17:00,23.2,17.1,30.56,NNW,346,3.0,5.0,77,0.00,,---,0.00,VWS V14.01,2013-11-24 04:17:00,
2013-11-23 23:18:00,23.2,17.1,30.56,WNW,296,8.0,11.0,77,0.00,,---,0.00,VWS V15.00,2013-11-24 04:18:00,
2013-11-23 23:19:00,23.2,17.1,30.56,North,360,5.0,8.0,77,0.00,,---,0.00,VWS V15.00,2013-11-24 04:19:00,
2013-11-23 23:20:00,23.2,16.8,30.56,NE,51,4.0,5.0,76,0.00,,---,0.00,VWS V15.00,2013-11-24 04:20:00,
2013-11-23 23:21:00,23.2,16.8,30.56,NW,316,10.0,10.0,76,0.00,,---,0.00,VWS V15.00,2013-11-24 04:21:00,
2013-11-23 23:22:00,23.2,16.8,30.56,NNW,334,1.0,9.0,76,0.00,,---,0.00,VWS V14.01,2013-11-24 04:22:00,
2013-11-23 23:23:00,23.2,16.8,30.56,NNE,12,3.0,4.0,76,0.00,,---,0.00,VWS V15.00,2013-11-24 04:23:00,
2013-11-23 23:24:00,23.3,16.9,30.56,North,360,0.0,6.0,76,0.00,,---,0.00,VWS V15.00,2013-11-24 04:24:00,
2013-11-23 23:25:00,23.3,16.6,30.56,NNW,342,5.0,7.0,75,0.00,,---,0.00,VWS V15.00,2013-11-24 04:25:00,
2013-11-23 23:26:00,23.3,16.6,30.56,NE,35,4.0,4.0,75,0.00,,---,0.00,VWS V15.00,2013-11-24 04:26:00,
2013-11-23 23:27:00,23.3,16.6,30.57,WNW,283,0.0,4.0,75,0.00,,---,0.00,VWS V14.01,2013-11-24 04:27:00,
2013-11-23 23:28:00,23.3,16.6,30.57,NW,323,4.0,9.0,75,0.00,,---,0.00,VWS V15.00,2013-11-24 04:28:00,
2013-11-23 23:29:00,23.3,16.2,30.57,NNE,32,4.0,8.0,74,0.00,,---,0.00,VWS V15.00,2013-11-24 04:29:00,
2013-11-23 23:30:00,23.3,16.2,30.56,NNW,333,4.0,9.0,74,0.00,,---,0.00,VWS V15.00,2013-11-24 04:30:00,
2013-11-23 23:31:00,23.3,16.2,30.57,NNW,346,2.0,7.0,74,0.00,,---,0.00,VWS V15.00,2013-11-24 04:31:00,
2013-11-23 23:32:00,23.4,16.0,30.57,NNW,343,2.0,3.0,73,0.00,,---,0.00,VWS V14.01,2013-11-24 04:32:00,
2013-11-23 23:33:00,23.3,15.9,30.57,NW,316,1.0,10.0,73,0.00,,---,0.00,VWS V15.00,2013-11-24 04:33:00,
2013-11-23 23:34:00,23.4,15.7,30.56,NNW,328,0.0,5.0,72,0.00,,---,0.00,VWS V15.00,2013-11-24 04:34:00,
2013-11-23 23:35:00,23.4,15.7,30.56,NE,45,7.0,8.0,72,0.00,,---,0.00,VWS V15.00,2013-11-24 04:35:00,
2013-11-23 23:36:00,23.4,15.7,30.57,NW,326,7.0,11.0,72,0.00,,---,0.00,VWS V15.00,2013-11-24 04:36:00,
2013-11-23 23:37:00,23.4,15.7,30.57,NNW,329,3.0,7.0,72,0.00,,---,0.00,VWS V14.01,2013-11-24 04:37:00,
2013-11-23 23:38:00,23.4,15.7,30.57,NW,323,2.0,4.0,72,0.00,,---,0.00,VWS V15.00,2013-11-24 04:38:00,
2013-11-23 23:39:00,23.4,15.7,30.57,NW,324,2.0,8.0,72,0.00,,---,0.00,VWS V15.00,2013-11-24 04:39:00,
2013-11-23 23:40:00,23.4,15.7,30.57,NW,314,2.0,9.0,72,0.00,,---,0.00,VWS V15.00,2013-11-24 04:40:00,
2013-11-23 23:41:00,23.4,15.4,30.56,NNW,347,6.0,10.0,71,0.00,,---,0.00,VWS V15.00,2013-11-24 04:41:00,
2013-11-23 23:42:00,23.4,15.4,30.57,NW,315,7.0,8.0,71,0.00,,---,0.00,VWS V14.01,2013-11-24 04:42:00,
2013-11-23 23:43:00,23.4,15.4,30.57,NW,316,4.0,8.0,71,0.00,,---,0.00,VWS V15.00,2013-11-24 04:43:00,
2013-11-23 23:44:00,23.4,15.7,30.57,NNW,338,3.0,7.0,72,0.00,,---,0.00,VWS V15.00,2013-11-24 04:44:00,
2013-11-23 23:45:00,23.4,15.7,30.57,NNE,18,5.0,8.0,72,0.00,,---,0.00,VWS V15.00,2013-11-24 04:45:00,
2013-11-23 23:46:00,23.4,15.4,30.57,North,355,0.0,9.0,71,0.00,,---,0.00,VWS V15.00,2013-11-24 04:46:00,
2013-11-23 23:47:00,23.4,15.4,30.57,NNW,327,8.0,8.0,71,0.00,,---,0.00,VWS V15.00,2013-11-24 04:47:00,
2013-11-23 23:48:00,23.4,15.4,30.57,NW,309,5.0,10.0,71,0.00,,---,0.00,VWS V14.01,2013-11-24 04:48:00,
2013-11-23 23:49:00,23.4,15.4,30.57,NNW,331,4.0,10.0,71,0.00,,---,0.00,VWS V15.00,2013-11-24 04:49:00,
2013-11-23 23:50:00,23.4,15.4,30.57,NNW,333,3.0,7.0,71,0.00,,---,0.00,VWS V15.00,2013-11-24 04:50:00,
2013-11-23 23:51:00,23.3,15.0,30.57,NNW,330,3.0,10.0,70,0.00,,---,0.00,VWS V15.00,2013-11-24 04:51:00,
2013-11-23 23:52:00,23.3,15.0,30.56,NW,323,7.0,9.0,70,0.00,,---,0.00,VWS V15.00,2013-11-24 04:52:00,
2013-11-23 23:53:00,23.3,15.0,30.56,NNW,337,1.0,11.0,70,0.00,,---,0.00,VWS V14.01,2013-11-24 04:53:00,
2013-11-23 23:54:00,23.3,15.0,30.57,NNE,23,8.0,9.0,70,0.00,,---,0.00,VWS V15.00,2013-11-24 04:54:00,
2013-11-23 23:55:00,23.3,15.3,30.57,NNW,329,2.0,8.0,71,0.00,,---,0.00,VWS V15.00,2013-11-24 04:55:00,
2013-11-23 23:56:00,23.3,15.3,30.57,NNW,331,1.0,4.0,71,0.00,,---,0.00,VWS V15.00,2013-11-24 04:56:00,
2013-11-23 23:57:00,23.3,15.3,30.57,North,5,5.0,7.0,71,0.00,,---,0.00,VWS V15.00,2013-11-24 04:57:00,
2013-11-23 23:58:00,23.3,15.3,30.57,NNW,342,3.0,7.0,71,0.00,,---,0.00,VWS V14.01,2013-11-24 04:58:00,
2013-11-23 23:59:00,23.3,15.3,30.57,NNW,345,0.0,3.0,71,0.00,,---,0.00,VWS V15.00,2013-11-24 04:59:00,